Wetterdaten: Freitag, 22.09.2017
Datum Zeit Temp. A. Pool Temp. Feuchte A. Luftdruck Regen Wind Richtung Richtung Sonnenschein ET UV Solar Taupunkt Windchill Windben Empfang
22.09.2017 00:00 10,8 C 13,3 C 88 % 1019,7 hPa 0,0 l/m 6,3 km/h (2 Bft) S-SW 212 0 min 0,000 mm 0,0 UV-I 0 W/m 8,9 C 10,8 C 11,3 km/h (2 Bft) 94,87 %
22.09.2017 00:02 10,8 C 13,3 C 88 % 1019,7 hPa 0,0 l/m 7,4 km/h (2 Bft) SW 229 0 min 0,000 mm 0,0 UV-I 0 W/m 8,9 C 10,1 C 11,3 km/h (2 Bft) 95,00 %
22.09.2017 00:04 10,8 C 13,3 C 88 % 1019,7 hPa 0,0 l/m 6,8 km/h (2 Bft) SW 225 0 min 0,000 mm 0,0 UV-I 0 W/m 8,9 C 10,5 C 9,7 km/h (2 Bft) 94,23 %
22.09.2017 00:06 10,8 C 13,3 C 88 % 1019,7 hPa 0,0 l/m 7,0 km/h (2 Bft) SW 226 0 min 0,000 mm 0,0 UV-I 0 W/m 8,9 C 10,4 C 9,7 km/h (2 Bft) 95,83 %
22.09.2017 00:08 10,8 C 13,3 C 88 % 1019,7 hPa 0,0 l/m 6,7 km/h (2 Bft) SW 217 0 min 0,000 mm 0,0 UV-I 0 W/m 8,9 C 10,6 C 11,3 km/h (2 Bft) 97,14 %
22.09.2017 00:10 10,8 C 13,3 C 88 % 1019,8 hPa 0,0 l/m 6,4 km/h (2 Bft) SW 219 0 min 0,000 mm 0,0 UV-I 0 W/m 8,9 C 10,8 C 11,3 km/h (2 Bft) 92,45 %
22.09.2017 00:12 10,8 C 13,3 C 88 % 1019,8 hPa 0,0 l/m 7,3 km/h (2 Bft) SW 215 0 min 0,000 mm 0,0 UV-I 0 W/m 8,9 C 10,2 C 11,3 km/h (2 Bft) 94,00 %
22.09.2017 00:14 10,8 C 13,3 C 88 % 1019,7 hPa 0,0 l/m 6,8 km/h (2 Bft) S-SW 193 0 min 0,000 mm 0,0 UV-I 0 W/m 8,9 C 10,5 C 9,7 km/h (2 Bft) 94,74 %
22.09.2017 00:16 10,7 C 13,3 C 88 % 1019,7 hPa 0,0 l/m 8,1 km/h (2 Bft) S-SW 205 0 min 0,000 mm 0,0 UV-I 0 W/m 8,8 C 9,5 C 14,5 km/h (3 Bft) 96,43 %
22.09.2017 00:18 10,7 C 13,3 C 88 % 1019,7 hPa 0,0 l/m 8,3 km/h (2 Bft) SW 218 0 min 0,000 mm 0,0 UV-I 0 W/m 8,8 C 9,4 C 14,5 km/h (3 Bft) 96,00 %
22.09.2017 00:20 10,7 C 13,3 C 88 % 1019,7 hPa 0,0 l/m 7,5 km/h (2 Bft) S-SW 194 0 min 0,000 mm 0,0 UV-I 0 W/m 8,8 C 9,9 C 11,3 km/h (2 Bft) 94,74 %
22.09.2017 00:22 10,7 C 13,3 C 88 % 1019,7 hPa 0,0 l/m 7,4 km/h (2 Bft) W-SW 237 0 min 0,000 mm 0,0 UV-I 0 W/m 8,8 C 10,0 C 12,9 km/h (3 Bft) 94,00 %
22.09.2017 00:24 10,7 C 13,3 C 87 % 1019,7 hPa 0,0 l/m 6,3 km/h (2 Bft) SW 220 0 min 0,000 mm 0,0 UV-I 0 W/m 8,6 C 10,7 C 9,7 km/h (2 Bft) 94,00 %
22.09.2017 00:26 10,7 C 13,3 C 87 % 1019,8 hPa 0,0 l/m 6,7 km/h (2 Bft) S-SW 202 0 min 0,000 mm 0,0 UV-I 0 W/m 8,6 C 10,5 C 9,7 km/h (2 Bft) 95,12 %
22.09.2017 00:28 10,7 C 13,3 C 87 % 1019,8 hPa 0,0 l/m 6,1 km/h (2 Bft) SW 215 0 min 0,000 mm 0,0 UV-I 0 W/m 8,6 C 10,7 C 9,7 km/h (2 Bft) 95,74 %
22.09.2017 00:30 10,7 C 13,3 C 87 % 1019,8 hPa 0,0 l/m 6,1 km/h (2 Bft) SW 227 0 min 0,000 mm 0,0 UV-I 0 W/m 8,6 C 10,7 C 8,0 km/h (2 Bft) 98,11 %
22.09.2017 00:32 10,6 C 13,3 C 87 % 1019,8 hPa 0,0 l/m 6,6 km/h (2 Bft) S-SW 213 0 min 0,000 mm 0,0 UV-I 0 W/m 8,5 C 10,5 C 9,7 km/h (2 Bft) 94,74 %
22.09.2017 00:34 10,6 C 13,3 C 87 % 1019,8 hPa 0,0 l/m 5,7 km/h (1 Bft) SW 225 0 min 0,000 mm 0,0 UV-I 0 W/m 8,5 C 10,6 C 9,7 km/h (2 Bft) 97,87 %
22.09.2017 00:36 10,7 C 13,3 C 87 % 1019,8 hPa 0,0 l/m 6,5 km/h (2 Bft) SW 232 0 min 0,000 mm 0,0 UV-I 0 W/m 8,6 C 10,7 C 9,7 km/h (2 Bft) 96,23 %
22.09.2017 00:38 10,6 C 13,3 C 87 % 1019,8 hPa 0,0 l/m 5,5 km/h (1 Bft) S-SW 202 0 min 0,000 mm 0,0 UV-I 0 W/m 8,5 C 10,6 C 8,0 km/h (2 Bft) 97,87 %
22.09.2017 00:40 10,6 C 13,3 C 87 % 1019,8 hPa 0,0 l/m 5,8 km/h (2 Bft) SW 217 0 min 0,000 mm 0,0 UV-I 0 W/m 8,5 C 10,6 C 8,0 km/h (2 Bft) 98,00 %
22.09.2017 00:42 10,6 C 13,3 C 87 % 1019,8 hPa 0,0 l/m 6,3 km/h (2 Bft) SW 217 0 min 0,000 mm 0,0 UV-I 0 W/m 8,5 C 10,6 C 8,0 km/h (2 Bft) 97,22 %
22.09.2017 00:44 10,6 C 13,3 C 88 % 1019,8 hPa 0,0 l/m 6,8 km/h (2 Bft) S-SW 210 0 min 0,000 mm 0,0 UV-I 0 W/m 8,7 C 10,3 C 11,3 km/h (2 Bft) 98,11 %
22.09.2017 00:46 10,6 C 13,3 C 88 % 1019,8 hPa 0,0 l/m 5,4 km/h (1 Bft) SW 227 0 min 0,000 mm 0,0 UV-I 0 W/m 8,7 C 10,6 C 8,0 km/h (2 Bft) 96,55 %
22.09.2017 00:48 10,6 C 13,3 C 88 % 1019,8 hPa 0,0 l/m 6,5 km/h (2 Bft) W-SW 241 0 min 0,000 mm 0,0 UV-I 0 W/m 8,7 C 10,6 C 11,3 km/h (2 Bft) 98,53 %
22.09.2017 00:50 10,6 C 13,3 C 88 % 1019,8 hPa 0,0 l/m 5,3 km/h (1 Bft) SW 217 0 min 0,000 mm 0,0 UV-I 0 W/m 8,7 C 10,6 C 8,0 km/h (2 Bft) 97,87 %
22.09.2017 00:52 10,6 C 13,3 C 88 % 1019,8 hPa 0,0 l/m 5,9 km/h (2 Bft) SW 218 0 min 0,000 mm 0,0 UV-I 0 W/m 8,7 C 10,6 C 9,7 km/h (2 Bft) 100,00 %
22.09.2017 00:54 10,6 C 13,3 C 88 % 1019,8 hPa 0,0 l/m 6,7 km/h (2 Bft) SW 235 0 min 0,000 mm 0,0 UV-I 0 W/m 8,7 C 10,4 C 12,9 km/h (3 Bft) 100,00 %
22.09.2017 00:56 10,6 C 13,3 C 88 % 1019,8 hPa 0,0 l/m 6,1 km/h (2 Bft) SW 222 0 min 0,000 mm 0,0 UV-I 0 W/m 8,7 C 10,6 C 9,7 km/h (2 Bft) 98,21 %
22.09.2017 00:58 10,6 C 13,3 C 88 % 1019,8 hPa 0,0 l/m 6,4 km/h (2 Bft) W-SW 240 0 min 0,000 mm 0,0 UV-I 0 W/m 8,7 C 10,6 C 9,7 km/h (2 Bft) 100,00 %
22.09.2017 01:00 10,6 C 13,3 C 88 % 1019,8 hPa 0,0 l/m 6,1 km/h (2 Bft) SW 223 0 min 0,000 mm 0,0 UV-I 0 W/m 8,7 C 10,6 C 8,0 km/h (2 Bft) 96,23 %
22.09.2017 01:02 10,5 C 13,3 C 88 % 1019,8 hPa 0,0 l/m 5,4 km/h (1 Bft) SW 224 0 min 0,000 mm 0,0 UV-I 0 W/m 8,6 C 10,5 C 9,7 km/h (2 Bft) 100,00 %
22.09.2017 01:04 10,5 C 13,3 C 88 % 1019,8 hPa 0,0 l/m 7,4 km/h (2 Bft) SW 225 0 min 0,000 mm 0,0 UV-I 0 W/m 8,6 C 9,8 C 11,3 km/h (2 Bft) 100,00 %
22.09.2017 01:06 10,5 C 13,3 C 88 % 1019,8 hPa 0,0 l/m 7,8 km/h (2 Bft) W-SW 238 0 min 0,000 mm 0,0 UV-I 0 W/m 8,6 C 9,5 C 11,3 km/h (2 Bft) 97,87 %
22.09.2017 01:08 10,4 C 13,3 C 88 % 1019,8 hPa 0,0 l/m 6,1 km/h (2 Bft) SW 215 0 min 0,000 mm 0,0 UV-I 0 W/m 8,5 C 10,4 C 8,0 km/h (2 Bft) 100,00 %
22.09.2017 01:10 10,4 C 13,3 C 88 % 1019,8 hPa 0,0 l/m 6,9 km/h (2 Bft) W-SW 239 0 min 0,000 mm 0,0 UV-I 0 W/m 8,5 C 10,0 C 9,7 km/h (2 Bft) 96,23 %
22.09.2017 01:12 10,4 C 13,3 C 88 % 1019,8 hPa 0,0 l/m 7,6 km/h (2 Bft) S 186 0 min 0,000 mm 0,0 UV-I 0 W/m 8,5 C 9,5 C 12,9 km/h (3 Bft) 100,00 %
22.09.2017 01:14 10,4 C 13,3 C 88 % 1019,9 hPa 0,0 l/m 7,1 km/h (2 Bft) SW 234 0 min 0,000 mm 0,0 UV-I 0 W/m 8,5 C 9,9 C 9,7 km/h (2 Bft) 100,00 %
22.09.2017 01:16 10,4 C 13,3 C 88 % 1019,9 hPa 0,0 l/m 7,1 km/h (2 Bft) SW 215 0 min 0,000 mm 0,0 UV-I 0 W/m 8,5 C 9,9 C 9,7 km/h (2 Bft) 97,62 %
22.09.2017 01:18 10,3 C 13,3 C 88 % 1019,9 hPa 0,0 l/m 6,9 km/h (2 Bft) SW 228 0 min 0,000 mm 0,0 UV-I 0 W/m 8,4 C 9,9 C 9,7 km/h (2 Bft) 100,00 %
22.09.2017 01:20 10,4 C 13,3 C 88 % 1019,9 hPa 0,0 l/m 6,9 km/h (2 Bft) SW 230 0 min 0,000 mm 0,0 UV-I 0 W/m 8,5 C 10,0 C 12,9 km/h (3 Bft) 100,00 %
22.09.2017 01:22 10,3 C 13,3 C 88 % 1019,9 hPa 0,0 l/m 5,9 km/h (2 Bft) SW 232 0 min 0,000 mm 0,0 UV-I 0 W/m 8,4 C 10,3 C 9,7 km/h (2 Bft) 97,62 %
22.09.2017 01:24 10,3 C 13,3 C 87 % 1019,9 hPa 0,0 l/m 5,6 km/h (1 Bft) SW 221 0 min 0,000 mm 0,0 UV-I 0 W/m 8,2 C 10,3 C 11,3 km/h (2 Bft) 100,00 %
22.09.2017 01:26 10,3 C 13,3 C 87 % 1019,9 hPa 0,0 l/m 6,8 km/h (2 Bft) S-SW 209 0 min 0,000 mm 0,0 UV-I 0 W/m 8,2 C 10,0 C 12,9 km/h (3 Bft) 100,00 %
22.09.2017 01:28 10,3 C 13,3 C 87 % 1019,9 hPa 0,0 l/m 8,0 km/h (2 Bft) S-SW 206 0 min 0,000 mm 0,0 UV-I 0 W/m 8,2 C 9,2 C 11,3 km/h (2 Bft) 100,00 %
22.09.2017 01:30 10,3 C 13,3 C 87 % 1019,9 hPa 0,0 l/m 7,1 km/h (2 Bft) S-SW 194 0 min 0,000 mm 0,0 UV-I 0 W/m 8,2 C 9,8 C 9,7 km/h (2 Bft) 100,00 %
22.09.2017 01:32 10,3 C 13,3 C 87 % 1019,9 hPa 0,0 l/m 5,9 km/h (2 Bft) S-SW 207 0 min 0,000 mm 0,0 UV-I 0 W/m 8,2 C 10,3 C 9,7 km/h (2 Bft) 100,00 %
22.09.2017 01:34 10,3 C 13,3 C 87 % 1019,9 hPa 0,0 l/m 6,3 km/h (2 Bft) S-SW 213 0 min 0,000 mm 0,0 UV-I 0 W/m 8,2 C 10,3 C 9,7 km/h (2 Bft) 98,00 %
22.09.2017 01:36 10,3 C 13,3 C 87 % 1020,0 hPa 0,0 l/m 6,5 km/h (2 Bft) S-SW 206 0 min 0,000 mm 0,0 UV-I 0 W/m 8,2 C 10,3 C 11,3 km/h (2 Bft) 97,87 %
22.09.2017 01:38 10,3 C 13,3 C 87 % 1019,9 hPa 0,0 l/m 7,1 km/h (2 Bft) W-SW 242 0 min 0,000 mm 0,0 UV-I 0 W/m 8,2 C 9,8 C 11,3 km/h (2 Bft) 98,00 %
22.09.2017 01:40 10,3 C 13,3 C 87 % 1019,9 hPa 0,0 l/m 6,8 km/h (2 Bft) SW 231 0 min 0,000 mm 0,0 UV-I 0 W/m 8,2 C 10,0 C 9,7 km/h (2 Bft) 100,00 %
22.09.2017 01:42 10,3 C 13,3 C 87 % 1019,9 hPa 0,0 l/m 8,1 km/h (2 Bft) SW 227 0 min 0,000 mm 0,0 UV-I 0 W/m 8,2 C 9,1 C 12,9 km/h (3 Bft) 100,00 %
22.09.2017 01:44 10,3 C 13,3 C 87 % 1020,0 hPa 0,0 l/m 7,2 km/h (2 Bft) SW 219 0 min 0,000 mm 0,0 UV-I 0 W/m 8,2 C 9,7 C 9,7 km/h (2 Bft) 100,00 %
22.09.2017 01:46 10,2 C 13,3 C 87 % 1020,0 hPa 0,0 l/m 7,5 km/h (2 Bft) SW 221 0 min 0,000 mm 0,0 UV-I 0 W/m 8,1 C 9,4 C 11,3 km/h (2 Bft) 100,00 %
22.09.2017 01:48 10,2 C 13,3 C 88 % 1019,9 hPa 0,0 l/m 8,9 km/h (2 Bft) W-SW 237 0 min 0,000 mm 0,0 UV-I 0 W/m 8,3 C 8,5 C 11,3 km/h (2 Bft) 93,18 %
22.09.2017 01:50 10,2 C 13,3 C 88 % 1019,9 hPa 0,0 l/m 8,0 km/h (2 Bft) SW 233 0 min 0,000 mm 0,0 UV-I 0 W/m 8,3 C 9,1 C 11,3 km/h (2 Bft) 98,00 %
22.09.2017 01:52 10,2 C 13,3 C 88 % 1019,9 hPa 0,0 l/m 8,9 km/h (2 Bft) SW 229 0 min 0,000 mm 0,0 UV-I 0 W/m 8,3 C 8,5 C 12,9 km/h (3 Bft) 100,00 %
22.09.2017 01:54 10,2 C 13,3 C 88 % 1019,9 hPa 0,0 l/m 7,3 km/h (2 Bft) W-SW 238 0 min 0,000 mm 0,0 UV-I 0 W/m 8,3 C 9,6 C 9,7 km/h (2 Bft) 100,00 %
22.09.2017 01:56 10,2 C 13,3 C 88 % 1019,9 hPa 0,0 l/m 6,5 km/h (2 Bft) SW 232 0 min 0,000 mm 0,0 UV-I 0 W/m 8,3 C 10,2 C 9,7 km/h (2 Bft) 100,00 %
22.09.2017 01:58 10,2 C 13,3 C 88 % 1019,9 hPa 0,0 l/m 6,8 km/h (2 Bft) W-SW 240 0 min 0,000 mm 0,0 UV-I 0 W/m 8,3 C 9,9 C 9,7 km/h (2 Bft) 97,56 %
22.09.2017 02:00 10,2 C 13,3 C 88 % 1019,9 hPa 0,0 l/m 7,4 km/h (2 Bft) SW 222 0 min 0,000 mm 0,0 UV-I 0 W/m 8,3 C 9,5 C 11,3 km/h (2 Bft) 97,62 %
22.09.2017 02:02 10,2 C 13,3 C 89 % 1019,9 hPa 0,0 l/m 6,4 km/h (2 Bft) W-SW 245 0 min 0,000 mm 0,0 UV-I 0 W/m 8,5 C 10,2 C 9,7 km/h (2 Bft) 98,15 %
22.09.2017 02:04 10,2 C 13,3 C 88 % 1019,9 hPa 0,0 l/m 8,4 km/h (2 Bft) SW 234 0 min 0,000 mm 0,0 UV-I 0 W/m 8,3 C 8,8 C 14,5 km/h (3 Bft) 98,00 %
22.09.2017 02:06 10,2 C 13,3 C 88 % 1019,8 hPa 0,0 l/m 7,0 km/h (2 Bft) S-SW 209 0 min 0,000 mm 0,0 UV-I 0 W/m 8,3 C 9,8 C 11,3 km/h (2 Bft) 97,56 %
22.09.2017 02:08 10,2 C 13,3 C 89 % 1019,9 hPa 0,0 l/m 6,2 km/h (2 Bft) SW 215 0 min 0,000 mm 0,0 UV-I 0 W/m 8,5 C 10,2 C 9,7 km/h (2 Bft) 97,56 %
22.09.2017 02:10 10,2 C 13,3 C 89 % 1019,8 hPa 0,0 l/m 7,0 km/h (2 Bft) S-SW 204 0 min 0,000 mm 0,0 UV-I 0 W/m 8,5 C 9,8 C 11,3 km/h (2 Bft) 96,23 %
22.09.2017 02:12 10,2 C 13,3 C 89 % 1019,8 hPa 0,0 l/m 8,2 km/h (2 Bft) W-SW 238 0 min 0,000 mm 0,0 UV-I 0 W/m 8,5 C 8,9 C 11,3 km/h (2 Bft) 92,68 %
22.09.2017 02:14 10,2 C 13,3 C 89 % 1019,9 hPa 0,0 l/m 5,8 km/h (2 Bft) SW 219 0 min 0,000 mm 0,0 UV-I 0 W/m 8,5 C 10,2 C 8,0 km/h (2 Bft) 98,00 %
22.09.2017 02:16 10,2 C 13,3 C 89 % 1019,8 hPa 0,0 l/m 5,8 km/h (2 Bft) SW 216 0 min 0,000 mm 0,0 UV-I 0 W/m 8,5 C 10,2 C 9,7 km/h (2 Bft) 98,21 %
22.09.2017 02:18 10,1 C 13,3 C 89 % 1019,9 hPa 0,0 l/m 6,7 km/h (2 Bft) SW 221 0 min 0,000 mm 0,0 UV-I 0 W/m 8,4 C 9,9 C 11,3 km/h (2 Bft) 93,62 %
22.09.2017 02:20 10,1 C 13,3 C 89 % 1019,9 hPa 0,0 l/m 6,9 km/h (2 Bft) S-SW 205 0 min 0,000 mm 0,0 UV-I 0 W/m 8,4 C 9,7 C 9,7 km/h (2 Bft) 94,74 %
22.09.2017 02:22 10,1 C 13,3 C 89 % 1019,9 hPa 0,0 l/m 6,5 km/h (2 Bft) S-SW 197 0 min 0,000 mm 0,0 UV-I 0 W/m 8,4 C 10,1 C 9,7 km/h (2 Bft) 98,11 %
22.09.2017 02:24 10,1 C 13,3 C 89 % 1019,9 hPa 0,0 l/m 7,8 km/h (2 Bft) S-SW 202 0 min 0,000 mm 0,0 UV-I 0 W/m 8,4 C 9,1 C 11,3 km/h (2 Bft) 97,56 %
22.09.2017 02:26 10,1 C 13,3 C 89 % 1019,9 hPa 0,0 l/m 7,3 km/h (2 Bft) S-SW 208 0 min 0,000 mm 0,0 UV-I 0 W/m 8,4 C 9,4 C 12,9 km/h (3 Bft) 96,23 %
22.09.2017 02:28 10,1 C 13,3 C 89 % 1019,9 hPa 0,0 l/m 6,4 km/h (2 Bft) S-SW 196 0 min 0,000 mm 0,0 UV-I 0 W/m 8,4 C 10,1 C 9,7 km/h (2 Bft) 89,47 %
22.09.2017 02:30 10,1 C 13,3 C 89 % 1019,9 hPa 0,0 l/m 7,7 km/h (2 Bft) SW 229 0 min 0,000 mm 0,0 UV-I 0 W/m 8,4 C 9,2 C 11,3 km/h (2 Bft) 98,00 %
22.09.2017 02:32 10,0 C 13,3 C 89 % 1019,8 hPa 0,0 l/m 8,5 km/h (2 Bft) S-SW 210 0 min 0,000 mm 0,0 UV-I 0 W/m 8,3 C 8,5 C 14,5 km/h (3 Bft) 97,87 %
22.09.2017 02:34 10,0 C 13,3 C 89 % 1019,8 hPa 0,0 l/m 6,8 km/h (2 Bft) W-SW 245 0 min 0,000 mm 0,0 UV-I 0 W/m 8,3 C 9,7 C 9,7 km/h (2 Bft) 98,00 %
22.09.2017 02:36 10,0 C 13,3 C 89 % 1019,8 hPa 0,0 l/m 8,5 km/h (2 Bft) S-SW 201 0 min 0,000 mm 0,0 UV-I 0 W/m 8,3 C 8,5 C 12,9 km/h (3 Bft) 96,00 %
22.09.2017 02:38 10,0 C 13,3 C 89 % 1019,8 hPa 0,0 l/m 6,9 km/h (2 Bft) W-SW 242 0 min 0,000 mm 0,0 UV-I 0 W/m 8,3 C 9,6 C 9,7 km/h (2 Bft) 100,00 %
22.09.2017 02:40 10,0 C 13,3 C 89 % 1019,7 hPa 0,0 l/m 7,9 km/h (2 Bft) SW 227 0 min 0,000 mm 0,0 UV-I 0 W/m 8,3 C 8,9 C 12,9 km/h (3 Bft) 96,15 %
22.09.2017 02:42 9,9 C 13,3 C 89 % 1019,8 hPa 0,0 l/m 7,9 km/h (2 Bft) S-SW 200 0 min 0,000 mm 0,0 UV-I 0 W/m 8,2 C 8,8 C 11,3 km/h (2 Bft) 100,00 %
22.09.2017 02:44 9,9 C 13,3 C 89 % 1019,8 hPa 0,0 l/m 8,4 km/h (2 Bft) W-SW 239 0 min 0,000 mm 0,0 UV-I 0 W/m 8,2 C 8,5 C 14,5 km/h (3 Bft) 100,00 %
22.09.2017 02:46 9,9 C 13,3 C 89 % 1019,8 hPa 0,0 l/m 8,3 km/h (2 Bft) S-SW 211 0 min 0,000 mm 0,0 UV-I 0 W/m 8,2 C 8,5 C 12,9 km/h (3 Bft) 100,00 %
22.09.2017 02:48 9,9 C 13,3 C 89 % 1019,8 hPa 0,0 l/m 8,2 km/h (2 Bft) S-SW 212 0 min 0,000 mm 0,0 UV-I 0 W/m 8,2 C 8,6 C 12,9 km/h (3 Bft) 100,00 %
22.09.2017 02:50 9,9 C 13,3 C 89 % 1019,8 hPa 0,0 l/m 7,5 km/h (2 Bft) W-SW 246 0 min 0,000 mm 0,0 UV-I 0 W/m 8,2 C 9,1 C 12,9 km/h (3 Bft) 100,00 %
22.09.2017 02:52 9,9 C 13,3 C 88 % 1019,8 hPa 0,0 l/m 8,1 km/h (2 Bft) S-SW 198 0 min 0,000 mm 0,0 UV-I 0 W/m 8,0 C 8,7 C 12,9 km/h (3 Bft) 100,00 %
22.09.2017 02:54 9,9 C 13,3 C 88 % 1019,8 hPa 0,0 l/m 7,9 km/h (2 Bft) SW 236 0 min 0,000 mm 0,0 UV-I 0 W/m 8,0 C 8,8 C 11,3 km/h (2 Bft) 98,00 %
22.09.2017 02:56 9,9 C 13,3 C 88 % 1019,8 hPa 0,0 l/m 8,8 km/h (2 Bft) SW 223 0 min 0,000 mm 0,0 UV-I 0 W/m 8,0 C 8,2 C 14,5 km/h (3 Bft) 100,00 %
22.09.2017 02:58 9,9 C 13,3 C 88 % 1019,7 hPa 0,0 l/m 9,5 km/h (2 Bft) W-SW 240 0 min 0,000 mm 0,0 UV-I 0 W/m 8,0 C 7,8 C 12,9 km/h (3 Bft) 100,00 %
22.09.2017 03:00 9,9 C 13,3 C 88 % 1019,7 hPa 0,0 l/m 9,3 km/h (2 Bft) S-SW 211 0 min 0,000 mm 0,0 UV-I 0 W/m 8,0 C 7,9 C 14,5 km/h (3 Bft) 95,12 %
22.09.2017 03:02 9,9 C 13,3 C 88 % 1019,8 hPa 0,0 l/m 9,7 km/h (2 Bft) SW 227 0 min 0,000 mm 0,0 UV-I 0 W/m 8,0 C 7,7 C 12,9 km/h (3 Bft) 100,00 %
22.09.2017 03:04 9,8 C 13,3 C 88 % 1019,7 hPa 0,0 l/m 8,5 km/h (2 Bft) SW 223 0 min 0,000 mm 0,0 UV-I 0 W/m 7,9 C 8,3 C 14,5 km/h (3 Bft) 100,00 %
22.09.2017 03:06 9,8 C 13,3 C 88 % 1019,7 hPa 0,0 l/m 8,9 km/h (2 Bft) S-SW 202 0 min 0,000 mm 0,0 UV-I 0 W/m 7,9 C 8,0 C 14,5 km/h (3 Bft) 100,00 %
22.09.2017 03:08 9,8 C 13,3 C 88 % 1019,7 hPa 0,0 l/m 9,3 km/h (2 Bft) SW 229 0 min 0,000 mm 0,0 UV-I 0 W/m 7,9 C 7,8 C 14,5 km/h (3 Bft) 100,00 %
22.09.2017 03:10 9,8 C 13,3 C 88 % 1019,7 hPa 0,0 l/m 6,1 km/h (2 Bft) S-SW 208 0 min 0,000 mm 0,0 UV-I 0 W/m 7,9 C 9,8 C 9,7 km/h (2 Bft) 100,00 %
22.09.2017 03:12 9,8 C 13,3 C 88 % 1019,7 hPa 0,0 l/m 8,4 km/h (2 Bft) W-SW 250 0 min 0,000 mm 0,0 UV-I 0 W/m 7,9 C 8,4 C 14,5 km/h (3 Bft) 100,00 %
22.09.2017 03:14 9,8 C 13,3 C 88 % 1019,6 hPa 0,0 l/m 8,3 km/h (2 Bft) SW 232 0 min 0,000 mm 0,0 UV-I 0 W/m 7,9 C 8,4 C 12,9 km/h (3 Bft) 100,00 %
22.09.2017 03:16 9,8 C 13,3 C 88 % 1019,6 hPa 0,0 l/m 9,4 km/h (2 Bft) W-SW 250 0 min 0,000 mm 0,0 UV-I 0 W/m 7,9 C 7,7 C 14,5 km/h (3 Bft) 100,00 %
22.09.2017 03:18 9,8 C 13,3 C 88 % 1019,6 hPa 0,0 l/m 9,8 km/h (2 Bft) W-SW 245 0 min 0,000 mm 0,0 UV-I 0 W/m 7,9 C 7,5 C 12,9 km/h (3 Bft) 100,00 %
22.09.2017 03:20 9,8 C 13,3 C 88 % 1019,7 hPa 0,0 l/m 7,8 km/h (2 Bft) SW 224 0 min 0,000 mm 0,0 UV-I 0 W/m 7,9 C 8,8 C 12,9 km/h (3 Bft) 100,00 %
22.09.2017 03:22 9,8 C 13,3 C 88 % 1019,7 hPa 0,0 l/m 7,4 km/h (2 Bft) SW 229 0 min 0,000 mm 0,0 UV-I 0 W/m 7,9 C 9,1 C 14,5 km/h (3 Bft) 96,55 %
22.09.2017 03:24 9,8 C 13,3 C 88 % 1019,7 hPa 0,0 l/m 10,5 km/h (2 Bft) W-SW 249 0 min 0,000 mm 0,0 UV-I 0 W/m 7,9 C 7,1 C 16,1 km/h (3 Bft) 98,53 %
22.09.2017 03:26 9,8 C 13,3 C 88 % 1019,7 hPa 0,0 l/m 6,9 km/h (2 Bft) SW 230 0 min 0,000 mm 0,0 UV-I 0 W/m 7,9 C 9,4 C 11,3 km/h (2 Bft) 97,56 %
22.09.2017 03:28 9,8 C 13,3 C 88 % 1019,8 hPa 0,0 l/m 6,2 km/h (2 Bft) W-SW 238 0 min 0,000 mm 0,0 UV-I 0 W/m 7,9 C 9,8 C 11,3 km/h (2 Bft) 97,87 %
22.09.2017 03:30 9,8 C 13,3 C 88 % 1019,7 hPa 0,0 l/m 7,2 km/h (2 Bft) S-SW 207 0 min 0,000 mm 0,0 UV-I 0 W/m 7,9 C 9,2 C 12,9 km/h (3 Bft) 98,11 %
22.09.2017 03:32 9,8 C 13,3 C 88 % 1019,7 hPa 0,0 l/m 7,0 km/h (2 Bft) SW 223 0 min 0,000 mm 0,0 UV-I 0 W/m 7,9 C 9,4 C 9,7 km/h (2 Bft) 97,87 %
22.09.2017 03:34 9,8 C 13,3 C 88 % 1019,7 hPa 0,0 l/m 7,5 km/h (2 Bft) S-SW 198 0 min 0,000 mm 0,0 UV-I 0 W/m 7,9 C 9,0 C 11,3 km/h (2 Bft) 97,37 %
22.09.2017 03:36 9,8 C 13,3 C 88 % 1019,7 hPa 0,0 l/m 6,9 km/h (2 Bft) W-SW 249 0 min 0,000 mm 0,0 UV-I 0 W/m 7,9 C 9,4 C 9,7 km/h (2 Bft) 96,23 %
22.09.2017 03:38 9,8 C 13,3 C 88 % 1019,7 hPa 0,0 l/m 8,4 km/h (2 Bft) S-SW 192 0 min 0,000 mm 0,0 UV-I 0 W/m 7,9 C 8,4 C 11,3 km/h (2 Bft) 97,56 %
22.09.2017 03:40 9,8 C 13,3 C 88 % 1019,7 hPa 0,0 l/m 8,9 km/h (2 Bft) S-SW 207 0 min 0,000 mm 0,0 UV-I 0 W/m 7,9 C 8,0 C 14,5 km/h (3 Bft) 98,11 %
22.09.2017 03:42 9,8 C 13,3 C 88 % 1019,7 hPa 0,0 l/m 8,9 km/h (2 Bft) SW 218 0 min 0,000 mm 0,0 UV-I 0 W/m 7,9 C 8,0 C 12,9 km/h (3 Bft) 97,56 %
22.09.2017 03:44 9,8 C 13,3 C 88 % 1019,7 hPa 0,0 l/m 8,0 km/h (2 Bft) S-SW 193 0 min 0,000 mm 0,0 UV-I 0 W/m 7,9 C 8,6 C 11,3 km/h (2 Bft) 96,00 %
22.09.2017 03:46 9,8 C 13,3 C 88 % 1019,7 hPa 0,0 l/m 7,5 km/h (2 Bft) W-SW 243 0 min 0,000 mm 0,0 UV-I 0 W/m 7,9 C 9,0 C 14,5 km/h (3 Bft) 96,23 %
22.09.2017 03:48 9,8 C 13,3 C 88 % 1019,7 hPa 0,0 l/m 9,7 km/h (2 Bft) S-SW 207 0 min 0,000 mm 0,0 UV-I 0 W/m 7,9 C 7,6 C 14,5 km/h (3 Bft) 94,29 %
22.09.2017 03:50 9,8 C 13,3 C 87 % 1019,8 hPa 0,0 l/m 5,0 km/h (1 Bft) S-SW 199 0 min 0,000 mm 0,0 UV-I 0 W/m 7,7 C 9,8 C 8,0 km/h (2 Bft) 98,00 %
22.09.2017 03:52 9,8 C 13,3 C 87 % 1019,7 hPa 0,0 l/m 5,6 km/h (1 Bft) SW 227 0 min 0,000 mm 0,0 UV-I 0 W/m 7,7 C 9,8 C 9,7 km/h (2 Bft) 95,74 %
22.09.2017 03:54 9,8 C 13,3 C 87 % 1019,8 hPa 0,0 l/m 5,2 km/h (1 Bft) W-SW 239 0 min 0,000 mm 0,0 UV-I 0 W/m 7,7 C 9,8 C 11,3 km/h (2 Bft) 98,00 %
22.09.2017 03:56 9,8 C 13,3 C 87 % 1019,8 hPa 0,0 l/m 4,0 km/h (1 Bft) W 264 0 min 0,000 mm 0,0 UV-I 0 W/m 7,7 C 9,8 C 6,4 km/h (2 Bft) 98,00 %
22.09.2017 03:58 9,8 C 13,3 C 88 % 1019,7 hPa 0,0 l/m 3,4 km/h (1 Bft) W 266 0 min 0,000 mm 0,0 UV-I 0 W/m 7,9 C 9,8 C 6,4 km/h (2 Bft) 97,44 %
22.09.2017 04:00 9,8 C 13,3 C 88 % 1019,8 hPa 0,0 l/m 3,5 km/h (1 Bft) W 267 0 min 0,000 mm 0,0 UV-I 0 W/m 7,9 C 9,8 C 6,4 km/h (2 Bft) 96,00 %
22.09.2017 04:05 9,8 C 13,3 C 88 % 1019,7 hPa 0,0 l/m 3,5 km/h (1 Bft) W-SW 248 0 min 0,000 mm 0,0 UV-I 0 W/m 7,9 C 9,8 C 6,4 km/h (2 Bft) 97,78 %
22.09.2017 04:06 9,8 C 13,3 C 88 % 1019,7 hPa 0,0 l/m 5,2 km/h (1 Bft) W-SW 248 0 min 0,000 mm 0,0 UV-I 0 W/m 7,9 C 9,8 C 8,0 km/h (2 Bft) 100,00 %
22.09.2017 04:10 9,8 C 13,3 C 88 % 1019,7 hPa 0,0 l/m 6,4 km/h (2 Bft) SW 220 0 min 0,000 mm 0,0 UV-I 0 W/m 7,9 C 9,8 C 9,7 km/h (2 Bft) 96,00 %
22.09.2017 04:12 9,7 C 13,3 C 88 % 1019,7 hPa 0,0 l/m 5,7 km/h (1 Bft) S-SW 205 0 min 0,000 mm 0,0 UV-I 0 W/m 7,8 C 9,7 C 8,0 km/h (2 Bft) 95,12 %
22.09.2017 04:14 9,7 C 13,3 C 88 % 1019,7 hPa 0,0 l/m 5,5 km/h (1 Bft) SW 232 0 min 0,000 mm 0,0 UV-I 0 W/m 7,8 C 9,7 C 8,0 km/h (2 Bft) 93,62 %
22.09.2017 04:16 9,7 C 13,3 C 88 % 1019,7 hPa 0,0 l/m 4,7 km/h (1 Bft) W-SW 238 0 min 0,000 mm 0,0 UV-I 0 W/m 7,8 C 9,7 C 6,4 km/h (2 Bft) 98,00 %
22.09.2017 04:18 9,7 C 13,3 C 88 % 1019,7 hPa 0,0 l/m 4,7 km/h (1 Bft) SW 234 0 min 0,000 mm 0,0 UV-I 0 W/m 7,8 C 9,7 C 8,0 km/h (2 Bft) 95,74 %
22.09.2017 04:20 9,7 C 13,3 C 88 % 1019,8 hPa 0,0 l/m 4,9 km/h (1 Bft) SW 235 0 min 0,000 mm 0,0 UV-I 0 W/m 7,8 C 9,7 C 8,0 km/h (2 Bft) 94,74 %
22.09.2017 04:22 9,7 C 13,3 C 88 % 1019,7 hPa 0,0 l/m 5,1 km/h (1 Bft) SW 226 0 min 0,000 mm 0,0 UV-I 0 W/m 7,8 C 9,7 C 6,4 km/h (2 Bft) 96,43 %
22.09.2017 04:24 9,7 C 13,3 C 88 % 1019,7 hPa 0,0 l/m 5,0 km/h (1 Bft) SW 230 0 min 0,000 mm 0,0 UV-I 0 W/m 7,8 C 9,7 C 6,4 km/h (2 Bft) 94,00 %
22.09.2017 04:26 9,7 C 13,3 C 88 % 1019,8 hPa 0,0 l/m 5,1 km/h (1 Bft) W-SW 241 0 min 0,000 mm 0,0 UV-I 0 W/m 7,8 C 9,7 C 8,0 km/h (2 Bft) 100,00 %
22.09.2017 04:28 9,7 C 13,3 C 88 % 1019,8 hPa 0,0 l/m 4,7 km/h (1 Bft) SW 236 0 min 0,000 mm 0,0 UV-I 0 W/m 7,8 C 9,7 C 6,4 km/h (2 Bft) 93,62 %
22.09.2017 04:30 9,7 C 13,3 C 88 % 1019,7 hPa 0,0 l/m 4,4 km/h (1 Bft) SW 219 0 min 0,000 mm 0,0 UV-I 0 W/m 7,8 C 9,7 C 6,4 km/h (2 Bft) 95,74 %
22.09.2017 04:32 9,6 C 13,3 C 88 % 1019,7 hPa 0,0 l/m 4,4 km/h (1 Bft) SW 227 0 min 0,000 mm 0,0 UV-I 0 W/m 7,7 C 9,6 C 6,4 km/h (2 Bft) 96,23 %
22.09.2017 04:34 9,6 C 13,3 C 88 % 1019,7 hPa 0,0 l/m 4,1 km/h (1 Bft) SW 227 0 min 0,000 mm 0,0 UV-I 0 W/m 7,7 C 9,6 C 6,4 km/h (2 Bft) 100,00 %
22.09.2017 04:36 9,6 C 13,3 C 88 % 1019,6 hPa 0,0 l/m 4,4 km/h (1 Bft) SW 215 0 min 0,000 mm 0,0 UV-I 0 W/m 7,7 C 9,6 C 6,4 km/h (2 Bft) 100,00 %
22.09.2017 04:38 9,6 C 13,3 C 88 % 1019,6 hPa 0,0 l/m 5,8 km/h (2 Bft) S-SW 213 0 min 0,000 mm 0,0 UV-I 0 W/m 7,7 C 9,6 C 8,0 km/h (2 Bft) 100,00 %
22.09.2017 04:40 9,5 C 13,3 C 88 % 1019,6 hPa 0,0 l/m 5,3 km/h (1 Bft) S-SW 195 0 min 0,000 mm 0,0 UV-I 0 W/m 7,6 C 9,5 C 8,0 km/h (2 Bft) 100,00 %
22.09.2017 04:42 9,5 C 13,3 C 88 % 1019,5 hPa 0,0 l/m 4,8 km/h (1 Bft) S 179 0 min 0,000 mm 0,0 UV-I 0 W/m 7,6 C 9,5 C 8,0 km/h (2 Bft) 100,00 %
22.09.2017 04:44 9,4 C 13,3 C 88 % 1019,5 hPa 0,0 l/m 4,1 km/h (1 Bft) S 190 0 min 0,000 mm 0,0 UV-I 0 W/m 7,5 C 9,4 C 6,4 km/h (2 Bft) 100,00 %
22.09.2017 04:46 9,3 C 13,3 C 88 % 1019,4 hPa 0,0 l/m 5,3 km/h (1 Bft) S 175 0 min 0,000 mm 0,0 UV-I 0 W/m 7,4 C 9,3 C 8,0 km/h (2 Bft) 100,00 %
22.09.2017 04:48 9,3 C 13,3 C 88 % 1019,4 hPa 0,0 l/m 4,1 km/h (1 Bft) S 190 0 min 0,000 mm 0,0 UV-I 0 W/m 7,4 C 9,3 C 9,7 km/h (2 Bft) 100,00 %
22.09.2017 04:50 9,2 C 13,3 C 88 % 1019,5 hPa 0,0 l/m 5,2 km/h (1 Bft) S-SW 205 0 min 0,000 mm 0,0 UV-I 0 W/m 7,3 C 9,2 C 8,0 km/h (2 Bft) 100,00 %
22.09.2017 04:52 9,2 C 13,3 C 88 % 1019,6 hPa 0,0 l/m 2,8 km/h (1 Bft) S-SW 200 0 min 0,000 mm 0,0 UV-I 0 W/m 7,3 C 9,2 C 6,4 km/h (2 Bft) 100,00 %
22.09.2017 04:54 9,2 C 13,3 C 89 % 1019,6 hPa 0,0 l/m 3,2 km/h (1 Bft) S-SW 200 0 min 0,000 mm 0,0 UV-I 0 W/m 7,5 C 9,2 C 4,8 km/h (1 Bft) 100,00 %
22.09.2017 04:56 9,2 C 13,3 C 89 % 1019,6 hPa 0,0 l/m 2,6 km/h (1 Bft) S-SW 200 0 min 0,000 mm 0,0 UV-I 0 W/m 7,5 C 9,2 C 4,8 km/h (1 Bft) 100,00 %
22.09.2017 04:58 9,2 C 13,3 C 89 % 1019,6 hPa 0,0 l/m 3,1 km/h (1 Bft) S-SW 200 0 min 0,000 mm 0,0 UV-I 0 W/m 7,5 C 9,2 C 4,8 km/h (1 Bft) 100,00 %
22.09.2017 05:00 9,1 C 13,3 C 89 % 1019,6 hPa 0,0 l/m 3,7 km/h (1 Bft) SW 219 0 min 0,000 mm 0,0 UV-I 0 W/m 7,4 C 9,1 C 8,0 km/h (2 Bft) 100,00 %
22.09.2017 05:02 9,1 C 13,3 C 89 % 1019,7 hPa 0,0 l/m 3,8 km/h (1 Bft) SW 219 0 min 0,000 mm 0,0 UV-I 0 W/m 7,4 C 9,1 C 4,8 km/h (1 Bft) 100,00 %
22.09.2017 05:04 9,1 C 13,3 C 89 % 1019,7 hPa 0,0 l/m 3,6 km/h (1 Bft) SW 219 0 min 0,000 mm 0,0 UV-I 0 W/m 7,4 C 9,1 C 4,8 km/h (1 Bft) 96,00 %
22.09.2017 05:06 9,1 C 12,8 C 89 % 1019,7 hPa 0,0 l/m 2,2 km/h (1 Bft) SW 219 0 min 0,000 mm 0,0 UV-I 0 W/m 7,4 C 9,1 C 3,2 km/h (1 Bft) 100,00 %
22.09.2017 05:08 9,1 C 12,8 C 89 % 1019,7 hPa 0,0 l/m 1,4 km/h (1 Bft) SW 219 0 min 0,000 mm 0,0 UV-I 0 W/m 7,4 C 9,1 C 3,2 km/h (1 Bft) 100,00 %
22.09.2017 05:10 9,1 C 12,8 C 89 % 1019,8 hPa 0,0 l/m 1,6 km/h (1 Bft) SW 219 0 min 0,000 mm 0,0 UV-I 0 W/m 7,4 C 9,1 C 3,2 km/h (1 Bft) 96,00 %
22.09.2017 05:12 9,0 C 12,8 C 89 % 1019,8 hPa 0,0 l/m 0,2 km/h (0 Bft) SW 219 0 min 0,000 mm 0,0 UV-I 0 W/m 7,3 C 9,0 C 1,6 km/h (1 Bft) 100,00 %
22.09.2017 05:14 8,9 C 12,8 C 89 % 1019,8 hPa 0,0 l/m 0,2 km/h (0 Bft) SW 219 0 min 0,000 mm 0,0 UV-I 0 W/m 7,2 C 8,9 C 1,6 km/h (1 Bft) 100,00 %
22.09.2017 05:16 8,9 C 12,8 C 89 % 1019,8 hPa 0,0 l/m 0,0 km/h (0 Bft) SW 219 0 min 0,000 mm 0,0 UV-I 0 W/m 7,2 C 8,9 C 0,0 km/h (0 Bft) 100,00 %
22.09.2017 05:18 8,9 C 12,8 C 89 % 1019,8 hPa 0,0 l/m 0,0 km/h (0 Bft) SW 219 0 min 0,000 mm 0,0 UV-I 0 W/m 7,2 C 8,9 C 0,0 km/h (0 Bft) 97,92 %
22.09.2017 05:20 8,8 C 12,8 C 89 % 1019,8 hPa 0,0 l/m 0,0 km/h (0 Bft) SW 219 0 min 0,000 mm 0,0 UV-I 0 W/m 7,1 C 8,8 C 0,0 km/h (0 Bft) 100,00 %
22.09.2017 05:22 8,8 C 12,8 C 89 % 1019,8 hPa 0,0 l/m 0,4 km/h (0 Bft) SW 219 0 min 0,000 mm 0,0 UV-I 0 W/m 7,1 C 8,8 C 1,6 km/h (1 Bft) 100,00 %
22.09.2017 05:24 8,8 C 12,8 C 89 % 1019,9 hPa 0,0 l/m 0,1 km/h (0 Bft) SW 219 0 min 0,000 mm 0,0 UV-I 0 W/m 7,1 C 8,8 C 1,6 km/h (1 Bft) 100,00 %
22.09.2017 05:26 8,7 C 12,8 C 89 % 1019,9 hPa 0,0 l/m 0,4 km/h (0 Bft) SW 219 0 min 0,000 mm 0,0 UV-I 0 W/m 7,0 C 8,7 C 3,2 km/h (1 Bft) 100,00 %
22.09.2017 05:28 8,7 C 12,8 C 89 % 1019,8 hPa 0,0 l/m 1,1 km/h (1 Bft) SW 219 0 min 0,000 mm 0,0 UV-I 0 W/m 7,0 C 8,7 C 4,8 km/h (1 Bft) 97,87 %
22.09.2017 05:30 8,7 C 12,8 C 89 % 1019,8 hPa 0,0 l/m 1,5 km/h (1 Bft) SW 219 0 min 0,000 mm 0,0 UV-I 0 W/m 7,0 C 8,7 C 3,2 km/h (1 Bft) 100,00 %
22.09.2017 05:32 8,6 C 12,8 C 89 % 1019,8 hPa 0,0 l/m 1,9 km/h (1 Bft) SW 219 0 min 0,000 mm 0,0 UV-I 0 W/m 6,9 C 8,6 C 3,2 km/h (1 Bft) 100,00 %
22.09.2017 05:34 8,6 C 12,8 C 89 % 1019,9 hPa 0,0 l/m 0,9 km/h (0 Bft) SW 219 0 min 0,000 mm 0,0 UV-I 0 W/m 6,9 C 8,6 C 3,2 km/h (1 Bft) 100,00 %
22.09.2017 05:36 8,5 C 12,8 C 89 % 1019,9 hPa 0,0 l/m 0,0 km/h (0 Bft) SW 219 0 min 0,000 mm 0,0 UV-I 0 W/m 6,8 C 8,5 C 1,6 km/h (1 Bft) 100,00 %
22.09.2017 05:38 8,4 C 12,8 C 89 % 1019,9 hPa 0,0 l/m 0,4 km/h (0 Bft) SW 219 0 min 0,000 mm 0,0 UV-I 0 W/m 6,7 C 8,4 C 1,6 km/h (1 Bft) 100,00 %
22.09.2017 05:40 8,4 C 12,8 C 89 % 1019,9 hPa 0,0 l/m 0,5 km/h (0 Bft) SW 219 0 min 0,000 mm 0,0 UV-I 0 W/m 6,7 C 8,4 C 3,2 km/h (1 Bft) 100,00 %
22.09.2017 05:42 8,3 C 12,8 C 89 % 1019,8 hPa 0,0 l/m 0,5 km/h (0 Bft) SW 219 0 min 0,000 mm 0,0 UV-I 0 W/m 6,6 C 8,3 C 1,6 km/h (1 Bft) 97,87 %
22.09.2017 05:44 8,3 C 12,8 C 89 % 1019,8 hPa 0,0 l/m 1,8 km/h (1 Bft) SW 218 0 min 0,000 mm 0,0 UV-I 0 W/m 6,6 C 8,3 C 3,2 km/h (1 Bft) 100,00 %
22.09.2017 05:46 8,3 C 12,8 C 90 % 1019,8 hPa 0,0 l/m 2,7 km/h (1 Bft) S-SW 192 0 min 0,000 mm 0,0 UV-I 0 W/m 6,8 C 8,3 C 4,8 km/h (1 Bft) 100,00 %
22.09.2017 05:48 8,2 C 12,8 C 90 % 1019,8 hPa 0,0 l/m 3,6 km/h (1 Bft) S 191 0 min 0,000 mm 0,0 UV-I 0 W/m 6,7 C 8,2 C 6,4 km/h (2 Bft) 100,00 %
22.09.2017 05:50 8,2 C 12,8 C 90 % 1019,7 hPa 0,0 l/m 4,3 km/h (1 Bft) S 191 0 min 0,000 mm 0,0 UV-I 0 W/m 6,7 C 8,2 C 6,4 km/h (2 Bft) 100,00 %
22.09.2017 05:52 8,1 C 12,8 C 90 % 1019,7 hPa 0,0 l/m 3,8 km/h (1 Bft) S 169 0 min 0,000 mm 0,0 UV-I 0 W/m 6,6 C 8,1 C 6,4 km/h (2 Bft) 98,00 %
22.09.2017 05:54 8,1 C 12,8 C 90 % 1019,7 hPa 0,0 l/m 3,1 km/h (1 Bft) S 172 0 min 0,000 mm 0,0 UV-I 0 W/m 6,6 C 8,1 C 4,8 km/h (1 Bft) 100,00 %
22.09.2017 05:56 8,1 C 12,8 C 90 % 1019,7 hPa 0,0 l/m 3,6 km/h (1 Bft) S 184 0 min 0,000 mm 0,0 UV-I 0 W/m 6,6 C 8,1 C 6,4 km/h (2 Bft) 97,87 %
22.09.2017 05:58 8,0 C 12,8 C 90 % 1019,7 hPa 0,0 l/m 2,6 km/h (1 Bft) S 184 0 min 0,000 mm 0,0 UV-I 0 W/m 6,5 C 8,0 C 6,4 km/h (2 Bft) 100,00 %
22.09.2017 06:00 8,0 C 12,8 C 90 % 1019,7 hPa 0,0 l/m 3,1 km/h (1 Bft) S 184 0 min 0,000 mm 0,0 UV-I 0 W/m 6,5 C 8,0 C 4,8 km/h (1 Bft) 100,00 %
22.09.2017 06:02 7,9 C 12,8 C 90 % 1019,7 hPa 0,0 l/m 1,7 km/h (1 Bft) S 184 0 min 0,000 mm 0,0 UV-I 0 W/m 6,4 C 7,9 C 3,2 km/h (1 Bft) 97,87 %
22.09.2017 06:04 7,9 C 12,8 C 90 % 1019,7 hPa 0,0 l/m 2,5 km/h (1 Bft) S 184 0 min 0,000 mm 0,0 UV-I 0 W/m 6,4 C 7,9 C 4,8 km/h (1 Bft) 98,00 %
22.09.2017 06:06 7,9 C 12,8 C 91 % 1019,7 hPa 0,0 l/m 1,6 km/h (1 Bft) S 184 0 min 0,000 mm 0,0 UV-I 0 W/m 6,5 C 7,9 C 4,8 km/h (1 Bft) 95,74 %
22.09.2017 06:08 7,8 C 12,8 C 91 % 1019,6 hPa 0,0 l/m 2,2 km/h (1 Bft) S 181 0 min 0,000 mm 0,0 UV-I 0 W/m 6,4 C 7,8 C 4,8 km/h (1 Bft) 95,74 %
22.09.2017 06:10 7,8 C 12,8 C 91 % 1019,6 hPa 0,0 l/m 3,4 km/h (1 Bft) S 181 0 min 0,000 mm 0,0 UV-I 0 W/m 6,4 C 7,8 C 4,8 km/h (1 Bft) 97,87 %
22.09.2017 06:12 7,8 C 12,8 C 91 % 1019,6 hPa 0,0 l/m 2,8 km/h (1 Bft) S 181 0 min 0,000 mm 0,0 UV-I 0 W/m 6,4 C 7,8 C 4,8 km/h (1 Bft) 97,87 %
22.09.2017 06:14 7,8 C 12,8 C 91 % 1019,6 hPa 0,0 l/m 2,5 km/h (1 Bft) S 181 0 min 0,000 mm 0,0 UV-I 0 W/m 6,4 C 7,8 C 4,8 km/h (1 Bft) 97,56 %
22.09.2017 06:16 7,8 C 12,8 C 91 % 1019,6 hPa 0,0 l/m 2,6 km/h (1 Bft) S 182 0 min 0,000 mm 0,0 UV-I 0 W/m 6,4 C 7,8 C 4,8 km/h (1 Bft) 97,56 %
22.09.2017 06:18 7,8 C 12,8 C 91 % 1019,6 hPa 0,0 l/m 4,3 km/h (1 Bft) S-SW 192 0 min 0,000 mm 0,0 UV-I 0 W/m 6,4 C 7,8 C 6,4 km/h (2 Bft) 98,11 %
22.09.2017 06:20 7,8 C 12,8 C 91 % 1019,6 hPa 0,0 l/m 4,8 km/h (1 Bft) S-SW 192 0 min 0,000 mm 0,0 UV-I 0 W/m 6,4 C 7,8 C 6,4 km/h (2 Bft) 95,12 %
22.09.2017 06:22 7,8 C 12,8 C 92 % 1019,6 hPa 0,0 l/m 5,0 km/h (1 Bft) S-SW 192 0 min 0,000 mm 0,0 UV-I 0 W/m 6,6 C 7,8 C 6,4 km/h (2 Bft) 98,21 %
22.09.2017 06:24 7,8 C 12,8 C 92 % 1019,7 hPa 0,0 l/m 4,5 km/h (1 Bft) S-SW 192 0 min 0,000 mm 0,0 UV-I 0 W/m 6,6 C 7,8 C 6,4 km/h (2 Bft) 96,00 %
22.09.2017 06:26 7,8 C 12,8 C 92 % 1019,8 hPa 0,0 l/m 3,7 km/h (1 Bft) S-SW 192 0 min 0,000 mm 0,0 UV-I 0 W/m 6,6 C 7,8 C 6,4 km/h (2 Bft) 97,56 %
22.09.2017 06:28 7,8 C 12,8 C 92 % 1019,8 hPa 0,0 l/m 3,4 km/h (1 Bft) S-SW 192 0 min 0,000 mm 0,0 UV-I 0 W/m 6,6 C 7,8 C 4,8 km/h (1 Bft) 94,00 %
22.09.2017 06:30 7,8 C 12,8 C 92 % 1019,9 hPa 0,0 l/m 4,2 km/h (1 Bft) S-SW 211 0 min 0,000 mm 0,0 UV-I 0 W/m 6,6 C 7,8 C 6,4 km/h (2 Bft) 97,56 %
22.09.2017 06:32 7,8 C 12,8 C 92 % 1019,9 hPa 0,0 l/m 4,0 km/h (1 Bft) S-SW 211 0 min 0,000 mm 0,0 UV-I 0 W/m 6,6 C 7,8 C 4,8 km/h (1 Bft) 97,44 %
22.09.2017 06:34 7,8 C 12,8 C 92 % 1019,9 hPa 0,0 l/m 4,1 km/h (1 Bft) S-SW 211 0 min 0,000 mm 0,0 UV-I 0 W/m 6,6 C 7,8 C 6,4 km/h (2 Bft) 98,21 %
22.09.2017 06:36 7,8 C 12,8 C 92 % 1019,9 hPa 0,0 l/m 2,8 km/h (1 Bft) S-SW 211 0 min 0,000 mm 0,0 UV-I 0 W/m 6,6 C 7,8 C 3,2 km/h (1 Bft) 95,74 %
22.09.2017 06:38 7,8 C 12,8 C 92 % 1019,9 hPa 0,0 l/m 2,7 km/h (1 Bft) S-SW 211 0 min 0,000 mm 0,0 UV-I 0 W/m 6,6 C 7,8 C 4,8 km/h (1 Bft) 100,00 %
22.09.2017 06:40 7,8 C 12,8 C 92 % 1019,9 hPa 0,0 l/m 1,5 km/h (1 Bft) S-SW 211 0 min 0,000 mm 0,0 UV-I 4 W/m 6,6 C 7,8 C 3,2 km/h (1 Bft) 98,00 %
22.09.2017 06:42 7,8 C 12,8 C 92 % 1019,9 hPa 0,0 l/m 2,6 km/h (1 Bft) S-SW 211 0 min 0,000 mm 0,0 UV-I 5 W/m 6,6 C 7,8 C 3,2 km/h (1 Bft) 97,50 %
22.09.2017 06:44 7,8 C 12,8 C 92 % 1019,9 hPa 0,0 l/m 2,6 km/h (1 Bft) S-SW 211 0 min 0,000 mm 0,0 UV-I 5 W/m 6,6 C 7,8 C 3,2 km/h (1 Bft) 97,87 %
22.09.2017 06:46 7,8 C 12,8 C 92 % 1020,0 hPa 0,0 l/m 2,6 km/h (1 Bft) S-SW 211 0 min 0,000 mm 0,0 UV-I 5 W/m 6,6 C 7,8 C 4,8 km/h (1 Bft) 98,00 %
22.09.2017 06:48 7,8 C 12,8 C 92 % 1020,0 hPa 0,0 l/m 1,5 km/h (1 Bft) S-SW 211 0 min 0,000 mm 0,0 UV-I 6 W/m 6,6 C 7,8 C 3,2 km/h (1 Bft) 98,00 %
22.09.2017 06:50 7,8 C 12,8 C 92 % 1020,0 hPa 0,0 l/m 3,5 km/h (1 Bft) S-SW 211 0 min 0,000 mm 0,0 UV-I 7 W/m 6,6 C 7,8 C 4,8 km/h (1 Bft) 97,87 %
22.09.2017 06:52 7,8 C 12,8 C 92 % 1019,9 hPa 0,0 l/m 3,2 km/h (1 Bft) SW 225 0 min 0,000 mm 0,0 UV-I 7 W/m 6,6 C 7,8 C 6,4 km/h (2 Bft) 97,37 %
22.09.2017 06:54 7,7 C 12,8 C 92 % 1019,9 hPa 0,0 l/m 4,2 km/h (1 Bft) SW 219 0 min 0,000 mm 0,0 UV-I 7 W/m 6,5 C 7,7 C 6,4 km/h (2 Bft) 97,87 %
22.09.2017 06:56 7,8 C 12,8 C 92 % 1020,0 hPa 0,0 l/m 3,8 km/h (1 Bft) S-SW 202 0 min 0,000 mm 0,0 UV-I 8 W/m 6,6 C 7,8 C 6,4 km/h (2 Bft) 100,00 %
22.09.2017 06:58 7,7 C 12,8 C 92 % 1020,0 hPa 0,0 l/m 2,9 km/h (1 Bft) S-SW 202 0 min 0,000 mm 0,0 UV-I 9 W/m 6,5 C 7,7 C 4,8 km/h (1 Bft) 94,00 %
22.09.2017 07:00 7,7 C 12,8 C 92 % 1020,0 hPa 0,0 l/m 2,9 km/h (1 Bft) S-SW 201 0 min 0,000 mm 0,0 UV-I 9 W/m 6,5 C 7,7 C 6,4 km/h (2 Bft) 96,30 %
22.09.2017 07:02 7,7 C 12,8 C 92 % 1020,0 hPa 0,0 l/m 2,2 km/h (1 Bft) S-SW 198 2 min 0,000 mm 0,0 UV-I 11 W/m 6,5 C 7,7 C 4,8 km/h (1 Bft) 95,71 %
22.09.2017 07:04 7,7 C 12,8 C 92 % 1020,0 hPa 0,0 l/m 2,4 km/h (1 Bft) S-SW 198 0 min 0,000 mm 0,0 UV-I 11 W/m 6,5 C 7,7 C 4,8 km/h (1 Bft) 97,56 %
22.09.2017 07:06 7,7 C 12,8 C 92 % 1020,0 hPa 0,0 l/m 2,6 km/h (1 Bft) S-SW 198 0 min 0,000 mm 0,0 UV-I 11 W/m 6,5 C 7,7 C 4,8 km/h (1 Bft) 98,00 %
22.09.2017 07:08 7,7 C 12,8 C 92 % 1020,0 hPa 0,0 l/m 2,5 km/h (1 Bft) S-SW 198 0 min 0,000 mm 0,0 UV-I 12 W/m 6,5 C 7,7 C 4,8 km/h (1 Bft) 98,00 %
22.09.2017 07:10 7,7 C 12,8 C 92 % 1020,0 hPa 0,0 l/m 3,8 km/h (1 Bft) S-SW 198 0 min 0,000 mm 0,0 UV-I 12 W/m 6,5 C 7,7 C 4,8 km/h (1 Bft) 97,44 %
22.09.2017 07:12 7,6 C 12,8 C 92 % 1020,0 hPa 0,0 l/m 3,7 km/h (1 Bft) S-SW 198 0 min 0,000 mm 0,0 UV-I 14 W/m 6,4 C 7,6 C 4,8 km/h (1 Bft) 98,08 %
22.09.2017 07:14 7,6 C 12,8 C 92 % 1020,0 hPa 0,0 l/m 2,2 km/h (1 Bft) S-SW 198 0 min 0,000 mm 0,0 UV-I 17 W/m 6,4 C 7,6 C 4,8 km/h (1 Bft) 98,00 %
22.09.2017 07:16 7,6 C 12,8 C 92 % 1020,0 hPa 0,0 l/m 2,2 km/h (1 Bft) S-SW 198 0 min 0,000 mm 0,0 UV-I 21 W/m 6,4 C 7,6 C 4,8 km/h (1 Bft) 94,87 %
22.09.2017 07:18 7,6 C 12,8 C 92 % 1020,0 hPa 0,0 l/m 0,8 km/h (0 Bft) S-SW 198 0 min 0,000 mm 0,0 UV-I 26 W/m 6,4 C 7,6 C 3,2 km/h (1 Bft) 97,87 %
22.09.2017 07:20 7,6 C 12,8 C 92 % 1020,0 hPa 0,0 l/m 0,1 km/h (0 Bft) S-SW 198 0 min 0,000 mm 0,0 UV-I 32 W/m 6,4 C 7,6 C 1,6 km/h (1 Bft) 97,14 %
22.09.2017 07:22 7,6 C 12,8 C 92 % 1020,1 hPa 0,0 l/m 2,6 km/h (1 Bft) S-SW 198 2 min 0,000 mm 0,0 UV-I 45 W/m 6,4 C 7,6 C 3,2 km/h (1 Bft) 97,06 %
22.09.2017 07:24 7,6 C 12,8 C 92 % 1020,0 hPa 0,0 l/m 2,0 km/h (1 Bft) S-SW 198 2 min 0,000 mm 0,0 UV-I 63 W/m 6,4 C 7,6 C 3,2 km/h (1 Bft) 95,74 %
22.09.2017 07:26 7,7 C 12,8 C 93 % 1020,1 hPa 0,0 l/m 1,0 km/h (0 Bft) S-SW 198 2 min 0,000 mm 0,0 UV-I 85 W/m 6,6 C 7,7 C 3,2 km/h (1 Bft) 97,37 %
22.09.2017 07:28 7,7 C 12,8 C 93 % 1020,1 hPa 0,0 l/m 1,7 km/h (1 Bft) S-SW 198 2 min 0,000 mm 0,0 UV-I 92 W/m 6,6 C 7,7 C 3,2 km/h (1 Bft) 97,87 %
22.09.2017 07:30 7,7 C 12,8 C 93 % 1020,0 hPa 0,0 l/m 1,8 km/h (1 Bft) S-SW 198 2 min 0,000 mm 0,0 UV-I 100 W/m 6,6 C 7,7 C 3,2 km/h (1 Bft) 96,00 %
22.09.2017 07:32 7,7 C 12,8 C 93 % 1020,1 hPa 0,0 l/m 2,0 km/h (1 Bft) S-SW 198 2 min 0,000 mm 0,0 UV-I 108 W/m 6,6 C 7,7 C 3,2 km/h (1 Bft) 100,00 %
22.09.2017 07:34 7,7 C 12,8 C 93 % 1020,1 hPa 0,0 l/m 3,2 km/h (1 Bft) S-SW 198 2 min 0,000 mm 0,0 UV-I 118 W/m 6,6 C 7,7 C 4,8 km/h (1 Bft) 98,11 %
22.09.2017 07:36 7,8 C 12,8 C 93 % 1020,1 hPa 0,0 l/m 3,5 km/h (1 Bft) S-SW 198 2 min 0,000 mm 0,0 UV-I 127 W/m 6,7 C 7,8 C 4,8 km/h (1 Bft) 97,56 %
22.09.2017 07:38 7,8 C 12,8 C 93 % 1020,1 hPa 0,0 l/m 3,0 km/h (1 Bft) S-SW 198 2 min 0,000 mm 0,0 UV-I 135 W/m 6,7 C 7,8 C 6,4 km/h (2 Bft) 100,00 %
22.09.2017 07:40 7,8 C 12,8 C 93 % 1020,1 hPa 0,0 l/m 3,7 km/h (1 Bft) S-SW 198 2 min 0,000 mm 0,0 UV-I 142 W/m 6,7 C 7,8 C 4,8 km/h (1 Bft) 100,00 %
22.09.2017 07:42 7,9 C 12,8 C 93 % 1020,2 hPa 0,0 l/m 2,9 km/h (1 Bft) S-SW 198 2 min 0,000 mm 0,0 UV-I 148 W/m 6,8 C 7,9 C 4,8 km/h (1 Bft) 97,87 %
22.09.2017 07:44 8,0 C 12,8 C 93 % 1020,1 hPa 0,0 l/m 3,2 km/h (1 Bft) S-SW 198 2 min 0,000 mm 0,0 UV-I 152 W/m 6,9 C 8,0 C 6,4 km/h (2 Bft) 100,00 %
22.09.2017 07:46 8,1 C 12,8 C 94 % 1020,1 hPa 0,0 l/m 3,8 km/h (1 Bft) S-SW 198 2 min 0,000 mm 0,0 UV-I 155 W/m 7,2 C 8,1 C 4,8 km/h (1 Bft) 100,00 %
22.09.2017 07:48 8,2 C 12,8 C 94 % 1020,1 hPa 0,0 l/m 3,8 km/h (1 Bft) S-SW 198 2 min 0,000 mm 0,0 UV-I 156 W/m 7,3 C 8,2 C 6,4 km/h (2 Bft) 97,37 %
22.09.2017 07:50 8,3 C 12,8 C 94 % 1020,2 hPa 0,0 l/m 3,6 km/h (1 Bft) S-SW 198 2 min 0,000 mm 0,0 UV-I 151 W/m 7,4 C 8,3 C 4,8 km/h (1 Bft) 100,00 %
22.09.2017 07:52 8,3 C 12,8 C 94 % 1020,1 hPa 0,0 l/m 2,7 km/h (1 Bft) S-SW 198 2 min 0,000 mm 0,0 UV-I 130 W/m 7,4 C 8,3 C 4,8 km/h (1 Bft) 100,00 %
22.09.2017 07:54 8,4 C 12,8 C 94 % 1020,2 hPa 0,0 l/m 4,1 km/h (1 Bft) S-SW 198 2 min 0,000 mm 0,0 UV-I 103 W/m 7,5 C 8,4 C 6,4 km/h (2 Bft) 100,00 %
22.09.2017 07:56 8,5 C 12,8 C 94 % 1020,1 hPa 0,0 l/m 4,6 km/h (1 Bft) S-SW 212 0 min 0,000 mm 0,0 UV-I 84 W/m 7,6 C 8,5 C 8,0 km/h (2 Bft) 100,00 %
22.09.2017 07:58 8,6 C 12,8 C 93 % 1020,2 hPa 0,0 l/m 4,4 km/h (1 Bft) S-SW 212 0 min 0,000 mm 0,0 UV-I 81 W/m 7,5 C 8,6 C 8,0 km/h (2 Bft) 100,00 %
22.09.2017 08:00 8,7 C 12,8 C 93 % 1020,3 hPa 0,0 l/m 3,7 km/h (1 Bft) W-SW 238 0 min 0,025 mm 0,0 UV-I 77 W/m 7,6 C 8,7 C 6,4 km/h (2 Bft) 100,00 %
22.09.2017 08:02 8,7 C 12,8 C 93 % 1020,3 hPa 0,0 l/m 4,3 km/h (1 Bft) SW 232 0 min 0,000 mm 0,0 UV-I 76 W/m 7,6 C 8,7 C 6,4 km/h (2 Bft) 100,00 %
22.09.2017 08:04 8,8 C 12,8 C 93 % 1020,3 hPa 0,0 l/m 5,3 km/h (1 Bft) SW 236 0 min 0,000 mm 0,0 UV-I 76 W/m 7,7 C 8,8 C 8,0 km/h (2 Bft) 100,00 %
22.09.2017 08:06 8,9 C 12,8 C 93 % 1020,3 hPa 0,0 l/m 4,3 km/h (1 Bft) SW 236 0 min 0,000 mm 0,0 UV-I 76 W/m 7,8 C 8,9 C 6,4 km/h (2 Bft) 97,87 %
22.09.2017 08:08 8,9 C 12,8 C 93 % 1020,3 hPa 0,0 l/m 2,4 km/h (1 Bft) SW 225 0 min 0,000 mm 0,0 UV-I 76 W/m 7,8 C 8,9 C 6,4 km/h (2 Bft) 100,00 %
22.09.2017 08:10 9,0 C 12,8 C 93 % 1020,3 hPa 0,0 l/m 3,9 km/h (1 Bft) SW 224 0 min 0,000 mm 0,0 UV-I 73 W/m 7,9 C 9,0 C 6,4 km/h (2 Bft) 97,37 %
22.09.2017 08:12 9,0 C 12,8 C 93 % 1020,2 hPa 0,0 l/m 5,0 km/h (1 Bft) SW 222 0 min 0,000 mm 0,0 UV-I 71 W/m 7,9 C 9,0 C 6,4 km/h (2 Bft) 97,87 %
22.09.2017 08:14 9,1 C 12,8 C 92 % 1020,2 hPa 0,0 l/m 3,0 km/h (1 Bft) SW 222 0 min 0,000 mm 0,0 UV-I 69 W/m 7,9 C 9,1 C 4,8 km/h (1 Bft) 96,00 %
22.09.2017 08:16 9,1 C 12,8 C 92 % 1020,3 hPa 0,0 l/m 2,1 km/h (1 Bft) SW 222 0 min 0,000 mm 0,0 UV-I 66 W/m 7,9 C 9,1 C 3,2 km/h (1 Bft) 98,11 %
22.09.2017 08:19 9,2 C 12,8 C 92 % 1020,3 hPa 0,0 l/m 2,1 km/h (1 Bft) SW 222 0 min 0,000 mm 0,0 UV-I 63 W/m 8,0 C 9,2 C 3,2 km/h (1 Bft) 96,61 %
22.09.2017 08:20 9,2 C 12,8 C 92 % 1020,3 hPa 0,0 l/m 2,5 km/h (1 Bft) SW 222 0 min 0,000 mm 0,0 UV-I 60 W/m 8,0 C 9,2 C 3,2 km/h (1 Bft) 96,15 %
22.09.2017 08:22 9,2 C 12,8 C 92 % 1020,3 hPa 0,0 l/m 2,2 km/h (1 Bft) SW 222 0 min 0,000 mm 0,0 UV-I 58 W/m 8,0 C 9,2 C 3,2 km/h (1 Bft) 98,00 %
22.09.2017 08:24 9,2 C 12,8 C 92 % 1020,3 hPa 0,0 l/m 2,9 km/h (1 Bft) SW 222 0 min 0,000 mm 0,0 UV-I 56 W/m 8,0 C 9,2 C 4,8 km/h (1 Bft) 96,00 %
22.09.2017 08:26 9,3 C 12,8 C 92 % 1020,3 hPa 0,0 l/m 3,0 km/h (1 Bft) SW 222 0 min 0,000 mm 0,0 UV-I 56 W/m 8,1 C 9,3 C 4,8 km/h (1 Bft) 96,00 %
22.09.2017 08:28 9,3 C 12,8 C 92 % 1020,3 hPa 0,0 l/m 2,3 km/h (1 Bft) SW 222 0 min 0,000 mm 0,0 UV-I 58 W/m 8,1 C 9,3 C 3,2 km/h (1 Bft) 95,65 %
22.09.2017 08:30 9,3 C 12,8 C 92 % 1020,4 hPa 0,0 l/m 2,5 km/h (1 Bft) SW 222 0 min 0,000 mm 0,0 UV-I 61 W/m 8,1 C 9,3 C 4,8 km/h (1 Bft) 97,37 %
22.09.2017 08:32 9,4 C 12,8 C 92 % 1020,4 hPa 0,0 l/m 3,6 km/h (1 Bft) SW 222 0 min 0,000 mm 0,0 UV-I 63 W/m 8,2 C 9,4 C 8,0 km/h (2 Bft) 96,23 %
22.09.2017 08:34 9,4 C 12,8 C 92 % 1020,4 hPa 0,0 l/m 4,1 km/h (1 Bft) W-SW 238 0 min 0,000 mm 0,0 UV-I 67 W/m 8,2 C 9,4 C 6,4 km/h (2 Bft) 97,78 %
22.09.2017 08:36 9,4 C 12,8 C 92 % 1020,4 hPa 0,0 l/m 4,4 km/h (1 Bft) SW 219 0 min 0,000 mm 0,0 UV-I 70 W/m 8,2 C 9,4 C 6,4 km/h (2 Bft) 98,00 %
22.09.2017 08:38 9,5 C 12,8 C 92 % 1020,4 hPa 0,0 l/m 4,0 km/h (1 Bft) SW 219 0 min 0,000 mm 0,0 UV-I 72 W/m 8,3 C 9,5 C 4,8 km/h (1 Bft) 95,74 %
22.09.2017 08:40 9,6 C 12,8 C 92 % 1020,5 hPa 0,0 l/m 2,5 km/h (1 Bft) SW 219 0 min 0,000 mm 0,0 UV-I 72 W/m 8,4 C 9,6 C 4,8 km/h (1 Bft) 97,37 %
22.09.2017 08:42 9,6 C 12,8 C 92 % 1020,5 hPa 0,0 l/m 1,4 km/h (1 Bft) SW 219 0 min 0,000 mm 0,0 UV-I 72 W/m 8,4 C 9,6 C 4,8 km/h (1 Bft) 98,00 %
22.09.2017 08:44 9,6 C 12,8 C 91 % 1020,4 hPa 0,0 l/m 3,5 km/h (1 Bft) SW 219 0 min 0,000 mm 0,0 UV-I 70 W/m 8,2 C 9,6 C 4,8 km/h (1 Bft) 100,00 %
22.09.2017 08:46 9,6 C 12,8 C 91 % 1020,4 hPa 0,0 l/m 2,7 km/h (1 Bft) SW 219 0 min 0,000 mm 0,0 UV-I 70 W/m 8,2 C 9,6 C 4,8 km/h (1 Bft) 100,00 %
22.09.2017 08:48 9,7 C 12,8 C 91 % 1020,5 hPa 0,0 l/m 3,5 km/h (1 Bft) SW 219 0 min 0,000 mm 0,0 UV-I 69 W/m 8,3 C 9,7 C 4,8 km/h (1 Bft) 100,00 %
22.09.2017 08:50 9,7 C 12,8 C 91 % 1020,5 hPa 0,0 l/m 3,3 km/h (1 Bft) SW 219 0 min 0,000 mm 0,0 UV-I 69 W/m 8,3 C 9,7 C 6,4 km/h (2 Bft) 100,00 %
22.09.2017 08:52 9,7 C 12,8 C 91 % 1020,5 hPa 0,0 l/m 2,6 km/h (1 Bft) SW 219 0 min 0,000 mm 0,0 UV-I 68 W/m 8,3 C 9,7 C 4,8 km/h (1 Bft) 100,00 %
22.09.2017 08:54 9,7 C 12,8 C 91 % 1020,5 hPa 0,0 l/m 2,7 km/h (1 Bft) SW 219 0 min 0,000 mm 0,0 UV-I 69 W/m 8,3 C 9,7 C 6,4 km/h (2 Bft) 100,00 %
22.09.2017 08:56 9,8 C 12,8 C 91 % 1020,5 hPa 0,0 l/m 4,3 km/h (1 Bft) SW 219 0 min 0,000 mm 0,0 UV-I 71 W/m 8,4 C 9,8 C 6,4 km/h (2 Bft) 96,43 %
22.09.2017 08:58 9,8 C 12,8 C 91 % 1020,5 hPa 0,0 l/m 4,3 km/h (1 Bft) SW 219 0 min 0,000 mm 0,0 UV-I 73 W/m 8,4 C 9,8 C 6,4 km/h (2 Bft) 100,00 %
22.09.2017 09:00 9,8 C 12,8 C 91 % 1020,5 hPa 0,0 l/m 3,5 km/h (1 Bft) SW 219 0 min 0,026 mm 0,0 UV-I 76 W/m 8,4 C 9,8 C 4,8 km/h (1 Bft) 100,00 %
22.09.2017 09:02 9,9 C 12,8 C 91 % 1020,5 hPa 0,0 l/m 2,9 km/h (1 Bft) SW 219 0 min 0,000 mm 0,0 UV-I 77 W/m 8,5 C 9,9 C 4,8 km/h (1 Bft) 95,45 %
22.09.2017 09:04 9,9 C 12,8 C 91 % 1020,6 hPa 0,0 l/m 3,1 km/h (1 Bft) SW 219 0 min 0,000 mm 0,0 UV-I 77 W/m 8,5 C 9,9 C 6,4 km/h (2 Bft) 100,00 %
22.09.2017 09:06 9,9 C 12,8 C 91 % 1020,6 hPa 0,0 l/m 3,5 km/h (1 Bft) SW 219 0 min 0,000 mm 0,0 UV-I 81 W/m 8,5 C 9,9 C 4,8 km/h (1 Bft) 100,00 %
22.09.2017 09:08 9,9 C 12,8 C 91 % 1020,6 hPa 0,0 l/m 2,3 km/h (1 Bft) S-SW 209 0 min 0,000 mm 0,0 UV-I 88 W/m 8,5 C 9,9 C 4,8 km/h (1 Bft) 100,00 %
22.09.2017 09:10 10,0 C 12,8 C 91 % 1020,6 hPa 0,0 l/m 2,3 km/h (1 Bft) S-SW 196 0 min 0,000 mm 0,0 UV-I 97 W/m 8,6 C 10,0 C 4,8 km/h (1 Bft) 100,00 %
22.09.2017 09:12 10,0 C 12,8 C 90 % 1020,6 hPa 0,0 l/m 3,4 km/h (1 Bft) S 171 0 min 0,000 mm 0,0 UV-I 104 W/m 8,4 C 10,0 C 6,4 km/h (2 Bft) 100,00 %
22.09.2017 09:14 10,1 C 12,8 C 91 % 1020,6 hPa 0,0 l/m 2,2 km/h (1 Bft) S 171 0 min 0,000 mm 0,0 UV-I 105 W/m 8,7 C 10,1 C 6,4 km/h (2 Bft) 100,00 %
22.09.2017 09:16 10,1 C 12,8 C 90 % 1020,6 hPa 0,0 l/m 2,2 km/h (1 Bft) S 169 0 min 0,000 mm 0,0 UV-I 105 W/m 8,5 C 10,1 C 6,4 km/h (2 Bft) 100,00 %
22.09.2017 09:18 10,2 C 12,8 C 90 % 1020,6 hPa 0,0 l/m 3,6 km/h (1 Bft) S 190 0 min 0,000 mm 0,0 UV-I 105 W/m 8,6 C 10,2 C 6,4 km/h (2 Bft) 100,00 %
22.09.2017 09:20 10,2 C 12,8 C 90 % 1020,7 hPa 0,0 l/m 3,3 km/h (1 Bft) S 190 0 min 0,000 mm 0,0 UV-I 108 W/m 8,6 C 10,2 C 6,4 km/h (2 Bft) 100,00 %
22.09.2017 09:22 10,2 C 12,8 C 90 % 1020,7 hPa 0,0 l/m 3,9 km/h (1 Bft) S-SW 195 0 min 0,000 mm 0,0 UV-I 112 W/m 8,6 C 10,2 C 6,4 km/h (2 Bft) 97,87 %
22.09.2017 09:24 10,2 C 12,8 C 90 % 1020,7 hPa 0,0 l/m 3,3 km/h (1 Bft) S-SW 197 0 min 0,000 mm 0,0 UV-I 114 W/m 8,6 C 10,2 C 4,8 km/h (1 Bft) 100,00 %
22.09.2017 09:26 10,3 C 12,8 C 89 % 1020,8 hPa 0,0 l/m 3,4 km/h (1 Bft) S-SW 197 0 min 0,000 mm 0,0 UV-I 117 W/m 8,6 C 10,3 C 4,8 km/h (1 Bft) 98,00 %
22.09.2017 09:28 10,3 C 12,8 C 89 % 1020,8 hPa 0,0 l/m 4,0 km/h (1 Bft) S-SW 198 0 min 0,000 mm 0,3 UV-I 121 W/m 8,6 C 10,3 C 6,4 km/h (2 Bft) 100,00 %
22.09.2017 09:30 10,3 C 12,8 C 89 % 1020,8 hPa 0,0 l/m 4,0 km/h (1 Bft) W-SW 242 0 min 0,000 mm 0,5 UV-I 128 W/m 8,6 C 10,3 C 6,4 km/h (2 Bft) 100,00 %
22.09.2017 09:32 10,3 C 12,8 C 89 % 1020,8 hPa 0,0 l/m 4,0 km/h (1 Bft) SW 229 0 min 0,000 mm 0,5 UV-I 135 W/m 8,6 C 10,3 C 6,4 km/h (2 Bft) 100,00 %
22.09.2017 09:34 10,4 C 12,8 C 89 % 1020,8 hPa 0,0 l/m 4,3 km/h (1 Bft) W-SW 238 0 min 0,000 mm 0,5 UV-I 139 W/m 8,7 C 10,4 C 6,4 km/h (2 Bft) 100,00 %
22.09.2017 09:36 10,4 C 12,8 C 89 % 1020,8 hPa 0,0 l/m 4,0 km/h (1 Bft) W-SW 238 0 min 0,000 mm 0,5 UV-I 143 W/m 8,7 C 10,4 C 6,4 km/h (2 Bft) 100,00 %
22.09.2017 09:38 10,4 C 12,8 C 89 % 1020,8 hPa 0,0 l/m 4,7 km/h (1 Bft) SW 234 0 min 0,000 mm 0,6 UV-I 147 W/m 8,7 C 10,4 C 8,0 km/h (2 Bft) 96,36 %
22.09.2017 09:40 10,5 C 12,8 C 88 % 1020,8 hPa 0,0 l/m 3,8 km/h (1 Bft) SW 233 0 min 0,000 mm 0,6 UV-I 150 W/m 8,6 C 10,5 C 6,4 km/h (2 Bft) 100,00 %
22.09.2017 09:42 10,6 C 12,8 C 88 % 1020,8 hPa 0,0 l/m 5,2 km/h (1 Bft) SW 223 0 min 0,000 mm 0,6 UV-I 153 W/m 8,7 C 10,6 C 8,0 km/h (2 Bft) 100,00 %
22.09.2017 09:44 10,6 C 12,8 C 88 % 1020,8 hPa 0,0 l/m 7,0 km/h (2 Bft) S-SW 209 0 min 0,000 mm 0,6 UV-I 155 W/m 8,7 C 10,2 C 9,7 km/h (2 Bft) 100,00 %
22.09.2017 09:46 10,7 C 12,8 C 88 % 1020,8 hPa 0,0 l/m 4,2 km/h (1 Bft) SW 232 0 min 0,000 mm 0,6 UV-I 157 W/m 8,8 C 10,7 C 8,0 km/h (2 Bft) 95,74 %
22.09.2017 09:48 10,7 C 12,8 C 88 % 1020,8 hPa 0,0 l/m 4,1 km/h (1 Bft) SW 224 0 min 0,000 mm 0,7 UV-I 160 W/m 8,8 C 10,7 C 6,4 km/h (2 Bft) 98,00 %
22.09.2017 09:50 10,7 C 12,8 C 87 % 1020,8 hPa 0,0 l/m 4,5 km/h (1 Bft) SW 225 0 min 0,000 mm 0,7 UV-I 159 W/m 8,6 C 10,7 C 6,4 km/h (2 Bft) 100,00 %
22.09.2017 09:53 10,8 C 12,8 C 87 % 1020,8 hPa 0,0 l/m 5,0 km/h (1 Bft) S-SW 204 0 min 0,000 mm 0,7 UV-I 160 W/m 8,7 C 10,8 C 8,0 km/h (2 Bft) 98,46 %
22.09.2017 09:54 10,8 C 12,8 C 88 % 1020,8 hPa 0,0 l/m 5,4 km/h (1 Bft) S-SW 208 0 min 0,000 mm 0,7 UV-I 163 W/m 8,9 C 10,8 C 8,0 km/h (2 Bft) 100,00 %
22.09.2017 09:56 10,9 C 12,8 C 88 % 1020,8 hPa 0,0 l/m 5,6 km/h (1 Bft) W-SW 241 0 min 0,000 mm 0,7 UV-I 162 W/m 9,0 C 10,9 C 9,7 km/h (2 Bft) 100,00 %
22.09.2017 09:58 10,9 C 12,8 C 87 % 1020,8 hPa 0,0 l/m 5,9 km/h (2 Bft) W-SW 242 0 min 0,000 mm 0,7 UV-I 157 W/m 8,8 C 10,9 C 8,0 km/h (2 Bft) 100,00 %
22.09.2017 10:00 10,9 C 12,8 C 87 % 1020,9 hPa 0,0 l/m 5,1 km/h (1 Bft) SW 229 0 min 0,076 mm 0,7 UV-I 155 W/m 8,8 C 10,9 C 8,0 km/h (2 Bft) 96,23 %
22.09.2017 10:02 11,0 C 12,8 C 87 % 1020,9 hPa 0,0 l/m 3,9 km/h (1 Bft) W-SW 252 0 min 0,000 mm 0,7 UV-I 159 W/m 8,9 C 11,0 C 4,8 km/h (1 Bft) 97,37 %
22.09.2017 10:04 11,0 C 12,8 C 87 % 1020,8 hPa 0,0 l/m 5,2 km/h (1 Bft) SW 236 0 min 0,000 mm 0,7 UV-I 165 W/m 8,9 C 11,0 C 6,4 km/h (2 Bft) 98,00 %
22.09.2017 10:06 11,1 C 12,8 C 87 % 1020,8 hPa 0,0 l/m 3,7 km/h (1 Bft) W-SW 250 0 min 0,000 mm 0,7 UV-I 171 W/m 9,0 C 11,1 C 6,4 km/h (2 Bft) 100,00 %
22.09.2017 10:08 11,1 C 12,8 C 87 % 1020,7 hPa 0,0 l/m 3,0 km/h (1 Bft) W-SW 250 0 min 0,000 mm 0,7 UV-I 171 W/m 9,0 C 11,1 C 4,8 km/h (1 Bft) 98,00 %
22.09.2017 10:10 11,2 C 12,8 C 86 % 1020,7 hPa 0,0 l/m 3,0 km/h (1 Bft) W-SW 250 0 min 0,000 mm 0,8 UV-I 172 W/m 8,9 C 11,2 C 4,8 km/h (1 Bft) 96,23 %
22.09.2017 10:12 11,2 C 12,8 C 86 % 1020,8 hPa 0,0 l/m 4,6 km/h (1 Bft) SW 234 0 min 0,000 mm 0,8 UV-I 169 W/m 8,9 C 11,2 C 6,4 km/h (2 Bft) 97,37 %
22.09.2017 10:14 11,3 C 12,8 C 86 % 1020,7 hPa 0,0 l/m 3,3 km/h (1 Bft) SW 234 0 min 0,000 mm 0,7 UV-I 164 W/m 9,0 C 11,3 C 4,8 km/h (1 Bft) 96,00 %
22.09.2017 10:16 11,3 C 12,8 C 86 % 1020,8 hPa 0,0 l/m 3,3 km/h (1 Bft) S-SW 205 0 min 0,000 mm 0,8 UV-I 168 W/m 9,0 C 11,3 C 6,4 km/h (2 Bft) 98,11 %
22.09.2017 10:18 11,4 C 12,8 C 86 % 1020,7 hPa 0,0 l/m 4,6 km/h (1 Bft) S-SW 200 0 min 0,000 mm 0,8 UV-I 184 W/m 9,1 C 11,4 C 9,7 km/h (2 Bft) 97,83 %
22.09.2017 10:20 11,4 C 12,8 C 86 % 1020,7 hPa 0,0 l/m 5,3 km/h (1 Bft) S-SW 203 0 min 0,000 mm 0,8 UV-I 188 W/m 9,1 C 11,4 C 8,0 km/h (2 Bft) 94,74 %
22.09.2017 10:22 11,5 C 12,8 C 86 % 1020,7 hPa 0,0 l/m 6,6 km/h (2 Bft) SW 222 0 min 0,000 mm 0,8 UV-I 181 W/m 9,2 C 11,4 C 8,0 km/h (2 Bft) 96,00 %
22.09.2017 10:24 11,6 C 12,8 C 85 % 1020,7 hPa 0,0 l/m 5,9 km/h (2 Bft) SW 215 0 min 0,000 mm 0,8 UV-I 178 W/m 9,2 C 11,6 C 8,0 km/h (2 Bft) 95,45 %
22.09.2017 10:26 11,6 C 12,8 C 85 % 1020,7 hPa 0,0 l/m 5,1 km/h (1 Bft) SW 221 0 min 0,000 mm 0,8 UV-I 174 W/m 9,2 C 11,6 C 8,0 km/h (2 Bft) 95,74 %
22.09.2017 10:28 11,6 C 12,8 C 85 % 1020,8 hPa 0,0 l/m 4,4 km/h (1 Bft) W-SW 241 0 min 0,000 mm 0,8 UV-I 175 W/m 9,2 C 11,6 C 6,4 km/h (2 Bft) 94,00 %
22.09.2017 10:30 11,7 C 12,8 C 84 % 1020,8 hPa 0,0 l/m 5,6 km/h (1 Bft) SW 223 0 min 0,000 mm 0,9 UV-I 188 W/m 9,1 C 11,7 C 9,7 km/h (2 Bft) 90,00 %
22.09.2017 10:32 11,7 C 12,8 C 84 % 1020,8 hPa 0,0 l/m 5,1 km/h (1 Bft) S-SW 208 0 min 0,000 mm 0,9 UV-I 205 W/m 9,1 C 11,7 C 8,0 km/h (2 Bft) 94,87 %
22.09.2017 10:34 11,7 C 12,8 C 84 % 1020,8 hPa 0,0 l/m 4,6 km/h (1 Bft) S-SW 208 0 min 0,000 mm 1,0 UV-I 213 W/m 9,1 C 11,7 C 6,4 km/h (2 Bft) 95,74 %
22.09.2017 10:36 11,8 C 12,8 C 84 % 1020,8 hPa 0,0 l/m 3,0 km/h (1 Bft) S-SW 208 0 min 0,000 mm 1,0 UV-I 220 W/m 9,2 C 11,8 C 4,8 km/h (1 Bft) 95,74 %
22.09.2017 10:38 11,8 C 12,8 C 84 % 1020,8 hPa 0,0 l/m 4,8 km/h (1 Bft) S-SW 211 0 min 0,000 mm 1,0 UV-I 226 W/m 9,2 C 11,8 C 8,0 km/h (2 Bft) 93,62 %
22.09.2017 10:40 11,9 C 12,8 C 83 % 1020,7 hPa 0,0 l/m 4,2 km/h (1 Bft) S-SW 211 0 min 0,000 mm 1,1 UV-I 225 W/m 9,1 C 11,9 C 6,4 km/h (2 Bft) 98,00 %
22.09.2017 10:42 12,0 C 12,8 C 83 % 1020,7 hPa 0,0 l/m 3,8 km/h (1 Bft) S-SW 209 0 min 0,000 mm 1,1 UV-I 223 W/m 9,2 C 12,0 C 8,0 km/h (2 Bft) 98,00 %
22.09.2017 10:44 12,0 C 12,8 C 82 % 1020,6 hPa 0,0 l/m 2,3 km/h (1 Bft) S-SW 209 0 min 0,000 mm 1,1 UV-I 224 W/m 9,0 C 12,0 C 4,8 km/h (1 Bft) 97,56 %
22.09.2017 10:46 12,1 C 12,8 C 82 % 1020,6 hPa 0,0 l/m 1,9 km/h (1 Bft) S-SW 209 0 min 0,000 mm 1,1 UV-I 223 W/m 9,1 C 12,1 C 4,8 km/h (1 Bft) 98,00 %
22.09.2017 10:48 12,1 C 12,8 C 81 % 1020,6 hPa 0,0 l/m 1,6 km/h (1 Bft) S-SW 210 0 min 0,000 mm 1,1 UV-I 221 W/m 8,9 C 12,1 C 4,8 km/h (1 Bft) 97,87 %
22.09.2017 10:50 12,2 C 12,8 C 81 % 1020,7 hPa 0,0 l/m 3,6 km/h (1 Bft) W-SW 258 0 min 0,000 mm 1,1 UV-I 217 W/m 9,0 C 12,2 C 4,8 km/h (1 Bft) 94,00 %
22.09.2017 10:52 12,2 C 12,8 C 80 % 1020,6 hPa 0,0 l/m 2,6 km/h (1 Bft) W-SW 258 0 min 0,000 mm 1,1 UV-I 214 W/m 8,9 C 12,2 C 4,8 km/h (1 Bft) 100,00 %
22.09.2017 10:54 12,2 C 12,8 C 80 % 1020,6 hPa 0,0 l/m 2,8 km/h (1 Bft) W-SW 258 0 min 0,000 mm 1,1 UV-I 210 W/m 8,9 C 12,2 C 4,8 km/h (1 Bft) 92,00 %
22.09.2017 10:56 12,3 C 12,8 C 80 % 1020,7 hPa 0,0 l/m 2,8 km/h (1 Bft) W-SW 258 0 min 0,000 mm 1,0 UV-I 204 W/m 8,9 C 12,3 C 4,8 km/h (1 Bft) 98,04 %
22.09.2017 10:58 12,3 C 12,8 C 80 % 1020,7 hPa 0,0 l/m 0,4 km/h (0 Bft) W-SW 258 0 min 0,000 mm 1,0 UV-I 200 W/m 8,9 C 12,3 C 1,6 km/h (1 Bft) 92,11 %
22.09.2017 11:00 12,3 C 12,8 C 80 % 1020,7 hPa 0,0 l/m 1,1 km/h (1 Bft) W-SW 258 0 min 0,102 mm 1,1 UV-I 204 W/m 8,9 C 12,3 C 3,2 km/h (1 Bft) 88,00 %
22.09.2017 11:02 12,4 C 12,8 C 80 % 1020,7 hPa 0,0 l/m 2,1 km/h (1 Bft) W-SW 258 0 min 0,000 mm 1,2 UV-I 214 W/m 9,0 C 12,4 C 3,2 km/h (1 Bft) 98,00 %
22.09.2017 11:04 12,4 C 12,8 C 80 % 1020,7 hPa 0,0 l/m 1,7 km/h (1 Bft) W-SW 258 0 min 0,000 mm 1,2 UV-I 231 W/m 9,0 C 12,4 C 4,8 km/h (1 Bft) 95,83 %
22.09.2017 11:06 12,5 C 12,8 C 80 % 1020,6 hPa 0,0 l/m 0,1 km/h (0 Bft) W-SW 258 0 min 0,000 mm 1,3 UV-I 248 W/m 9,1 C 12,5 C 1,6 km/h (1 Bft) 96,88 %
22.09.2017 11:08 12,6 C 12,8 C 80 % 1020,6 hPa 0,0 l/m 0,0 km/h (0 Bft) W-SW 258 0 min 0,000 mm 1,3 UV-I 259 W/m 9,2 C 12,6 C 0,0 km/h (0 Bft) 98,11 %
22.09.2017 11:10 12,6 C 12,8 C 80 % 1020,6 hPa 0,0 l/m 0,8 km/h (0 Bft) W-SW 258 0 min 0,000 mm 1,4 UV-I 264 W/m 9,2 C 12,6 C 1,6 km/h (1 Bft) 97,62 %
22.09.2017 11:12 12,7 C 12,8 C 79 % 1020,6 hPa 0,0 l/m 1,2 km/h (1 Bft) W-SW 258 0 min 0,000 mm 1,4 UV-I 268 W/m 9,2 C 12,7 C 3,2 km/h (1 Bft) 97,73 %
22.09.2017 11:14 12,7 C 12,8 C 79 % 1020,6 hPa 0,0 l/m 0,3 km/h (0 Bft) W-SW 258 0 min 0,000 mm 1,5 UV-I 279 W/m 9,2 C 12,7 C 1,6 km/h (1 Bft) 98,00 %
22.09.2017 11:16 12,8 C 12,8 C 78 % 1020,5 hPa 0,0 l/m 0,1 km/h (0 Bft) W-SW 258 0 min 0,000 mm 1,5 UV-I 296 W/m 9,1 C 12,8 C 1,6 km/h (1 Bft) 95,74 %
22.09.2017 11:18 12,8 C 12,8 C 79 % 1020,6 hPa 0,0 l/m 1,7 km/h (1 Bft) W-SW 258 0 min 0,000 mm 1,6 UV-I 307 W/m 9,2 C 12,8 C 4,8 km/h (1 Bft) 98,00 %
22.09.2017 11:20 12,9 C 12,8 C 79 % 1020,6 hPa 0,0 l/m 4,9 km/h (1 Bft) SW 217 0 min 0,000 mm 1,7 UV-I 313 W/m 9,3 C 12,9 C 6,4 km/h (2 Bft) 97,87 %
22.09.2017 11:22 13,1 C 12,8 C 78 % 1020,6 hPa 0,0 l/m 3,3 km/h (1 Bft) W-SW 251 0 min 0,000 mm 1,7 UV-I 312 W/m 9,4 C 13,1 C 4,8 km/h (1 Bft) 96,00 %
22.09.2017 11:24 13,1 C 12,8 C 78 % 1020,5 hPa 0,0 l/m 0,4 km/h (0 Bft) W-SW 251 0 min 0,000 mm 1,7 UV-I 303 W/m 9,4 C 13,1 C 3,2 km/h (1 Bft) 97,73 %
22.09.2017 11:26 13,2 C 12,8 C 77 % 1020,5 hPa 0,0 l/m 1,1 km/h (1 Bft) W-SW 251 0 min 0,000 mm 1,8 UV-I 307 W/m 9,3 C 13,2 C 3,2 km/h (1 Bft) 97,37 %
22.09.2017 11:28 13,3 C 12,8 C 77 % 1020,5 hPa 0,0 l/m 0,8 km/h (0 Bft) W-SW 249 2 min 0,000 mm 1,9 UV-I 342 W/m 9,4 C 13,3 C 1,6 km/h (1 Bft) 98,21 %
22.09.2017 11:30 13,3 C 12,8 C 76 % 1020,5 hPa 0,0 l/m 1,1 km/h (1 Bft) W-SW 249 2 min 0,000 mm 2,1 UV-I 402 W/m 9,2 C 13,3 C 3,2 km/h (1 Bft) 98,00 %
22.09.2017 11:32 13,4 C 12,8 C 76 % 1020,5 hPa 0,0 l/m 1,0 km/h (0 Bft) W-SW 248 2 min 0,000 mm 2,3 UV-I 472 W/m 9,3 C 13,4 C 3,2 km/h (1 Bft) 97,37 %
22.09.2017 11:34 13,5 C 12,8 C 77 % 1020,5 hPa 0,0 l/m 1,0 km/h (0 Bft) W-SW 241 2 min 0,000 mm 2,1 UV-I 396 W/m 9,5 C 13,5 C 3,2 km/h (1 Bft) 96,00 %
22.09.2017 11:36 13,6 C 12,8 C 77 % 1020,6 hPa 0,0 l/m 2,2 km/h (1 Bft) S-SO 155 2 min 0,000 mm 2,0 UV-I 350 W/m 9,6 C 13,6 C 4,8 km/h (1 Bft) 95,45 %
22.09.2017 11:38 13,7 C 12,8 C 76 % 1020,5 hPa 0,0 l/m 2,0 km/h (1 Bft) S-SO 155 0 min 0,000 mm 1,9 UV-I 334 W/m 9,5 C 13,7 C 4,8 km/h (1 Bft) 94,00 %
22.09.2017 11:40 13,8 C 12,8 C 76 % 1020,5 hPa 0,0 l/m 3,3 km/h (1 Bft) S-SO 155 0 min 0,000 mm 2,0 UV-I 337 W/m 9,6 C 13,8 C 4,8 km/h (1 Bft) 95,74 %
22.09.2017 11:42 13,8 C 12,8 C 75 % 1020,4 hPa 0,0 l/m 2,8 km/h (1 Bft) S-SO 155 2 min 0,000 mm 2,2 UV-I 388 W/m 9,4 C 13,8 C 4,8 km/h (1 Bft) 98,00 %
22.09.2017 11:44 13,9 C 12,8 C 74 % 1020,4 hPa 0,0 l/m 2,4 km/h (1 Bft) S-SO 155 2 min 0,000 mm 2,4 UV-I 462 W/m 9,3 C 13,9 C 4,8 km/h (1 Bft) 94,74 %
22.09.2017 11:46 14,1 C 12,8 C 74 % 1020,3 hPa 0,0 l/m 2,5 km/h (1 Bft) S-SO 155 2 min 0,000 mm 2,4 UV-I 466 W/m 9,5 C 14,1 C 4,8 km/h (1 Bft) 97,92 %
22.09.2017 11:48 14,2 C 12,8 C 75 % 1020,3 hPa 0,0 l/m 2,4 km/h (1 Bft) S-SO 155 2 min 0,000 mm 2,6 UV-I 497 W/m 9,8 C 14,2 C 3,2 km/h (1 Bft) 98,18 %
22.09.2017 11:50 14,3 C 12,8 C 74 % 1020,2 hPa 0,0 l/m 0,8 km/h (0 Bft) S-SO 155 2 min 0,000 mm 2,5 UV-I 663 W/m 9,7 C 14,3 C 3,2 km/h (1 Bft) 100,00 %
22.09.2017 11:52 14,3 C 12,8 C 73 % 1020,2 hPa 0,0 l/m 1,0 km/h (0 Bft) S-SO 155 2 min 0,000 mm 2,1 UV-I 378 W/m 9,5 C 14,3 C 3,2 km/h (1 Bft) 97,87 %
22.09.2017 11:54 14,4 C 12,8 C 74 % 1020,2 hPa 0,0 l/m 0,8 km/h (0 Bft) S-SO 155 0 min 0,000 mm 1,9 UV-I 279 W/m 9,8 C 14,4 C 3,2 km/h (1 Bft) 100,00 %
22.09.2017 11:56 14,4 C 12,8 C 73 % 1020,3 hPa 0,0 l/m 0,5 km/h (0 Bft) S-SO 155 0 min 0,000 mm 2,0 UV-I 260 W/m 9,6 C 14,4 C 3,2 km/h (1 Bft) 100,00 %
22.09.2017 11:58 14,6 C 12,8 C 74 % 1020,2 hPa 0,0 l/m 1,7 km/h (1 Bft) S-SO 155 0 min 0,000 mm 2,5 UV-I 274 W/m 10,0 C 14,6 C 4,8 km/h (1 Bft) 100,00 %
22.09.2017 12:00 14,7 C 12,8 C 74 % 1020,2 hPa 0,0 l/m 2,3 km/h (1 Bft) NO 40 2 min 0,177 mm 3,3 UV-I 599 W/m 10,1 C 14,7 C 4,8 km/h (1 Bft) 98,00 %
22.09.2017 12:02 14,8 C 12,8 C 75 % 1020,3 hPa 0,0 l/m 1,8 km/h (1 Bft) NO 40 2 min 0,000 mm 3,1 UV-I 744 W/m 10,4 C 14,8 C 3,2 km/h (1 Bft) 100,00 %
22.09.2017 12:04 14,9 C 12,8 C 73 % 1020,3 hPa 0,0 l/m 0,1 km/h (0 Bft) NO 40 2 min 0,000 mm 2,9 UV-I 740 W/m 10,1 C 14,9 C 1,6 km/h (1 Bft) 98,00 %
22.09.2017 12:06 15,1 C 12,8 C 75 % 1020,2 hPa 0,0 l/m 2,2 km/h (1 Bft) NO 40 2 min 0,000 mm 3,4 UV-I 742 W/m 10,7 C 15,1 C 4,8 km/h (1 Bft) 98,00 %
22.09.2017 12:08 15,2 C 12,8 C 74 % 1020,2 hPa 0,0 l/m 3,7 km/h (1 Bft) NO 34 2 min 0,000 mm 3,3 UV-I 759 W/m 10,6 C 15,2 C 6,4 km/h (2 Bft) 94,74 %
22.09.2017 12:10 15,3 C 12,8 C 73 % 1020,2 hPa 0,0 l/m 3,9 km/h (1 Bft) NO 51 2 min 0,000 mm 3,0 UV-I 763 W/m 10,5 C 15,3 C 6,4 km/h (2 Bft) 96,23 %
22.09.2017 12:12 15,4 C 12,8 C 73 % 1020,2 hPa 0,0 l/m 4,5 km/h (1 Bft) NO 36 2 min 0,000 mm 3,2 UV-I 786 W/m 10,6 C 15,4 C 6,4 km/h (2 Bft) 97,87 %
22.09.2017 12:14 15,6 C 12,8 C 71 % 1020,2 hPa 0,0 l/m 4,8 km/h (1 Bft) NO 42 2 min 0,000 mm 3,0 UV-I 770 W/m 10,4 C 15,6 C 6,4 km/h (2 Bft) 96,00 %
22.09.2017 12:16 15,7 C 12,8 C 71 % 1020,2 hPa 0,0 l/m 3,8 km/h (1 Bft) NO 41 2 min 0,000 mm 3,3 UV-I 762 W/m 10,5 C 15,7 C 8,0 km/h (2 Bft) 97,87 %
22.09.2017 12:18 15,8 C 12,8 C 70 % 1020,2 hPa 0,0 l/m 4,0 km/h (1 Bft) NO 40 2 min 0,000 mm 3,4 UV-I 763 W/m 10,3 C 15,8 C 6,4 km/h (2 Bft) 97,14 %
22.09.2017 12:20 15,9 C 12,8 C 71 % 1020,2 hPa 0,0 l/m 2,3 km/h (1 Bft) NO 40 2 min 0,000 mm 3,3 UV-I 660 W/m 10,6 C 15,9 C 3,2 km/h (1 Bft) 98,11 %
22.09.2017 12:22 16,0 C 12,8 C 70 % 1020,1 hPa 0,0 l/m 3,3 km/h (1 Bft) NO 40 2 min 0,000 mm 3,5 UV-I 670 W/m 10,5 C 16,0 C 6,4 km/h (2 Bft) 98,00 %
22.09.2017 12:24 16,2 C 12,8 C 68 % 1020,1 hPa 0,0 l/m 2,5 km/h (1 Bft) NO 40 2 min 0,000 mm 3,4 UV-I 651 W/m 10,3 C 16,2 C 4,8 km/h (1 Bft) 97,62 %
22.09.2017 12:26 16,3 C 12,8 C 69 % 1020,2 hPa 0,0 l/m 3,8 km/h (1 Bft) NO 45 2 min 0,000 mm 3,1 UV-I 619 W/m 10,6 C 16,3 C 4,8 km/h (1 Bft) 98,11 %
22.09.2017 12:28 16,4 C 12,8 C 67 % 1020,3 hPa 0,0 l/m 1,0 km/h (0 Bft) NO 45 2 min 0,000 mm 2,7 UV-I 502 W/m 10,3 C 16,4 C 4,8 km/h (1 Bft) 97,56 %
22.09.2017 12:30 16,5 C 12,8 C 66 % 1020,3 hPa 0,0 l/m 3,2 km/h (1 Bft) NO 44 2 min 0,000 mm 2,1 UV-I 371 W/m 10,1 C 16,5 C 4,8 km/h (1 Bft) 96,00 %
22.09.2017 12:32 16,6 C 12,8 C 67 % 1020,3 hPa 0,0 l/m 3,1 km/h (1 Bft) NO 44 0 min 0,000 mm 1,9 UV-I 322 W/m 10,4 C 16,6 C 4,8 km/h (1 Bft) 97,56 %
22.09.2017 12:34 16,6 C 12,8 C 67 % 1020,3 hPa 0,0 l/m 3,4 km/h (1 Bft) NO 43 0 min 0,000 mm 1,9 UV-I 303 W/m 10,4 C 16,6 C 6,4 km/h (2 Bft) 97,87 %
22.09.2017 12:36 16,6 C 12,8 C 67 % 1020,4 hPa 0,0 l/m 1,7 km/h (1 Bft) NO 43 0 min 0,000 mm 1,8 UV-I 292 W/m 10,4 C 16,6 C 4,8 km/h (1 Bft) 100,00 %
22.09.2017 12:38 16,6 C 12,8 C 67 % 1020,3 hPa 0,0 l/m 2,8 km/h (1 Bft) NO 43 0 min 0,000 mm 2,0 UV-I 305 W/m 10,4 C 16,6 C 4,8 km/h (1 Bft) 97,37 %
22.09.2017 12:40 16,7 C 12,8 C 67 % 1020,3 hPa 0,0 l/m 2,1 km/h (1 Bft) NO 43 0 min 0,000 mm 2,1 UV-I 341 W/m 10,5 C 16,7 C 3,2 km/h (1 Bft) 100,00 %
22.09.2017 12:42 16,6 C 12,8 C 66 % 1020,3 hPa 0,0 l/m 0,3 km/h (0 Bft) NO 43 0 min 0,000 mm 2,2 UV-I 363 W/m 10,2 C 16,6 C 1,6 km/h (1 Bft) 100,00 %
22.09.2017 12:44 16,7 C 12,8 C 67 % 1020,3 hPa 0,0 l/m 0,9 km/h (0 Bft) N-NO 12 0 min 0,000 mm 2,1 UV-I 339 W/m 10,5 C 16,7 C 3,2 km/h (1 Bft) 100,00 %
22.09.2017 12:46 16,7 C 12,8 C 67 % 1020,4 hPa 0,0 l/m 3,3 km/h (1 Bft) NW 319 0 min 0,000 mm 1,9 UV-I 290 W/m 10,5 C 16,7 C 6,4 km/h (2 Bft) 100,00 %
22.09.2017 12:48 16,6 C 12,8 C 65 % 1020,4 hPa 0,0 l/m 0,7 km/h (0 Bft) NW 319 0 min 0,000 mm 2,0 UV-I 288 W/m 10,0 C 16,6 C 3,2 km/h (1 Bft) 100,00 %
22.09.2017 12:50 16,6 C 12,8 C 66 % 1020,5 hPa 0,0 l/m 1,3 km/h (1 Bft) NW 321 0 min 0,000 mm 2,1 UV-I 312 W/m 10,2 C 16,6 C 3,2 km/h (1 Bft) 97,87 %
22.09.2017 12:52 16,6 C 12,8 C 69 % 1020,5 hPa 0,0 l/m 2,2 km/h (1 Bft) N-NO 21 2 min 0,000 mm 2,3 UV-I 369 W/m 10,9 C 16,6 C 4,8 km/h (1 Bft) 100,00 %
22.09.2017 12:54 16,5 C 12,8 C 69 % 1020,5 hPa 0,0 l/m 3,8 km/h (1 Bft) NO 35 2 min 0,000 mm 2,5 UV-I 446 W/m 10,8 C 16,5 C 4,8 km/h (1 Bft) 100,00 %
22.09.2017 12:56 16,4 C 12,8 C 67 % 1020,4 hPa 0,0 l/m 3,7 km/h (1 Bft) NO 49 2 min 0,000 mm 2,3 UV-I 392 W/m 10,3 C 16,4 C 4,8 km/h (1 Bft) 98,11 %
22.09.2017 12:58 16,4 C 12,8 C 66 % 1020,5 hPa 0,0 l/m 2,7 km/h (1 Bft) NO 49 2 min 0,000 mm 2,2 UV-I 378 W/m 10,0 C 16,4 C 4,8 km/h (1 Bft) 100,00 %
22.09.2017 13:00 16,4 C 12,8 C 68 % 1020,5 hPa 0,0 l/m 2,7 km/h (1 Bft) NO 46 0 min 0,000 mm 2,1 UV-I 351 W/m 10,5 C 16,4 C 4,8 km/h (1 Bft) 98,21 %
22.09.2017 13:02 16,4 C 12,8 C 68 % 1020,5 hPa 0,0 l/m 1,9 km/h (1 Bft) NO 46 0 min 0,280 mm 2,0 UV-I 329 W/m 10,5 C 16,4 C 3,2 km/h (1 Bft) 100,00 %
22.09.2017 13:04 16,4 C 12,8 C 68 % 1020,5 hPa 0,0 l/m 2,0 km/h (1 Bft) NO 46 0 min 0,000 mm 1,9 UV-I 307 W/m 10,5 C 16,4 C 3,2 km/h (1 Bft) 100,00 %
22.09.2017 13:06 16,4 C 12,8 C 66 % 1020,5 hPa 0,0 l/m 0,0 km/h (0 Bft) NO 46 0 min 0,000 mm 1,8 UV-I 285 W/m 10,0 C 16,4 C 1,6 km/h (1 Bft) 100,00 %
22.09.2017 13:08 16,4 C 12,8 C 67 % 1020,5 hPa 0,0 l/m 0,2 km/h (0 Bft) NO 46 0 min 0,000 mm 1,6 UV-I 260 W/m 10,3 C 16,4 C 1,6 km/h (1 Bft) 100,00 %
22.09.2017 13:10 16,5 C 12,8 C 68 % 1020,4 hPa 0,0 l/m 1,0 km/h (0 Bft) NO 46 0 min 0,000 mm 1,5 UV-I 246 W/m 10,6 C 16,5 C 3,2 km/h (1 Bft) 95,74 %
22.09.2017 13:12 16,4 C 12,8 C 66 % 1020,5 hPa 0,0 l/m 3,9 km/h (1 Bft) O-NO 74 0 min 0,000 mm 1,5 UV-I 242 W/m 10,0 C 16,4 C 6,4 km/h (2 Bft) 100,00 %
22.09.2017 13:14 16,4 C 12,8 C 65 % 1020,4 hPa 0,0 l/m 1,8 km/h (1 Bft) O-NO 74 0 min 0,000 mm 1,5 UV-I 235 W/m 9,8 C 16,4 C 4,8 km/h (1 Bft) 100,00 %
22.09.2017 13:16 16,4 C 12,8 C 66 % 1020,4 hPa 0,0 l/m 1,2 km/h (1 Bft) O-NO 74 0 min 0,000 mm 1,3 UV-I 213 W/m 10,0 C 16,4 C 3,2 km/h (1 Bft) 98,21 %
22.09.2017 13:18 16,3 C 12,8 C 65 % 1020,5 hPa 0,0 l/m 1,2 km/h (1 Bft) O-NO 74 0 min 0,000 mm 1,1 UV-I 180 W/m 9,7 C 16,3 C 3,2 km/h (1 Bft) 100,00 %
22.09.2017 13:20 16,3 C 12,8 C 66 % 1020,5 hPa 0,0 l/m 2,3 km/h (1 Bft) O-NO 74 0 min 0,000 mm 1,0 UV-I 153 W/m 9,9 C 16,3 C 4,8 km/h (1 Bft) 98,11 %
22.09.2017 13:22 16,3 C 12,8 C 67 % 1020,5 hPa 0,0 l/m 1,4 km/h (1 Bft) O-NO 74 0 min 0,000 mm 0,9 UV-I 147 W/m 10,2 C 16,3 C 3,2 km/h (1 Bft) 100,00 %
22.09.2017 13:24 16,2 C 12,8 C 65 % 1020,5 hPa 0,0 l/m 0,0 km/h (0 Bft) O-NO 74 0 min 0,000 mm 1,0 UV-I 152 W/m 9,6 C 16,2 C 1,6 km/h (1 Bft) 98,11 %
22.09.2017 13:26 16,2 C 12,8 C 65 % 1020,5 hPa 0,0 l/m 0,3 km/h (0 Bft) O-NO 74 0 min 0,000 mm 1,0 UV-I 159 W/m 9,6 C 16,2 C 1,6 km/h (1 Bft) 100,00 %
22.09.2017 13:28 16,2 C 12,8 C 66 % 1020,5 hPa 0,0 l/m 1,1 km/h (1 Bft) O-NO 74 0 min 0,000 mm 1,0 UV-I 165 W/m 9,8 C 16,2 C 3,2 km/h (1 Bft) 100,00 %
22.09.2017 13:30 16,2 C 12,8 C 68 % 1020,5 hPa 0,0 l/m 0,7 km/h (0 Bft) O-NO 74 0 min 0,000 mm 1,1 UV-I 174 W/m 10,3 C 16,2 C 3,2 km/h (1 Bft) 100,00 %
22.09.2017 13:32 16,2 C 12,8 C 69 % 1020,4 hPa 0,0 l/m 0,3 km/h (0 Bft) O-NO 74 0 min 0,000 mm 1,2 UV-I 185 W/m 10,5 C 16,2 C 1,6 km/h (1 Bft) 97,87 %
22.09.2017 13:34 16,2 C 12,8 C 69 % 1020,4 hPa 0,0 l/m 0,7 km/h (0 Bft) O-NO 74 0 min 0,000 mm 1,2 UV-I 190 W/m 10,5 C 16,2 C 3,2 km/h (1 Bft) 97,87 %
22.09.2017 13:36 16,1 C 12,8 C 68 % 1020,3 hPa 0,0 l/m 0,0 km/h (0 Bft) O-NO 74 0 min 0,000 mm 1,2 UV-I 192 W/m 10,2 C 16,1 C 1,6 km/h (1 Bft) 100,00 %
22.09.2017 13:38 16,1 C 12,8 C 69 % 1020,4 hPa 0,0 l/m 0,8 km/h (0 Bft) O-NO 74 0 min 0,000 mm 1,2 UV-I 194 W/m 10,4 C 16,1 C 3,2 km/h (1 Bft) 100,00 %
22.09.2017 13:40 16,1 C 12,8 C 69 % 1020,4 hPa 0,0 l/m 0,2 km/h (0 Bft) O-NO 74 0 min 0,000 mm 1,2 UV-I 196 W/m 10,4 C 16,1 C 1,6 km/h (1 Bft) 100,00 %
22.09.2017 13:42 16,1 C 12,8 C 68 % 1020,4 hPa 0,0 l/m 0,4 km/h (0 Bft) O-NO 74 0 min 0,000 mm 1,2 UV-I 188 W/m 10,2 C 16,1 C 1,6 km/h (1 Bft) 98,00 %
22.09.2017 13:44 16,0 C 12,8 C 67 % 1020,4 hPa 0,0 l/m 0,0 km/h (0 Bft) O-NO 74 0 min 0,000 mm 1,1 UV-I 176 W/m 9,9 C 16,0 C 0,0 km/h (0 Bft) 97,87 %
22.09.2017 13:46 15,9 C 12,8 C 67 % 1020,5 hPa 0,0 l/m 0,0 km/h (0 Bft) O-NO 74 0 min 0,000 mm 1,1 UV-I 170 W/m 9,8 C 15,9 C 1,6 km/h (1 Bft) 100,00 %
22.09.2017 13:48 15,9 C 12,8 C 67 % 1020,5 hPa 0,0 l/m 0,5 km/h (0 Bft) O-NO 74 0 min 0,000 mm 1,1 UV-I 167 W/m 9,8 C 15,9 C 3,2 km/h (1 Bft) 100,00 %
22.09.2017 13:50 15,9 C 12,8 C 67 % 1020,5 hPa 0,0 l/m 0,9 km/h (0 Bft) O-NO 74 0 min 0,000 mm 1,0 UV-I 165 W/m 9,8 C 15,9 C 3,2 km/h (1 Bft) 100,00 %
22.09.2017 13:52 15,9 C 12,8 C 69 % 1020,5 hPa 0,0 l/m 0,0 km/h (0 Bft) O-NO 74 0 min 0,000 mm 1,0 UV-I 166 W/m 10,2 C 15,9 C 0,0 km/h (0 Bft) 100,00 %
22.09.2017 13:54 15,9 C 12,8 C 68 % 1020,5 hPa 0,0 l/m 0,3 km/h (0 Bft) O-NO 74 0 min 0,000 mm 1,1 UV-I 169 W/m 10,0 C 15,9 C 1,6 km/h (1 Bft) 100,00 %
22.09.2017 13:56 15,9 C 12,8 C 67 % 1020,5 hPa 0,0 l/m 0,7 km/h (0 Bft) O-NO 74 0 min 0,000 mm 1,0 UV-I 160 W/m 9,8 C 15,9 C 3,2 km/h (1 Bft) 97,56 %
22.09.2017 13:58 15,9 C 12,8 C 67 % 1020,5 hPa 0,0 l/m 0,3 km/h (0 Bft) O-NO 74 0 min 0,000 mm 0,9 UV-I 144 W/m 9,8 C 15,9 C 1,6 km/h (1 Bft) 100,00 %
22.09.2017 14:00 15,9 C 12,8 C 68 % 1020,4 hPa 0,0 l/m 0,1 km/h (0 Bft) O-NO 74 0 min 0,101 mm 0,8 UV-I 129 W/m 10,0 C 15,9 C 1,6 km/h (1 Bft) 98,00 %
22.09.2017 14:02 15,8 C 12,8 C 67 % 1020,5 hPa 0,0 l/m 0,0 km/h (0 Bft) O-NO 74 0 min 0,000 mm 0,8 UV-I 122 W/m 9,7 C 15,8 C 0,0 km/h (0 Bft) 91,89 %
22.09.2017 14:04 15,8 C 12,8 C 68 % 1020,4 hPa 0,0 l/m 0,1 km/h (0 Bft) O-NO 74 0 min 0,000 mm 0,8 UV-I 123 W/m 9,9 C 15,8 C 1,6 km/h (1 Bft) 95,74 %
22.09.2017 14:06 15,8 C 12,8 C 68 % 1020,4 hPa 0,0 l/m 2,1 km/h (1 Bft) O-NO 74 0 min 0,000 mm 0,9 UV-I 128 W/m 9,9 C 15,8 C 3,2 km/h (1 Bft) 98,00 %
22.09.2017 14:08 15,8 C 12,8 C 68 % 1020,4 hPa 0,0 l/m 1,0 km/h (0 Bft) O-NO 74 0 min 0,000 mm 0,9 UV-I 138 W/m 9,9 C 15,8 C 1,6 km/h (1 Bft) 97,56 %
22.09.2017 14:10 15,8 C 12,8 C 68 % 1020,4 hPa 0,0 l/m 1,9 km/h (1 Bft) O-NO 74 0 min 0,000 mm 1,0 UV-I 159 W/m 9,9 C 15,8 C 3,2 km/h (1 Bft) 98,11 %
22.09.2017 14:12 15,8 C 12,8 C 69 % 1020,3 hPa 0,0 l/m 2,5 km/h (1 Bft) O-NO 74 0 min 0,000 mm 1,2 UV-I 183 W/m 10,1 C 15,8 C 4,8 km/h (1 Bft) 97,87 %
22.09.2017 14:14 15,7 C 12,8 C 69 % 1020,3 hPa 0,0 l/m 2,1 km/h (1 Bft) O-NO 74 0 min 0,000 mm 1,3 UV-I 214 W/m 10,0 C 15,7 C 3,2 km/h (1 Bft) 97,87 %
22.09.2017 14:16 15,7 C 12,8 C 67 % 1020,3 hPa 0,0 l/m 0,6 km/h (0 Bft) O-NO 74 0 min 0,000 mm 1,3 UV-I 233 W/m 9,6 C 15,7 C 1,6 km/h (1 Bft) 97,73 %
22.09.2017 14:18 15,7 C 12,8 C 67 % 1020,4 hPa 0,0 l/m 0,0 km/h (0 Bft) O-NO 74 0 min 0,000 mm 1,3 UV-I 237 W/m 9,6 C 15,7 C 0,0 km/h (0 Bft) 95,83 %
22.09.2017 14:20 15,7 C 12,8 C 67 % 1020,4 hPa 0,0 l/m 0,0 km/h (0 Bft) O-NO 74 0 min 0,000 mm 1,4 UV-I 247 W/m 9,6 C 15,7 C 0,0 km/h (0 Bft) 98,08 %
22.09.2017 14:22 15,7 C 12,8 C 69 % 1020,4 hPa 0,0 l/m 0,0 km/h (0 Bft) O-NO 74 0 min 0,000 mm 1,4 UV-I 254 W/m 10,0 C 15,7 C 0,0 km/h (0 Bft) 97,87 %
22.09.2017 14:24 15,8 C 12,8 C 70 % 1020,3 hPa 0,0 l/m 0,1 km/h (0 Bft) O-NO 74 0 min 0,000 mm 1,5 UV-I 257 W/m 10,3 C 15,8 C 1,6 km/h (1 Bft) 95,24 %
22.09.2017 14:26 15,8 C 12,8 C 69 % 1020,4 hPa 0,0 l/m 1,5 km/h (1 Bft) O-NO 74 0 min 0,000 mm 1,5 UV-I 265 W/m 10,1 C 15,8 C 3,2 km/h (1 Bft) 95,74 %
22.09.2017 14:28 15,8 C 12,8 C 68 % 1020,3 hPa 0,0 l/m 1,4 km/h (1 Bft) O-NO 74 0 min 0,000 mm 1,5 UV-I 278 W/m 9,9 C 15,8 C 3,2 km/h (1 Bft) 96,00 %
22.09.2017 14:30 15,9 C 12,8 C 68 % 1020,3 hPa 0,0 l/m 0,3 km/h (0 Bft) O-NO 74 0 min 0,000 mm 1,6 UV-I 285 W/m 10,0 C 15,9 C 1,6 km/h (1 Bft) 97,87 %
22.09.2017 14:32 15,9 C 12,8 C 69 % 1020,3 hPa 0,0 l/m 2,4 km/h (1 Bft) O-NO 74 0 min 0,000 mm 1,7 UV-I 295 W/m 10,2 C 15,9 C 4,8 km/h (1 Bft) 96,00 %
22.09.2017 14:34 15,9 C 12,8 C 67 % 1020,3 hPa 0,0 l/m 1,4 km/h (1 Bft) O-NO 74 0 min 0,000 mm 1,8 UV-I 320 W/m 9,8 C 15,9 C 3,2 km/h (1 Bft) 97,73 %
22.09.2017 14:36 16,0 C 12,8 C 67 % 1020,3 hPa 0,0 l/m 0,4 km/h (0 Bft) O-NO 74 2 min 0,000 mm 1,9 UV-I 360 W/m 9,9 C 16,0 C 3,2 km/h (1 Bft) 97,87 %
22.09.2017 14:38 16,1 C 12,8 C 64 % 1020,3 hPa 0,0 l/m 0,3 km/h (0 Bft) O-NO 74 2 min 0,000 mm 2,1 UV-I 385 W/m 9,3 C 16,1 C 1,6 km/h (1 Bft) 97,56 %
22.09.2017 14:40 16,1 C 12,8 C 65 % 1020,4 hPa 0,0 l/m 2,4 km/h (1 Bft) O-NO 74 2 min 0,000 mm 2,0 UV-I 358 W/m 9,5 C 16,1 C 3,2 km/h (1 Bft) 98,11 %
22.09.2017 14:42 16,1 C 12,8 C 67 % 1020,3 hPa 0,0 l/m 1,8 km/h (1 Bft) O-NO 70 2 min 0,000 mm 1,9 UV-I 351 W/m 10,0 C 16,1 C 4,8 km/h (1 Bft) 100,00 %
22.09.2017 14:44 16,2 C 12,8 C 68 % 1020,3 hPa 0,0 l/m 4,1 km/h (1 Bft) W 279 2 min 0,000 mm 1,9 UV-I 356 W/m 10,3 C 16,2 C 6,4 km/h (2 Bft) 100,00 %
22.09.2017 14:46 16,3 C 13,3 C 66 % 1020,3 hPa 0,0 l/m 2,9 km/h (1 Bft) W 279 2 min 0,000 mm 1,9 UV-I 379 W/m 9,9 C 16,3 C 4,8 km/h (1 Bft) 100,00 %
22.09.2017 14:48 16,3 C 13,3 C 65 % 1020,4 hPa 0,0 l/m 3,5 km/h (1 Bft) W-SW 248 2 min 0,000 mm 2,0 UV-I 406 W/m 9,7 C 16,3 C 6,4 km/h (2 Bft) 100,00 %
22.09.2017 14:50 16,4 C 12,8 C 66 % 1020,3 hPa 0,0 l/m 3,4 km/h (1 Bft) SW 236 2 min 0,000 mm 1,8 UV-I 393 W/m 10,0 C 16,4 C 6,4 km/h (2 Bft) 100,00 %
22.09.2017 14:52 16,4 C 13,3 C 64 % 1020,3 hPa 0,0 l/m 1,0 km/h (0 Bft) SW 236 0 min 0,000 mm 1,6 UV-I 319 W/m 9,6 C 16,4 C 4,8 km/h (1 Bft) 100,00 %
22.09.2017 14:54 16,4 C 12,8 C 64 % 1020,3 hPa 0,0 l/m 3,2 km/h (1 Bft) SW 236 0 min 0,000 mm 1,4 UV-I 272 W/m 9,6 C 16,4 C 4,8 km/h (1 Bft) 100,00 %
22.09.2017 14:56 16,4 C 12,8 C 62 % 1020,3 hPa 0,0 l/m 0,9 km/h (0 Bft) SW 236 0 min 0,000 mm 1,3 UV-I 240 W/m 9,1 C 16,4 C 3,2 km/h (1 Bft) 98,00 %
22.09.2017 14:58 16,5 C 12,8 C 62 % 1020,3 hPa 0,0 l/m 1,4 km/h (1 Bft) SW 236 0 min 0,000 mm 1,2 UV-I 217 W/m 9,2 C 16,5 C 3,2 km/h (1 Bft) 100,00 %
22.09.2017 15:00 16,5 C 12,8 C 63 % 1020,3 hPa 0,0 l/m 0,9 km/h (0 Bft) SW 236 0 min 0,153 mm 1,1 UV-I 197 W/m 9,4 C 16,5 C 3,2 km/h (1 Bft) 100,00 %
22.09.2017 15:02 16,5 C 12,8 C 62 % 1020,3 hPa 0,0 l/m 0,1 km/h (0 Bft) SW 236 0 min 0,000 mm 0,9 UV-I 167 W/m 9,2 C 16,5 C 1,6 km/h (1 Bft) 100,00 %
22.09.2017 15:04 16,5 C 12,8 C 63 % 1020,3 hPa 0,0 l/m 1,8 km/h (1 Bft) SW 236 0 min 0,000 mm 0,8 UV-I 142 W/m 9,4 C 16,5 C 4,8 km/h (1 Bft) 100,00 %
22.09.2017 15:06 16,5 C 12,8 C 62 % 1020,3 hPa 0,0 l/m 2,3 km/h (1 Bft) SW 236 0 min 0,000 mm 0,7 UV-I 136 W/m 9,2 C 16,5 C 3,2 km/h (1 Bft) 100,00 %
22.09.2017 15:08 16,5 C 12,8 C 61 % 1020,3 hPa 0,0 l/m 1,5 km/h (1 Bft) SW 236 0 min 0,000 mm 0,7 UV-I 139 W/m 9,0 C 16,5 C 3,2 km/h (1 Bft) 100,00 %
22.09.2017 15:10 16,4 C 12,8 C 62 % 1020,3 hPa 0,0 l/m 0,5 km/h (0 Bft) SW 236 0 min 0,000 mm 0,7 UV-I 137 W/m 9,1 C 16,4 C 3,2 km/h (1 Bft) 100,00 %
22.09.2017 15:12 16,4 C 12,8 C 61 % 1020,3 hPa 0,0 l/m 0,2 km/h (0 Bft) SW 236 0 min 0,000 mm 0,7 UV-I 140 W/m 8,9 C 16,4 C 1,6 km/h (1 Bft) 97,14 %
22.09.2017 15:14 16,4 C 13,3 C 62 % 1020,3 hPa 0,0 l/m 0,1 km/h (0 Bft) SW 236 0 min 0,000 mm 0,7 UV-I 141 W/m 9,1 C 16,4 C 1,6 km/h (1 Bft) 100,00 %
22.09.2017 15:16 16,3 C 13,3 C 62 % 1020,3 hPa 0,0 l/m 0,2 km/h (0 Bft) SW 236 0 min 0,000 mm 0,7 UV-I 141 W/m 9,0 C 16,3 C 1,6 km/h (1 Bft) 100,00 %
22.09.2017 15:18 16,3 C 13,3 C 63 % 1020,2 hPa 0,0 l/m 1,6 km/h (1 Bft) SW 236 0 min 0,000 mm 0,7 UV-I 146 W/m 9,2 C 16,3 C 3,2 km/h (1 Bft) 100,00 %
22.09.2017 15:20 16,3 C 13,3 C 63 % 1020,2 hPa 0,0 l/m 0,4 km/h (0 Bft) SW 236 0 min 0,000 mm 0,7 UV-I 148 W/m 9,2 C 16,3 C 3,2 km/h (1 Bft) 100,00 %
22.09.2017 15:22 16,3 C 13,3 C 64 % 1020,2 hPa 0,0 l/m 0,7 km/h (0 Bft) SW 236 0 min 0,000 mm 0,7 UV-I 142 W/m 9,5 C 16,3 C 3,2 km/h (1 Bft) 97,73 %
22.09.2017 15:24 16,3 C 13,3 C 64 % 1020,2 hPa 0,0 l/m 1,3 km/h (1 Bft) SW 236 0 min 0,000 mm 0,6 UV-I 133 W/m 9,5 C 16,3 C 3,2 km/h (1 Bft) 100,00 %
22.09.2017 15:26 16,3 C 13,3 C 64 % 1020,2 hPa 0,0 l/m 2,0 km/h (1 Bft) SW 236 0 min 0,000 mm 0,7 UV-I 136 W/m 9,5 C 16,3 C 3,2 km/h (1 Bft) 100,00 %
22.09.2017 15:28 16,2 C 13,3 C 63 % 1020,2 hPa 0,0 l/m 0,9 km/h (0 Bft) SW 236 0 min 0,000 mm 0,7 UV-I 143 W/m 9,1 C 16,2 C 3,2 km/h (1 Bft) 100,00 %
22.09.2017 15:30 16,2 C 13,3 C 63 % 1020,2 hPa 0,0 l/m 0,8 km/h (0 Bft) SW 236 0 min 0,000 mm 0,6 UV-I 130 W/m 9,1 C 16,2 C 1,6 km/h (1 Bft) 100,00 %
22.09.2017 15:32 16,2 C 13,3 C 65 % 1020,2 hPa 0,0 l/m 0,8 km/h (0 Bft) SW 236 0 min 0,000 mm 0,6 UV-I 118 W/m 9,6 C 16,2 C 1,6 km/h (1 Bft) 100,00 %
22.09.2017 15:34 16,2 C 13,3 C 65 % 1020,2 hPa 0,0 l/m 0,1 km/h (0 Bft) SW 236 0 min 0,000 mm 0,6 UV-I 116 W/m 9,6 C 16,2 C 1,6 km/h (1 Bft) 98,11 %
22.09.2017 15:36 16,2 C 13,3 C 68 % 1020,2 hPa 0,0 l/m 0,9 km/h (0 Bft) SW 236 0 min 0,000 mm 0,6 UV-I 121 W/m 10,3 C 16,2 C 1,6 km/h (1 Bft) 100,00 %
22.09.2017 15:38 16,2 C 13,3 C 66 % 1020,3 hPa 0,0 l/m 0,0 km/h (0 Bft) SW 236 0 min 0,000 mm 0,7 UV-I 133 W/m 9,8 C 16,2 C 0,0 km/h (0 Bft) 98,00 %
22.09.2017 15:40 16,2 C 13,3 C 68 % 1020,3 hPa 0,0 l/m 0,0 km/h (0 Bft) SW 236 0 min 0,000 mm 0,7 UV-I 146 W/m 10,3 C 16,2 C 0,0 km/h (0 Bft) 100,00 %
22.09.2017 15:42 16,2 C 13,3 C 69 % 1020,3 hPa 0,0 l/m 0,0 km/h (0 Bft) SW 236 0 min 0,000 mm 0,7 UV-I 159 W/m 10,5 C 16,2 C 1,6 km/h (1 Bft) 100,00 %
22.09.2017 15:44 16,2 C 13,3 C 69 % 1020,2 hPa 0,0 l/m 0,0 km/h (0 Bft) SW 236 0 min 0,000 mm 0,8 UV-I 170 W/m 10,5 C 16,2 C 0,0 km/h (0 Bft) 100,00 %
22.09.2017 15:46 16,2 C 13,3 C 68 % 1020,2 hPa 0,0 l/m 0,3 km/h (0 Bft) SW 236 0 min 0,000 mm 0,8 UV-I 167 W/m 10,3 C 16,2 C 1,6 km/h (1 Bft) 97,56 %
22.09.2017 15:48 16,1 C 13,3 C 67 % 1020,2 hPa 0,0 l/m 0,6 km/h (0 Bft) SW 236 0 min 0,000 mm 0,6 UV-I 143 W/m 10,0 C 16,1 C 1,6 km/h (1 Bft) 100,00 %
22.09.2017 15:50 16,1 C 13,3 C 68 % 1020,1 hPa 0,0 l/m 0,8 km/h (0 Bft) SW 236 0 min 0,000 mm 0,6 UV-I 123 W/m 10,2 C 16,1 C 1,6 km/h (1 Bft) 100,00 %
22.09.2017 15:52 16,1 C 13,3 C 67 % 1020,2 hPa 0,0 l/m 0,1 km/h (0 Bft) SW 236 0 min 0,000 mm 0,5 UV-I 108 W/m 10,0 C 16,1 C 1,6 km/h (1 Bft) 100,00 %
22.09.2017 15:54 16,1 C 13,3 C 66 % 1020,2 hPa 0,0 l/m 0,0 km/h (0 Bft) SW 236 0 min 0,000 mm 0,4 UV-I 99 W/m 9,7 C 16,1 C 0,0 km/h (0 Bft) 97,87 %
22.09.2017 15:56 16,1 C 13,3 C 67 % 1020,1 hPa 0,0 l/m 0,0 km/h (0 Bft) SW 236 0 min 0,000 mm 0,0 UV-I 95 W/m 10,0 C 16,1 C 1,6 km/h (1 Bft) 100,00 %
22.09.2017 15:58 16,1 C 13,3 C 67 % 1020,1 hPa 0,0 l/m 0,0 km/h (0 Bft) SW 236 0 min 0,000 mm 0,0 UV-I 96 W/m 10,0 C 16,1 C 0,0 km/h (0 Bft) 100,00 %
22.09.2017 16:00 16,1 C 13,3 C 66 % 1020,1 hPa 0,0 l/m 0,0 km/h (0 Bft) SW 236 0 min 0,076 mm 0,5 UV-I 97 W/m 9,7 C 16,1 C 0,0 km/h (0 Bft) 97,87 %
22.09.2017 16:02 16,1 C 13,3 C 69 % 1020,1 hPa 0,0 l/m 0,0 km/h (0 Bft) SW 236 0 min 0,000 mm 0,5 UV-I 97 W/m 10,4 C 16,1 C 0,0 km/h (0 Bft) 100,00 %
22.09.2017 16:04 16,2 C 13,3 C 71 % 1020,1 hPa 0,0 l/m 0,0 km/h (0 Bft) SW 236 0 min 0,000 mm 0,5 UV-I 98 W/m 10,9 C 16,2 C 1,6 km/h (1 Bft) 97,87 %
22.09.2017 16:06 16,1 C 13,3 C 72 % 1020,2 hPa 0,0 l/m 0,0 km/h (0 Bft) SW 236 0 min 0,000 mm 0,5 UV-I 99 W/m 11,0 C 16,1 C 0,0 km/h (0 Bft) 96,23 %
22.09.2017 16:08 16,1 C 13,3 C 71 % 1020,2 hPa 0,0 l/m 0,0 km/h (0 Bft) SW 236 0 min 0,000 mm 0,5 UV-I 98 W/m 10,8 C 16,1 C 0,0 km/h (0 Bft) 92,11 %
22.09.2017 16:10 16,1 C 13,3 C 71 % 1020,1 hPa 0,0 l/m 0,0 km/h (0 Bft) SW 236 0 min 0,000 mm 0,5 UV-I 101 W/m 10,8 C 16,1 C 0,0 km/h (0 Bft) 94,00 %
22.09.2017 16:12 16,1 C 13,3 C 73 % 1020,2 hPa 0,0 l/m 0,0 km/h (0 Bft) SW 236 0 min 0,000 mm 0,2 UV-I 99 W/m 11,3 C 16,1 C 1,6 km/h (1 Bft) 98,00 %
22.09.2017 16:14 16,1 C 13,3 C 74 % 1020,2 hPa 0,0 l/m 0,0 km/h (0 Bft) SW 236 0 min 0,000 mm 0,0 UV-I 96 W/m 11,5 C 16,1 C 0,0 km/h (0 Bft) 96,00 %
22.09.2017 16:16 16,1 C 13,3 C 74 % 1020,2 hPa 0,0 l/m 0,0 km/h (0 Bft) SW 236 0 min 0,000 mm 0,2 UV-I 101 W/m 11,5 C 16,1 C 0,0 km/h (0 Bft) 100,00 %
22.09.2017 16:18 16,0 C 13,3 C 74 % 1020,2 hPa 0,0 l/m 0,0 km/h (0 Bft) SW 236 0 min 0,000 mm 0,5 UV-I 104 W/m 11,4 C 16,0 C 0,0 km/h (0 Bft) 97,37 %
22.09.2017 16:20 15,9 C 13,3 C 72 % 1020,2 hPa 0,0 l/m 0,0 km/h (0 Bft) SW 236 0 min 0,000 mm 0,1 UV-I 99 W/m 10,9 C 15,9 C 0,0 km/h (0 Bft) 96,88 %
22.09.2017 16:22 15,9 C 13,3 C 72 % 1020,3 hPa 0,0 l/m 0,0 km/h (0 Bft) SW 236 0 min 0,000 mm 0,0 UV-I 94 W/m 10,9 C 15,9 C 0,0 km/h (0 Bft) 97,44 %
22.09.2017 16:24 15,9 C 13,3 C 70 % 1020,3 hPa 0,0 l/m 0,0 km/h (0 Bft) SW 236 0 min 0,000 mm 0,0 UV-I 90 W/m 10,4 C 15,9 C 0,0 km/h (0 Bft) 98,11 %
22.09.2017 16:26 15,8 C 13,3 C 72 % 1020,3 hPa 0,0 l/m 0,0 km/h (0 Bft) SW 236 0 min 0,000 mm 0,0 UV-I 86 W/m 10,8 C 15,8 C 0,0 km/h (0 Bft) 97,37 %
22.09.2017 16:28 15,8 C 13,3 C 72 % 1020,3 hPa 0,0 l/m 0,0 km/h (0 Bft) SW 236 0 min 0,000 mm 0,0 UV-I 85 W/m 10,8 C 15,8 C 0,0 km/h (0 Bft) 98,00 %
22.09.2017 16:30 15,8 C 13,3 C 73 % 1020,3 hPa 0,0 l/m 0,0 km/h (0 Bft) SW 236 0 min 0,000 mm 0,0 UV-I 87 W/m 11,0 C 15,8 C 0,0 km/h (0 Bft) 96,00 %
22.09.2017 16:32 15,8 C 13,3 C 74 % 1020,3 hPa 0,0 l/m 0,0 km/h (0 Bft) SW 236 0 min 0,000 mm 0,0 UV-I 92 W/m 11,2 C 15,8 C 0,0 km/h (0 Bft) 96,23 %
22.09.2017 16:34 15,8 C 13,3 C 74 % 1020,3 hPa 0,0 l/m 0,0 km/h (0 Bft) SW 236 0 min 0,000 mm 0,0 UV-I 103 W/m 11,2 C 15,8 C 0,0 km/h (0 Bft) 94,74 %
22.09.2017 16:36 15,8 C 13,3 C 74 % 1020,3 hPa 0,0 l/m 0,0 km/h (0 Bft) SW 236 0 min 0,000 mm 0,0 UV-I 111 W/m 11,2 C 15,8 C 0,0 km/h (0 Bft) 94,00 %
22.09.2017 16:38 15,8 C 13,3 C 74 % 1020,3 hPa 0,0 l/m 0,0 km/h (0 Bft) SW 236 0 min 0,000 mm 0,0 UV-I 111 W/m 11,2 C 15,8 C 0,0 km/h (0 Bft) 93,62 %
22.09.2017 16:40 15,8 C 13,3 C 74 % 1020,3 hPa 0,0 l/m 0,0 km/h (0 Bft) SW 236 0 min 0,000 mm 0,0 UV-I 108 W/m 11,2 C 15,8 C 0,0 km/h (0 Bft) 95,74 %
22.09.2017 16:42 15,8 C 13,3 C 73 % 1020,4 hPa 0,0 l/m 0,0 km/h (0 Bft) SW 236 0 min 0,000 mm 0,0 UV-I 108 W/m 11,0 C 15,8 C 0,0 km/h (0 Bft) 98,00 %
22.09.2017 16:44 15,7 C 13,3 C 74 % 1020,4 hPa 0,0 l/m 0,3 km/h (0 Bft) SW 236 0 min 0,000 mm 0,0 UV-I 112 W/m 11,1 C 15,7 C 1,6 km/h (1 Bft) 97,37 %
22.09.2017 16:46 15,7 C 13,3 C 74 % 1020,4 hPa 0,0 l/m 0,6 km/h (0 Bft) SW 236 0 min 0,000 mm 0,0 UV-I 113 W/m 11,1 C 15,7 C 1,6 km/h (1 Bft) 98,11 %
22.09.2017 16:48 15,7 C 13,3 C 73 % 1020,3 hPa 0,0 l/m 0,0 km/h (0 Bft) SW 236 0 min 0,000 mm 0,0 UV-I 113 W/m 10,9 C 15,7 C 0,0 km/h (0 Bft) 98,00 %
22.09.2017 16:50 15,7 C 13,3 C 74 % 1020,3 hPa 0,0 l/m 0,6 km/h (0 Bft) SW 236 0 min 0,000 mm 0,0 UV-I 111 W/m 11,1 C 15,7 C 1,6 km/h (1 Bft) 94,74 %
22.09.2017 16:52 15,7 C 13,3 C 74 % 1020,3 hPa 0,0 l/m 1,8 km/h (1 Bft) SW 236 0 min 0,000 mm 0,0 UV-I 104 W/m 11,1 C 15,7 C 3,2 km/h (1 Bft) 94,00 %
22.09.2017 16:54 15,7 C 13,3 C 72 % 1020,3 hPa 0,0 l/m 2,2 km/h (1 Bft) SW 236 0 min 0,000 mm 0,0 UV-I 96 W/m 10,7 C 15,7 C 3,2 km/h (1 Bft) 98,00 %
22.09.2017 16:56 15,6 C 13,3 C 72 % 1020,3 hPa 0,0 l/m 1,9 km/h (1 Bft) SW 236 0 min 0,000 mm 0,0 UV-I 84 W/m 10,6 C 15,6 C 3,2 km/h (1 Bft) 97,62 %
22.09.2017 16:58 15,6 C 13,3 C 72 % 1020,4 hPa 0,0 l/m 1,5 km/h (1 Bft) SW 236 0 min 0,000 mm 0,0 UV-I 77 W/m 10,6 C 15,6 C 3,2 km/h (1 Bft) 98,00 %
22.09.2017 17:00 15,6 C 13,3 C 73 % 1020,4 hPa 0,0 l/m 0,8 km/h (0 Bft) SW 236 0 min 0,051 mm 0,0 UV-I 74 W/m 10,8 C 15,6 C 1,6 km/h (1 Bft) 98,00 %
22.09.2017 17:02 15,6 C 13,3 C 74 % 1020,4 hPa 0,0 l/m 0,4 km/h (0 Bft) SW 236 0 min 0,000 mm 0,0 UV-I 73 W/m 11,0 C 15,6 C 1,6 km/h (1 Bft) 94,74 %
22.09.2017 17:04 15,6 C 13,3 C 75 % 1020,4 hPa 0,0 l/m 0,9 km/h (0 Bft) SW 236 0 min 0,000 mm 0,0 UV-I 77 W/m 11,2 C 15,6 C 3,2 km/h (1 Bft) 97,56 %
22.09.2017 17:06 15,7 C 13,3 C 75 % 1020,4 hPa 0,0 l/m 0,2 km/h (0 Bft) SW 236 0 min 0,000 mm 0,0 UV-I 83 W/m 11,3 C 15,7 C 1,6 km/h (1 Bft) 95,16 %
22.09.2017 17:08 15,6 C 13,3 C 76 % 1020,4 hPa 0,0 l/m 2,1 km/h (1 Bft) SW 236 0 min 0,000 mm 0,0 UV-I 84 W/m 11,4 C 15,6 C 3,2 km/h (1 Bft) 94,00 %
22.09.2017 17:10 15,6 C 13,3 C 75 % 1020,4 hPa 0,0 l/m 2,1 km/h (1 Bft) SW 236 0 min 0,000 mm 0,0 UV-I 80 W/m 11,2 C 15,6 C 3,2 km/h (1 Bft) 97,37 %
22.09.2017 17:12 15,6 C 13,3 C 75 % 1020,4 hPa 0,0 l/m 2,6 km/h (1 Bft) SW 236 0 min 0,000 mm 0,0 UV-I 77 W/m 11,2 C 15,6 C 4,8 km/h (1 Bft) 95,74 %
22.09.2017 17:14 15,6 C 13,3 C 75 % 1020,4 hPa 0,0 l/m 3,1 km/h (1 Bft) SW 236 0 min 0,000 mm 0,0 UV-I 77 W/m 11,2 C 15,6 C 3,2 km/h (1 Bft) 98,00 %
22.09.2017 17:16 15,6 C 13,3 C 75 % 1020,4 hPa 0,0 l/m 2,5 km/h (1 Bft) SW 236 0 min 0,000 mm 0,0 UV-I 75 W/m 11,2 C 15,6 C 3,2 km/h (1 Bft) 97,37 %
22.09.2017 17:18 15,5 C 13,3 C 76 % 1020,5 hPa 0,0 l/m 2,5 km/h (1 Bft) SW 236 0 min 0,000 mm 0,0 UV-I 72 W/m 11,3 C 15,5 C 4,8 km/h (1 Bft) 94,00 %
22.09.2017 17:20 15,5 C 13,3 C 76 % 1020,5 hPa 0,0 l/m 2,2 km/h (1 Bft) SW 236 0 min 0,000 mm 0,0 UV-I 69 W/m 11,3 C 15,5 C 3,2 km/h (1 Bft) 97,87 %
22.09.2017 17:22 15,5 C 13,3 C 77 % 1020,5 hPa 0,0 l/m 3,1 km/h (1 Bft) SW 236 0 min 0,000 mm 0,0 UV-I 67 W/m 11,5 C 15,5 C 4,8 km/h (1 Bft) 97,87 %
22.09.2017 17:24 15,4 C 13,3 C 75 % 1020,5 hPa 0,0 l/m 3,0 km/h (1 Bft) SW 236 0 min 0,000 mm 0,0 UV-I 63 W/m 11,0 C 15,4 C 4,8 km/h (1 Bft) 96,00 %
22.09.2017 17:26 15,4 C 13,3 C 76 % 1020,5 hPa 0,0 l/m 3,2 km/h (1 Bft) O-SO 116 0 min 0,000 mm 0,0 UV-I 57 W/m 11,2 C 15,4 C 4,8 km/h (1 Bft) 96,00 %
22.09.2017 17:28 15,4 C 13,3 C 76 % 1020,5 hPa 0,0 l/m 3,5 km/h (1 Bft) O-SO 116 0 min 0,000 mm 0,0 UV-I 52 W/m 11,2 C 15,4 C 4,8 km/h (1 Bft) 97,87 %
22.09.2017 17:30 15,3 C 13,3 C 77 % 1020,5 hPa 0,0 l/m 3,1 km/h (1 Bft) O-SO 116 0 min 0,000 mm 0,0 UV-I 47 W/m 11,3 C 15,3 C 4,8 km/h (1 Bft) 97,56 %
22.09.2017 17:32 15,3 C 13,3 C 77 % 1020,5 hPa 0,0 l/m 3,3 km/h (1 Bft) O-SO 116 0 min 0,000 mm 0,0 UV-I 47 W/m 11,3 C 15,3 C 4,8 km/h (1 Bft) 97,87 %
22.09.2017 17:34 15,3 C 13,3 C 77 % 1020,4 hPa 0,0 l/m 3,2 km/h (1 Bft) O-SO 116 0 min 0,000 mm 0,0 UV-I 49 W/m 11,3 C 15,3 C 4,8 km/h (1 Bft) 98,00 %
22.09.2017 17:36 15,2 C 13,3 C 78 % 1020,4 hPa 0,0 l/m 3,0 km/h (1 Bft) O-SO 116 0 min 0,000 mm 0,0 UV-I 47 W/m 11,4 C 15,2 C 4,8 km/h (1 Bft) 98,00 %
22.09.2017 17:38 15,2 C 13,3 C 78 % 1020,4 hPa 0,0 l/m 2,1 km/h (1 Bft) O-SO 116 0 min 0,000 mm 0,0 UV-I 46 W/m 11,4 C 15,2 C 4,8 km/h (1 Bft) 97,62 %
22.09.2017 17:40 15,2 C 13,3 C 78 % 1020,4 hPa 0,0 l/m 2,3 km/h (1 Bft) O-SO 116 0 min 0,000 mm 0,0 UV-I 42 W/m 11,4 C 15,2 C 4,8 km/h (1 Bft) 98,00 %
22.09.2017 17:42 15,1 C 13,3 C 78 % 1020,5 hPa 0,0 l/m 2,2 km/h (1 Bft) O-SO 116 0 min 0,000 mm 0,0 UV-I 38 W/m 11,3 C 15,1 C 3,2 km/h (1 Bft) 98,00 %
22.09.2017 17:44 15,1 C 13,3 C 78 % 1020,5 hPa 0,0 l/m 0,3 km/h (0 Bft) O-SO 116 0 min 0,000 mm 0,0 UV-I 37 W/m 11,3 C 15,1 C 1,6 km/h (1 Bft) 97,37 %
22.09.2017 17:46 15,1 C 13,3 C 78 % 1020,4 hPa 0,0 l/m 0,1 km/h (0 Bft) O-SO 116 0 min 0,000 mm 0,0 UV-I 39 W/m 11,3 C 15,1 C 1,6 km/h (1 Bft) 92,45 %
22.09.2017 17:48 15,1 C 13,3 C 78 % 1020,5 hPa 0,0 l/m 1,2 km/h (1 Bft) O-SO 116 0 min 0,000 mm 0,0 UV-I 40 W/m 11,3 C 15,1 C 3,2 km/h (1 Bft) 100,00 %
22.09.2017 17:50 15,0 C 13,3 C 78 % 1020,5 hPa 0,0 l/m 0,6 km/h (0 Bft) O-SO 116 0 min 0,000 mm 0,0 UV-I 40 W/m 11,2 C 15,0 C 1,6 km/h (1 Bft) 100,00 %
22.09.2017 17:52 15,0 C 13,3 C 80 % 1020,5 hPa 0,0 l/m 0,9 km/h (0 Bft) O-SO 116 0 min 0,000 mm 0,0 UV-I 38 W/m 11,6 C 15,0 C 1,6 km/h (1 Bft) 97,87 %
22.09.2017 17:54 15,0 C 13,3 C 81 % 1020,5 hPa 0,0 l/m 1,3 km/h (1 Bft) O-SO 116 0 min 0,000 mm 0,0 UV-I 33 W/m 11,8 C 15,0 C 1,6 km/h (1 Bft) 100,00 %
22.09.2017 17:56 14,9 C 13,3 C 82 % 1020,5 hPa 0,0 l/m 0,8 km/h (0 Bft) O-SO 116 0 min 0,000 mm 0,0 UV-I 29 W/m 11,9 C 14,9 C 1,6 km/h (1 Bft) 100,00 %
22.09.2017 17:58 14,9 C 13,3 C 82 % 1020,5 hPa 0,0 l/m 0,0 km/h (0 Bft) O-SO 116 0 min 0,000 mm 0,0 UV-I 25 W/m 11,9 C 14,9 C 1,6 km/h (1 Bft) 98,11 %
22.09.2017 18:00 14,8 C 13,3 C 82 % 1020,5 hPa 0,0 l/m 1,2 km/h (1 Bft) O-SO 116 0 min 0,025 mm 0,0 UV-I 25 W/m 11,8 C 14,8 C 3,2 km/h (1 Bft) 100,00 %
22.09.2017 18:02 14,8 C 13,3 C 82 % 1020,4 hPa 0,0 l/m 3,1 km/h (1 Bft) O-SO 116 0 min 0,000 mm 0,0 UV-I 26 W/m 11,8 C 14,8 C 4,8 km/h (1 Bft) 96,00 %
22.09.2017 18:04 14,7 C 13,3 C 82 % 1020,4 hPa 0,0 l/m 4,0 km/h (1 Bft) O-SO 116 0 min 0,000 mm 0,0 UV-I 27 W/m 11,7 C 14,7 C 4,8 km/h (1 Bft) 100,00 %
22.09.2017 18:06 14,6 C 13,3 C 82 % 1020,5 hPa 0,0 l/m 2,5 km/h (1 Bft) O-SO 116 0 min 0,000 mm 0,0 UV-I 27 W/m 11,6 C 14,6 C 3,2 km/h (1 Bft) 100,00 %
22.09.2017 18:08 14,6 C 13,3 C 83 % 1020,5 hPa 0,0 l/m 2,6 km/h (1 Bft) O-SO 116 0 min 0,000 mm 0,0 UV-I 26 W/m 11,7 C 14,6 C 3,2 km/h (1 Bft) 96,00 %
22.09.2017 18:10 14,5 C 13,3 C 84 % 1020,4 hPa 0,0 l/m 3,4 km/h (1 Bft) O-SO 116 0 min 0,000 mm 0,0 UV-I 26 W/m 11,8 C 14,5 C 4,8 km/h (1 Bft) 100,00 %
22.09.2017 18:12 14,4 C 13,3 C 84 % 1020,4 hPa 0,0 l/m 4,5 km/h (1 Bft) O-SO 116 0 min 0,000 mm 0,0 UV-I 27 W/m 11,7 C 14,4 C 6,4 km/h (2 Bft) 100,00 %
22.09.2017 18:14 14,3 C 13,3 C 84 % 1020,4 hPa 0,0 l/m 4,6 km/h (1 Bft) O-SO 116 0 min 0,000 mm 0,0 UV-I 29 W/m 11,6 C 14,3 C 6,4 km/h (2 Bft) 97,44 %
22.09.2017 18:16 14,3 C 13,3 C 85 % 1020,3 hPa 0,0 l/m 4,1 km/h (1 Bft) O-SO 116 0 min 0,000 mm 0,0 UV-I 32 W/m 11,8 C 14,3 C 4,8 km/h (1 Bft) 98,00 %
22.09.2017 18:18 14,2 C 13,3 C 85 % 1020,4 hPa 0,2 l/m 3,6 km/h (1 Bft) O-SO 116 0 min 0,000 mm 0,0 UV-I 29 W/m 11,7 C 14,2 C 4,8 km/h (1 Bft) 95,74 %
22.09.2017 18:20 14,2 C 13,3 C 85 % 1020,4 hPa 0,0 l/m 3,2 km/h (1 Bft) O-SO 116 0 min 0,000 mm 0,0 UV-I 25 W/m 11,7 C 14,2 C 4,8 km/h (1 Bft) 98,00 %
22.09.2017 18:22 14,2 C 13,3 C 86 % 1020,3 hPa 0,0 l/m 3,0 km/h (1 Bft) O-SO 116 0 min 0,000 mm 0,0 UV-I 23 W/m 11,9 C 14,2 C 4,8 km/h (1 Bft) 97,56 %
22.09.2017 18:24 14,1 C 13,3 C 86 % 1020,3 hPa 0,0 l/m 3,7 km/h (1 Bft) O-SO 116 0 min 0,000 mm 0,0 UV-I 23 W/m 11,8 C 14,1 C 4,8 km/h (1 Bft) 97,87 %
22.09.2017 18:26 14,1 C 13,3 C 87 % 1020,3 hPa 0,0 l/m 3,1 km/h (1 Bft) O-SO 116 0 min 0,000 mm 0,0 UV-I 25 W/m 12,0 C 14,1 C 4,8 km/h (1 Bft) 98,11 %
22.09.2017 18:28 14,0 C 13,3 C 87 % 1020,4 hPa 0,0 l/m 3,8 km/h (1 Bft) O-SO 116 0 min 0,000 mm 0,0 UV-I 26 W/m 11,9 C 14,0 C 4,8 km/h (1 Bft) 98,00 %
22.09.2017 18:30 13,9 C 13,3 C 87 % 1020,4 hPa 0,0 l/m 3,5 km/h (1 Bft) O-SO 116 0 min 0,000 mm 0,0 UV-I 26 W/m 11,8 C 13,9 C 6,4 km/h (2 Bft) 97,56 %
22.09.2017 18:32 13,9 C 13,3 C 87 % 1020,4 hPa 0,0 l/m 2,7 km/h (1 Bft) O-SO 116 0 min 0,000 mm 0,0 UV-I 25 W/m 11,8 C 13,9 C 4,8 km/h (1 Bft) 98,00 %
22.09.2017 18:34 13,8 C 13,3 C 87 % 1020,4 hPa 0,0 l/m 3,5 km/h (1 Bft) O-SO 116 0 min 0,000 mm 0,0 UV-I 23 W/m 11,7 C 13,8 C 4,8 km/h (1 Bft) 97,37 %
22.09.2017 18:36 13,8 C 13,3 C 87 % 1020,3 hPa 0,0 l/m 3,4 km/h (1 Bft) O-SO 116 0 min 0,000 mm 0,0 UV-I 23 W/m 11,7 C 13,8 C 4,8 km/h (1 Bft) 96,23 %
22.09.2017 18:38 13,7 C 13,3 C 87 % 1020,3 hPa 0,0 l/m 3,4 km/h (1 Bft) O-SO 116 0 min 0,000 mm 0,0 UV-I 21 W/m 11,6 C 13,7 C 4,8 km/h (1 Bft) 97,87 %
22.09.2017 18:40 13,7 C 13,3 C 88 % 1020,4 hPa 0,0 l/m 3,9 km/h (1 Bft) O-SO 116 0 min 0,000 mm 0,0 UV-I 20 W/m 11,7 C 13,7 C 4,8 km/h (1 Bft) 98,00 %
22.09.2017 18:42 13,6 C 13,3 C 88 % 1020,3 hPa 0,0 l/m 3,5 km/h (1 Bft) O-SO 116 0 min 0,000 mm 0,0 UV-I 19 W/m 11,6 C 13,6 C 4,8 km/h (1 Bft) 95,12 %
22.09.2017 18:44 13,6 C 13,3 C 88 % 1020,4 hPa 0,0 l/m 2,5 km/h (1 Bft) O-SO 116 0 min 0,000 mm 0,0 UV-I 18 W/m 11,6 C 13,6 C 4,8 km/h (1 Bft) 96,23 %
22.09.2017 18:46 13,6 C 13,3 C 88 % 1020,4 hPa 0,0 l/m 0,6 km/h (0 Bft) O-SO 116 0 min 0,000 mm 0,0 UV-I 16 W/m 11,6 C 13,6 C 3,2 km/h (1 Bft) 97,37 %
22.09.2017 18:48 13,5 C 13,3 C 88 % 1020,5 hPa 0,0 l/m 1,4 km/h (1 Bft) O-SO 116 2 min 0,000 mm 0,0 UV-I 15 W/m 11,6 C 13,5 C 3,2 km/h (1 Bft) 100,00 %
22.09.2017 18:50 13,4 C 13,3 C 88 % 1020,5 hPa 0,0 l/m 2,6 km/h (1 Bft) O-SO 116 2 min 0,000 mm 0,0 UV-I 14 W/m 11,5 C 13,4 C 3,2 km/h (1 Bft) 100,00 %
22.09.2017 18:52 13,4 C 13,3 C 88 % 1020,4 hPa 0,0 l/m 2,5 km/h (1 Bft) O-SO 116 0 min 0,000 mm 0,0 UV-I 13 W/m 11,5 C 13,4 C 3,2 km/h (1 Bft) 100,00 %
22.09.2017 18:54 13,4 C 13,3 C 88 % 1020,5 hPa 0,0 l/m 2,4 km/h (1 Bft) O-SO 116 0 min 0,000 mm 0,0 UV-I 12 W/m 11,5 C 13,4 C 3,2 km/h (1 Bft) 98,18 %
22.09.2017 18:56 13,4 C 13,3 C 88 % 1020,5 hPa 0,0 l/m 0,5 km/h (0 Bft) O-SO 116 0 min 0,000 mm 0,0 UV-I 10 W/m 11,5 C 13,4 C 1,6 km/h (1 Bft) 100,00 %
22.09.2017 18:58 13,4 C 13,3 C 89 % 1020,5 hPa 0,0 l/m 0,0 km/h (0 Bft) O-SO 116 0 min 0,000 mm 0,0 UV-I 9 W/m 11,6 C 13,4 C 0,0 km/h (0 Bft) 100,00 %
22.09.2017 19:00 13,3 C 13,3 C 89 % 1020,5 hPa 0,0 l/m 0,0 km/h (0 Bft) O-SO 116 0 min 0,026 mm 0,0 UV-I 9 W/m 11,5 C 13,3 C 0,0 km/h (0 Bft) 100,00 %
22.09.2017 19:02 13,3 C 13,3 C 89 % 1020,5 hPa 0,0 l/m 0,0 km/h (0 Bft) O-SO 116 0 min 0,000 mm 0,0 UV-I 7 W/m 11,5 C 13,3 C 0,0 km/h (0 Bft) 97,87 %
22.09.2017 19:04 13,3 C 13,3 C 89 % 1020,5 hPa 0,0 l/m 0,0 km/h (0 Bft) O-SO 116 0 min 0,000 mm 0,0 UV-I 7 W/m 11,5 C 13,3 C 0,0 km/h (0 Bft) 100,00 %
22.09.2017 19:06 13,3 C 13,3 C 89 % 1020,5 hPa 0,0 l/m 0,0 km/h (0 Bft) O-SO 116 0 min 0,000 mm 0,0 UV-I 7 W/m 11,5 C 13,3 C 0,0 km/h (0 Bft) 100,00 %
22.09.2017 19:08 13,2 C 13,3 C 89 % 1020,5 hPa 0,0 l/m 0,0 km/h (0 Bft) O-SO 116 0 min 0,000 mm 0,0 UV-I 5 W/m 11,4 C 13,2 C 0,0 km/h (0 Bft) 100,00 %
22.09.2017 19:10 13,2 C 13,3 C 89 % 1020,5 hPa 0,0 l/m 0,0 km/h (0 Bft) O-SO 116 0 min 0,000 mm 0,0 UV-I 5 W/m 11,4 C 13,2 C 0,0 km/h (0 Bft) 96,23 %
22.09.2017 19:12 13,2 C 13,3 C 89 % 1020,5 hPa 0,0 l/m 0,0 km/h (0 Bft) O-SO 116 0 min 0,000 mm 0,0 UV-I 5 W/m 11,4 C 13,2 C 0,0 km/h (0 Bft) 97,87 %
22.09.2017 19:14 13,1 C 13,3 C 89 % 1020,5 hPa 0,0 l/m 0,0 km/h (0 Bft) O-SO 116 0 min 0,000 mm 0,0 UV-I 5 W/m 11,3 C 13,1 C 0,0 km/h (0 Bft) 100,00 %
22.09.2017 19:16 13,1 C 13,3 C 89 % 1020,6 hPa 0,0 l/m 0,0 km/h (0 Bft) O-SO 116 0 min 0,000 mm 0,0 UV-I 1 W/m 11,3 C 13,1 C 0,0 km/h (0 Bft) 97,87 %
22.09.2017 19:18 13,1 C 13,3 C 89 % 1020,6 hPa 0,0 l/m 0,1 km/h (0 Bft) O-SO 116 0 min 0,000 mm 0,0 UV-I 0 W/m 11,3 C 13,1 C 1,6 km/h (1 Bft) 98,00 %
22.09.2017 19:20 13,0 C 13,3 C 89 % 1020,6 hPa 0,0 l/m 0,1 km/h (0 Bft) O-SO 116 0 min 0,000 mm 0,0 UV-I 0 W/m 11,2 C 13,0 C 1,6 km/h (1 Bft) 100,00 %
22.09.2017 19:22 12,9 C 13,3 C 89 % 1020,6 hPa 0,0 l/m 0,3 km/h (0 Bft) O-SO 116 0 min 0,000 mm 0,0 UV-I 0 W/m 11,1 C 12,9 C 1,6 km/h (1 Bft) 97,37 %
22.09.2017 19:24 12,8 C 13,3 C 89 % 1020,6 hPa 0,0 l/m 0,0 km/h (0 Bft) O-SO 116 0 min 0,000 mm 0,0 UV-I 0 W/m 11,0 C 12,8 C 0,0 km/h (0 Bft) 98,11 %
22.09.2017 19:26 12,8 C 13,3 C 89 % 1020,7 hPa 0,0 l/m 0,0 km/h (0 Bft) O-SO 116 0 min 0,000 mm 0,0 UV-I 0 W/m 11,0 C 12,8 C 1,6 km/h (1 Bft) 100,00 %
22.09.2017 19:28 12,7 C 13,3 C 89 % 1020,6 hPa 0,0 l/m 0,8 km/h (0 Bft) O-SO 116 0 min 0,000 mm 0,0 UV-I 0 W/m 10,9 C 12,7 C 1,6 km/h (1 Bft) 100,00 %
22.09.2017 19:30 12,7 C 13,3 C 89 % 1020,7 hPa 0,0 l/m 0,9 km/h (0 Bft) O-SO 116 0 min 0,000 mm 0,0 UV-I 0 W/m 10,9 C 12,7 C 1,6 km/h (1 Bft) 100,00 %
22.09.2017 19:32 12,6 C 13,3 C 89 % 1020,6 hPa 0,0 l/m 0,7 km/h (0 Bft) O-SO 116 0 min 0,000 mm 0,0 UV-I 0 W/m 10,8 C 12,6 C 3,2 km/h (1 Bft) 100,00 %
22.09.2017 19:34 12,6 C 13,3 C 89 % 1020,6 hPa 0,0 l/m 0,0 km/h (0 Bft) O-SO 116 0 min 0,000 mm 0,0 UV-I 0 W/m 10,8 C 12,6 C 0,0 km/h (0 Bft) 100,00 %
22.09.2017 19:36 12,6 C 13,3 C 89 % 1020,6 hPa 0,0 l/m 0,0 km/h (0 Bft) O-SO 116 0 min 0,000 mm 0,0 UV-I 0 W/m 10,8 C 12,6 C 0,0 km/h (0 Bft) 100,00 %
22.09.2017 19:38 12,5 C 13,3 C 89 % 1020,7 hPa 0,0 l/m 0,0 km/h (0 Bft) O-SO 116 0 min 0,000 mm 0,0 UV-I 0 W/m 10,7 C 12,5 C 0,0 km/h (0 Bft) 100,00 %
22.09.2017 19:40 12,4 C 13,3 C 89 % 1020,7 hPa 0,0 l/m 0,0 km/h (0 Bft) O-SO 116 0 min 0,000 mm 0,0 UV-I 0 W/m 10,6 C 12,4 C 0,0 km/h (0 Bft) 100,00 %
22.09.2017 19:42 12,4 C 13,3 C 89 % 1020,7 hPa 0,0 l/m 0,0 km/h (0 Bft) O-SO 116 0 min 0,000 mm 0,0 UV-I 0 W/m 10,6 C 12,4 C 0,0 km/h (0 Bft) 100,00 %
22.09.2017 19:44 12,4 C 13,3 C 90 % 1020,7 hPa 0,0 l/m 0,0 km/h (0 Bft) O-SO 116 0 min 0,000 mm 0,0 UV-I 0 W/m 10,8 C 12,4 C 0,0 km/h (0 Bft) 100,00 %
22.09.2017 19:46 12,3 C 13,3 C 90 % 1020,7 hPa 0,0 l/m 0,0 km/h (0 Bft) O-SO 116 0 min 0,000 mm 0,0 UV-I 0 W/m 10,7 C 12,3 C 0,0 km/h (0 Bft) 100,00 %
22.09.2017 19:48 12,3 C 13,3 C 90 % 1020,7 hPa 0,0 l/m 0,0 km/h (0 Bft) O-SO 116 0 min 0,000 mm 0,0 UV-I 0 W/m 10,7 C 12,3 C 0,0 km/h (0 Bft) 100,00 %
22.09.2017 19:50 12,2 C 13,3 C 89 % 1020,8 hPa 0,0 l/m 0,5 km/h (0 Bft) O-SO 116 0 min 0,000 mm 0,0 UV-I 0 W/m 10,4 C 12,2 C 3,2 km/h (1 Bft) 100,00 %
22.09.2017 19:52 12,2 C 13,3 C 89 % 1020,8 hPa 0,0 l/m 1,8 km/h (1 Bft) O-SO 116 0 min 0,000 mm 0,0 UV-I 0 W/m 10,4 C 12,2 C 3,2 km/h (1 Bft) 100,00 %
22.09.2017 19:54 12,2 C 13,3 C 90 % 1020,8 hPa 0,0 l/m 1,6 km/h (1 Bft) O-SO 116 0 min 0,000 mm 0,0 UV-I 0 W/m 10,6 C 12,2 C 3,2 km/h (1 Bft) 100,00 %
22.09.2017 19:56 12,1 C 13,3 C 90 % 1020,9 hPa 0,0 l/m 2,0 km/h (1 Bft) O-SO 116 0 min 0,000 mm 0,0 UV-I 0 W/m 10,5 C 12,1 C 3,2 km/h (1 Bft) 100,00 %
22.09.2017 19:58 12,0 C 13,3 C 90 % 1020,8 hPa 0,0 l/m 1,3 km/h (1 Bft) O-SO 116 0 min 0,000 mm 0,0 UV-I 0 W/m 10,4 C 12,0 C 3,2 km/h (1 Bft) 95,74 %
22.09.2017 20:00 11,9 C 13,3 C 90 % 1020,9 hPa 0,0 l/m 0,5 km/h (0 Bft) O-SO 116 0 min 0,000 mm 0,0 UV-I 0 W/m 10,3 C 11,9 C 1,6 km/h (1 Bft) 100,00 %
22.09.2017 20:02 11,9 C 13,3 C 90 % 1020,9 hPa 0,0 l/m 1,1 km/h (1 Bft) O-SO 116 0 min 0,000 mm 0,0 UV-I 0 W/m 10,3 C 11,9 C 1,6 km/h (1 Bft) 100,00 %
22.09.2017 20:04 11,9 C 13,3 C 90 % 1020,9 hPa 0,0 l/m 0,9 km/h (0 Bft) O-SO 116 0 min 0,000 mm 0,0 UV-I 0 W/m 10,3 C 11,9 C 3,2 km/h (1 Bft) 94,74 %
22.09.2017 20:06 11,8 C 13,3 C 90 % 1020,9 hPa 0,0 l/m 0,0 km/h (0 Bft) O-SO 116 0 min 0,000 mm 0,0 UV-I 0 W/m 10,2 C 11,8 C 1,6 km/h (1 Bft) 100,00 %
22.09.2017 20:08 11,8 C 13,3 C 90 % 1020,9 hPa 0,0 l/m 0,1 km/h (0 Bft) O-SO 116 0 min 0,000 mm 0,0 UV-I 0 W/m 10,2 C 11,8 C 1,6 km/h (1 Bft) 98,00 %
22.09.2017 20:10 11,8 C 13,3 C 90 % 1020,9 hPa 0,0 l/m 0,5 km/h (0 Bft) O-SO 116 0 min 0,000 mm 0,0 UV-I 0 W/m 10,2 C 11,8 C 1,6 km/h (1 Bft) 100,00 %
22.09.2017 20:12 11,7 C 13,3 C 90 % 1020,9 hPa 0,0 l/m 0,2 km/h (0 Bft) O-SO 116 0 min 0,000 mm 0,0 UV-I 0 W/m 10,1 C 11,7 C 3,2 km/h (1 Bft) 97,87 %
22.09.2017 20:14 11,7 C 13,3 C 90 % 1020,9 hPa 0,0 l/m 0,4 km/h (0 Bft) O-SO 116 0 min 0,000 mm 0,0 UV-I 0 W/m 10,1 C 11,7 C 1,6 km/h (1 Bft) 98,00 %
22.09.2017 20:16 11,7 C 13,3 C 90 % 1020,8 hPa 0,0 l/m 0,1 km/h (0 Bft) O-SO 116 0 min 0,000 mm 0,0 UV-I 0 W/m 10,1 C 11,7 C 1,6 km/h (1 Bft) 98,08 %
22.09.2017 20:18 11,6 C 13,3 C 90 % 1020,9 hPa 0,0 l/m 0,1 km/h (0 Bft) O-SO 116 0 min 0,000 mm 0,0 UV-I 0 W/m 10,0 C 11,6 C 1,6 km/h (1 Bft) 91,67 %
22.09.2017 20:20 11,6 C 13,3 C 90 % 1020,9 hPa 0,0 l/m 0,3 km/h (0 Bft) O-SO 116 0 min 0,000 mm 0,0 UV-I 0 W/m 10,0 C 11,6 C 1,6 km/h (1 Bft) 100,00 %
22.09.2017 20:22 11,6 C 13,3 C 90 % 1020,9 hPa 0,0 l/m 0,0 km/h (0 Bft) O-SO 116 0 min 0,000 mm 0,0 UV-I 0 W/m 10,0 C 11,6 C 1,6 km/h (1 Bft) 94,64 %
22.09.2017 20:24 11,5 C 13,3 C 90 % 1020,9 hPa 0,0 l/m 0,1 km/h (0 Bft) O-SO 116 0 min 0,000 mm 0,0 UV-I 0 W/m 9,9 C 11,5 C 1,6 km/h (1 Bft) 95,74 %
22.09.2017 20:26 11,5 C 13,3 C 91 % 1020,9 hPa 0,0 l/m 0,2 km/h (0 Bft) O-SO 116 0 min 0,000 mm 0,0 UV-I 0 W/m 10,1 C 11,5 C 1,6 km/h (1 Bft) 95,12 %
22.09.2017 20:28 11,4 C 13,3 C 91 % 1021,0 hPa 0,0 l/m 0,4 km/h (0 Bft) O-SO 116 0 min 0,000 mm 0,0 UV-I 0 W/m 10,0 C 11,4 C 1,6 km/h (1 Bft) 96,00 %
22.09.2017 20:30 11,4 C 13,3 C 91 % 1021,0 hPa 0,0 l/m 0,4 km/h (0 Bft) O-SO 116 0 min 0,000 mm 0,0 UV-I 0 W/m 10,0 C 11,4 C 1,6 km/h (1 Bft) 94,74 %
22.09.2017 20:32 11,4 C 13,3 C 91 % 1021,0 hPa 0,0 l/m 0,8 km/h (0 Bft) O-SO 116 0 min 0,000 mm 0,0 UV-I 0 W/m 10,0 C 11,4 C 1,6 km/h (1 Bft) 93,62 %
22.09.2017 20:34 11,4 C 13,3 C 91 % 1021,1 hPa 0,0 l/m 0,8 km/h (0 Bft) O-SO 116 0 min 0,000 mm 0,0 UV-I 0 W/m 10,0 C 11,4 C 3,2 km/h (1 Bft) 96,00 %
22.09.2017 20:36 11,4 C 13,3 C 91 % 1021,1 hPa 0,0 l/m 1,2 km/h (1 Bft) O-SO 116 0 min 0,000 mm 0,0 UV-I 0 W/m 10,0 C 11,4 C 3,2 km/h (1 Bft) 92,45 %
22.09.2017 20:38 11,3 C 13,3 C 91 % 1021,2 hPa 0,0 l/m 0,3 km/h (0 Bft) O-SO 116 0 min 0,000 mm 0,0 UV-I 0 W/m 9,9 C 11,3 C 1,6 km/h (1 Bft) 95,74 %
22.09.2017 20:40 11,3 C 13,3 C 91 % 1021,2 hPa 0,0 l/m 0,2 km/h (0 Bft) O-SO 116 0 min 0,000 mm 0,0 UV-I 0 W/m 9,9 C 11,3 C 1,6 km/h (1 Bft) 97,56 %
22.09.2017 20:42 11,3 C 13,3 C 92 % 1021,2 hPa 0,0 l/m 0,0 km/h (0 Bft) O-SO 116 0 min 0,000 mm 0,0 UV-I 0 W/m 10,0 C 11,3 C 0,0 km/h (0 Bft) 96,00 %
22.09.2017 20:44 11,3 C 13,3 C 92 % 1021,2 hPa 0,0 l/m 0,0 km/h (0 Bft) O-SO 116 0 min 0,000 mm 0,0 UV-I 0 W/m 10,0 C 11,3 C 0,0 km/h (0 Bft) 96,00 %
22.09.2017 20:46 11,3 C 13,3 C 92 % 1021,3 hPa 0,0 l/m 0,0 km/h (0 Bft) O-SO 116 0 min 0,000 mm 0,0 UV-I 0 W/m 10,0 C 11,3 C 0,0 km/h (0 Bft) 91,67 %
22.09.2017 20:48 11,3 C 13,3 C 92 % 1021,2 hPa 0,0 l/m 1,1 km/h (1 Bft) O-SO 116 0 min 0,000 mm 0,0 UV-I 0 W/m 10,0 C 11,3 C 3,2 km/h (1 Bft) 96,77 %
22.09.2017 20:50 11,3 C 13,3 C 92 % 1021,3 hPa 0,0 l/m 0,1 km/h (0 Bft) O-SO 116 0 min 0,000 mm 0,0 UV-I 0 W/m 10,0 C 11,3 C 1,6 km/h (1 Bft) 97,96 %
22.09.2017 20:52 11,3 C 13,3 C 92 % 1021,3 hPa 0,0 l/m 1,1 km/h (1 Bft) O-SO 116 0 min 0,000 mm 0,0 UV-I 0 W/m 10,0 C 11,3 C 4,8 km/h (1 Bft) 96,23 %
22.09.2017 20:54 11,3 C 13,3 C 92 % 1021,3 hPa 0,0 l/m 1,0 km/h (0 Bft) O-SO 116 0 min 0,000 mm 0,0 UV-I 0 W/m 10,0 C 11,3 C 3,2 km/h (1 Bft) 97,22 %
22.09.2017 20:56 11,3 C 13,3 C 93 % 1021,3 hPa 0,0 l/m 0,0 km/h (0 Bft) O-SO 116 0 min 0,000 mm 0,0 UV-I 0 W/m 10,2 C 11,3 C 1,6 km/h (1 Bft) 95,74 %
22.09.2017 20:58 11,3 C 13,3 C 92 % 1021,4 hPa 0,0 l/m 0,0 km/h (0 Bft) O-SO 116 0 min 0,000 mm 0,0 UV-I 0 W/m 10,0 C 11,3 C 0,0 km/h (0 Bft) 98,00 %
22.09.2017 21:00 11,2 C 13,3 C 92 % 1021,3 hPa 0,0 l/m 0,0 km/h (0 Bft) O-SO 116 0 min 0,000 mm 0,0 UV-I 0 W/m 9,9 C 11,2 C 0,0 km/h (0 Bft) 95,74 %
22.09.2017 21:02 11,2 C 13,3 C 92 % 1021,4 hPa 0,0 l/m 0,0 km/h (0 Bft) O-SO 116 0 min 0,000 mm 0,0 UV-I 0 W/m 9,9 C 11,2 C 0,0 km/h (0 Bft) 95,12 %
22.09.2017 21:04 11,2 C 13,3 C 93 % 1021,3 hPa 0,0 l/m 0,0 km/h (0 Bft) O-SO 116 0 min 0,000 mm 0,0 UV-I 0 W/m 10,1 C 11,2 C 0,0 km/h (0 Bft) 98,00 %
22.09.2017 21:06 11,2 C 13,3 C 93 % 1021,3 hPa 0,0 l/m 0,0 km/h (0 Bft) O-SO 116 0 min 0,000 mm 0,0 UV-I 0 W/m 10,1 C 11,2 C 0,0 km/h (0 Bft) 98,11 %
22.09.2017 21:08 11,2 C 13,3 C 93 % 1021,3 hPa 0,0 l/m 0,0 km/h (0 Bft) O-SO 116 0 min 0,000 mm 0,0 UV-I 0 W/m 10,1 C 11,2 C 0,0 km/h (0 Bft) 97,87 %
22.09.2017 21:10 11,2 C 13,3 C 93 % 1021,4 hPa 0,0 l/m 0,0 km/h (0 Bft) O-SO 116 0 min 0,000 mm 0,0 UV-I 0 W/m 10,1 C 11,2 C 0,0 km/h (0 Bft) 98,00 %
22.09.2017 21:12 11,2 C 13,3 C 93 % 1021,4 hPa 0,0 l/m 0,0 km/h (0 Bft) O-SO 116 0 min 0,000 mm 0,0 UV-I 0 W/m 10,1 C 11,2 C 0,0 km/h (0 Bft) 97,37 %
22.09.2017 21:14 11,2 C 13,3 C 93 % 1021,3 hPa 0,0 l/m 0,0 km/h (0 Bft) O-SO 116 0 min 0,000 mm 0,0 UV-I 0 W/m 10,1 C 11,2 C 0,0 km/h (0 Bft) 97,87 %
22.09.2017 21:16 11,2 C 13,3 C 93 % 1021,4 hPa 0,0 l/m 0,0 km/h (0 Bft) O-SO 116 0 min 0,000 mm 0,0 UV-I 0 W/m 10,1 C 11,2 C 0,0 km/h (0 Bft) 97,87 %
22.09.2017 21:18 11,1 C 13,3 C 93 % 1021,4 hPa 0,0 l/m 0,0 km/h (0 Bft) O-SO 116 0 min 0,000 mm 0,0 UV-I 0 W/m 10,0 C 11,1 C 0,0 km/h (0 Bft) 97,87 %
22.09.2017 21:20 11,1 C 13,3 C 93 % 1021,4 hPa 0,0 l/m 0,0 km/h (0 Bft) O-SO 116 0 min 0,000 mm 0,0 UV-I 0 W/m 10,0 C 11,1 C 0,0 km/h (0 Bft) 100,00 %
22.09.2017 21:22 11,1 C 13,3 C 93 % 1021,4 hPa 0,0 l/m 0,0 km/h (0 Bft) O-SO 116 0 min 0,000 mm 0,0 UV-I 0 W/m 10,0 C 11,1 C 0,0 km/h (0 Bft) 100,00 %
22.09.2017 21:24 11,1 C 13,3 C 93 % 1021,3 hPa 0,0 l/m 0,0 km/h (0 Bft) O-SO 116 0 min 0,000 mm 0,0 UV-I 0 W/m 10,0 C 11,1 C 0,0 km/h (0 Bft) 100,00 %
22.09.2017 21:26 11,1 C 13,3 C 93 % 1021,3 hPa 0,0 l/m 0,0 km/h (0 Bft) O-SO 116 0 min 0,000 mm 0,0 UV-I 0 W/m 10,0 C 11,1 C 0,0 km/h (0 Bft) 100,00 %
22.09.2017 21:28 11,1 C 13,3 C 93 % 1021,4 hPa 0,0 l/m 0,0 km/h (0 Bft) O-SO 116 0 min 0,000 mm 0,0 UV-I 0 W/m 10,0 C 11,1 C 0,0 km/h (0 Bft) 100,00 %
22.09.2017 21:30 11,1 C 13,3 C 93 % 1021,4 hPa 0,0 l/m 1,7 km/h (1 Bft) O-SO 116 0 min 0,000 mm 0,0 UV-I 0 W/m 10,0 C 11,1 C 3,2 km/h (1 Bft) 100,00 %
22.09.2017 21:33 11,1 C 13,3 C 93 % 1021,3 hPa 0,0 l/m 1,8 km/h (1 Bft) O-SO 116 0 min 0,000 mm 0,0 UV-I 0 W/m 10,0 C 11,1 C 3,2 km/h (1 Bft) 100,00 %
22.09.2017 21:34 11,1 C 13,3 C 93 % 1021,3 hPa 0,0 l/m 1,2 km/h (1 Bft) O-SO 116 0 min 0,000 mm 0,0 UV-I 0 W/m 10,0 C 11,1 C 3,2 km/h (1 Bft) 100,00 %
22.09.2017 21:36 11,1 C 13,3 C 93 % 1021,3 hPa 0,0 l/m 0,8 km/h (0 Bft) O-SO 116 0 min 0,000 mm 0,0 UV-I 0 W/m 10,0 C 11,1 C 3,2 km/h (1 Bft) 98,00 %
22.09.2017 21:38 11,1 C 13,3 C 93 % 1021,3 hPa 0,0 l/m 1,6 km/h (1 Bft) O-SO 116 0 min 0,000 mm 0,0 UV-I 0 W/m 10,0 C 11,1 C 3,2 km/h (1 Bft) 100,00 %
22.09.2017 21:40 11,0 C 13,3 C 93 % 1021,3 hPa 0,0 l/m 0,6 km/h (0 Bft) O-SO 116 0 min 0,000 mm 0,0 UV-I 0 W/m 9,9 C 11,0 C 3,2 km/h (1 Bft) 100,00 %
22.09.2017 21:42 11,0 C 13,3 C 93 % 1021,3 hPa 0,0 l/m 0,7 km/h (0 Bft) O-SO 116 0 min 0,000 mm 0,0 UV-I 0 W/m 9,9 C 11,0 C 3,2 km/h (1 Bft) 100,00 %
22.09.2017 21:44 11,0 C 13,3 C 93 % 1021,3 hPa 0,0 l/m 1,3 km/h (1 Bft) O-SO 116 0 min 0,000 mm 0,0 UV-I 0 W/m 9,9 C 11,0 C 3,2 km/h (1 Bft) 100,00 %
22.09.2017 21:46 10,9 C 13,3 C 93 % 1021,4 hPa 0,0 l/m 0,3 km/h (0 Bft) O-SO 116 0 min 0,000 mm 0,0 UV-I 0 W/m 9,8 C 10,9 C 1,6 km/h (1 Bft) 100,00 %
22.09.2017 21:48 10,9 C 13,3 C 93 % 1021,4 hPa 0,0 l/m 0,0 km/h (0 Bft) O-SO 116 0 min 0,000 mm 0,0 UV-I 0 W/m 9,8 C 10,9 C 0,0 km/h (0 Bft) 100,00 %
22.09.2017 21:50 10,9 C 13,3 C 93 % 1021,4 hPa 0,0 l/m 0,0 km/h (0 Bft) O-SO 116 0 min 0,000 mm 0,0 UV-I 0 W/m 9,8 C 10,9 C 0,0 km/h (0 Bft) 100,00 %
22.09.2017 21:52 10,9 C 13,3 C 93 % 1021,4 hPa 0,0 l/m 0,8 km/h (0 Bft) O-SO 116 0 min 0,000 mm 0,0 UV-I 0 W/m 9,8 C 10,9 C 3,2 km/h (1 Bft) 100,00 %
22.09.2017 21:54 10,9 C 13,3 C 93 % 1021,4 hPa 0,0 l/m 3,2 km/h (1 Bft) O-SO 116 0 min 0,000 mm 0,0 UV-I 0 W/m 9,8 C 10,9 C 4,8 km/h (1 Bft) 100,00 %
22.09.2017 21:56 10,9 C 13,3 C 93 % 1021,4 hPa 0,0 l/m 3,5 km/h (1 Bft) O-SO 116 0 min 0,000 mm 0,0 UV-I 0 W/m 9,8 C 10,9 C 4,8 km/h (1 Bft) 100,00 %
22.09.2017 21:58 10,8 C 13,3 C 93 % 1021,4 hPa 0,0 l/m 3,4 km/h (1 Bft) S 187 0 min 0,000 mm 0,0 UV-I 0 W/m 9,7 C 10,8 C 4,8 km/h (1 Bft) 100,00 %
22.09.2017 22:00 10,8 C 13,3 C 93 % 1021,4 hPa 0,0 l/m 3,1 km/h (1 Bft) S 187 0 min 0,000 mm 0,0 UV-I 0 W/m 9,7 C 10,8 C 4,8 km/h (1 Bft) 98,11 %
22.09.2017 22:02 10,8 C 13,3 C 93 % 1021,4 hPa 0,0 l/m 3,0 km/h (1 Bft) S 187 0 min 0,000 mm 0,0 UV-I 0 W/m 9,7 C 10,8 C 4,8 km/h (1 Bft) 100,00 %
22.09.2017 22:04 10,8 C 13,3 C 94 % 1021,5 hPa 0,0 l/m 4,1 km/h (1 Bft) S-SW 192 0 min 0,000 mm 0,0 UV-I 0 W/m 9,9 C 10,8 C 6,4 km/h (2 Bft) 100,00 %
22.09.2017 22:06 10,8 C 13,3 C 94 % 1021,5 hPa 0,0 l/m 4,0 km/h (1 Bft) SW 221 0 min 0,000 mm 0,0 UV-I 0 W/m 9,9 C 10,8 C 6,4 km/h (2 Bft) 100,00 %
22.09.2017 22:08 10,8 C 13,3 C 94 % 1021,5 hPa 0,0 l/m 3,5 km/h (1 Bft) SW 221 0 min 0,000 mm 0,0 UV-I 0 W/m 9,9 C 10,8 C 4,8 km/h (1 Bft) 97,87 %
22.09.2017 22:10 10,8 C 13,3 C 94 % 1021,5 hPa 0,0 l/m 3,5 km/h (1 Bft) SW 221 0 min 0,000 mm 0,0 UV-I 0 W/m 9,9 C 10,8 C 4,8 km/h (1 Bft) 100,00 %
22.09.2017 22:12 10,8 C 13,3 C 94 % 1021,5 hPa 0,0 l/m 3,5 km/h (1 Bft) SW 221 0 min 0,000 mm 0,0 UV-I 0 W/m 9,9 C 10,8 C 4,8 km/h (1 Bft) 100,00 %
22.09.2017 22:14 10,8 C 13,3 C 94 % 1021,5 hPa 0,0 l/m 3,4 km/h (1 Bft) SW 221 0 min 0,000 mm 0,0 UV-I 0 W/m 9,9 C 10,8 C 6,4 km/h (2 Bft) 100,00 %
22.09.2017 22:16 10,8 C 13,3 C 94 % 1021,5 hPa 0,0 l/m 2,0 km/h (1 Bft) SW 221 0 min 0,000 mm 0,0 UV-I 0 W/m 9,9 C 10,8 C 4,8 km/h (1 Bft) 98,00 %
22.09.2017 22:18 10,8 C 13,3 C 94 % 1021,5 hPa 0,0 l/m 1,5 km/h (1 Bft) SW 221 0 min 0,000 mm 0,0 UV-I 0 W/m 9,9 C 10,8 C 3,2 km/h (1 Bft) 97,37 %
22.09.2017 22:20 10,8 C 13,3 C 94 % 1021,5 hPa 0,0 l/m 1,6 km/h (1 Bft) S-SW 207 0 min 0,000 mm 0,0 UV-I 0 W/m 9,9 C 10,8 C 3,2 km/h (1 Bft) 96,23 %
22.09.2017 22:22 10,8 C 13,3 C 94 % 1021,6 hPa 0,0 l/m 1,9 km/h (1 Bft) S-SW 205 0 min 0,000 mm 0,0 UV-I 0 W/m 9,9 C 10,8 C 3,2 km/h (1 Bft) 98,00 %
22.09.2017 22:24 10,8 C 13,3 C 94 % 1021,5 hPa 0,0 l/m 2,6 km/h (1 Bft) S-SW 205 0 min 0,000 mm 0,0 UV-I 0 W/m 9,9 C 10,8 C 4,8 km/h (1 Bft) 97,87 %
22.09.2017 22:26 10,8 C 13,3 C 94 % 1021,5 hPa 0,0 l/m 2,3 km/h (1 Bft) S-SW 205 0 min 0,000 mm 0,0 UV-I 0 W/m 9,9 C 10,8 C 4,8 km/h (1 Bft) 97,73 %
22.09.2017 22:28 10,9 C 13,3 C 94 % 1021,5 hPa 0,0 l/m 4,0 km/h (1 Bft) S-SW 205 0 min 0,000 mm 0,0 UV-I 0 W/m 10,0 C 10,9 C 6,4 km/h (2 Bft) 97,87 %
22.09.2017 22:30 10,9 C 13,3 C 94 % 1021,5 hPa 0,0 l/m 4,4 km/h (1 Bft) S-SW 205 0 min 0,000 mm 0,0 UV-I 0 W/m 10,0 C 10,9 C 6,4 km/h (2 Bft) 94,74 %
22.09.2017 22:32 10,9 C 13,3 C 94 % 1021,5 hPa 0,0 l/m 3,7 km/h (1 Bft) S-SW 205 0 min 0,000 mm 0,0 UV-I 0 W/m 10,0 C 10,9 C 4,8 km/h (1 Bft) 98,21 %
22.09.2017 22:34 10,9 C 13,3 C 94 % 1021,5 hPa 0,0 l/m 4,6 km/h (1 Bft) S-SW 198 0 min 0,000 mm 0,0 UV-I 0 W/m 10,0 C 10,9 C 6,4 km/h (2 Bft) 97,37 %
22.09.2017 22:36 10,9 C 13,3 C 94 % 1021,5 hPa 0,0 l/m 4,6 km/h (1 Bft) S-SW 198 0 min 0,000 mm 0,0 UV-I 0 W/m 10,0 C 10,9 C 8,0 km/h (2 Bft) 98,00 %
22.09.2017 22:38 10,9 C 13,3 C 94 % 1021,5 hPa 0,0 l/m 3,0 km/h (1 Bft) S-SW 198 0 min 0,000 mm 0,0 UV-I 0 W/m 10,0 C 10,9 C 6,4 km/h (2 Bft) 96,00 %
22.09.2017 22:40 10,9 C 13,3 C 94 % 1021,5 hPa 0,0 l/m 3,4 km/h (1 Bft) S-SW 198 0 min 0,000 mm 0,0 UV-I 0 W/m 10,0 C 10,9 C 6,4 km/h (2 Bft) 95,74 %
22.09.2017 22:42 10,9 C 13,3 C 94 % 1021,5 hPa 0,0 l/m 3,0 km/h (1 Bft) S-SW 198 0 min 0,000 mm 0,0 UV-I 0 W/m 10,0 C 10,9 C 6,4 km/h (2 Bft) 95,74 %
22.09.2017 22:44 10,9 C 13,3 C 94 % 1021,5 hPa 0,0 l/m 2,5 km/h (1 Bft) S-SW 198 0 min 0,000 mm 0,0 UV-I 0 W/m 10,0 C 10,9 C 4,8 km/h (1 Bft) 100,00 %
22.09.2017 22:46 10,9 C 13,3 C 94 % 1021,5 hPa 0,0 l/m 1,9 km/h (1 Bft) S-SW 198 0 min 0,000 mm 0,0 UV-I 0 W/m 10,0 C 10,9 C 3,2 km/h (1 Bft) 95,52 %
22.09.2017 22:48 10,8 C 13,3 C 94 % 1021,5 hPa 0,0 l/m 2,6 km/h (1 Bft) S-SW 198 0 min 0,000 mm 0,0 UV-I 0 W/m 9,9 C 10,8 C 4,8 km/h (1 Bft) 97,87 %
22.09.2017 22:50 10,8 C 13,3 C 94 % 1021,6 hPa 0,0 l/m 1,9 km/h (1 Bft) S-SW 198 0 min 0,000 mm 0,0 UV-I 0 W/m 9,9 C 10,8 C 4,8 km/h (1 Bft) 98,00 %
22.09.2017 22:52 10,8 C 13,3 C 94 % 1021,7 hPa 0,0 l/m 1,8 km/h (1 Bft) S-SW 198 0 min 0,000 mm 0,0 UV-I 0 W/m 9,9 C 10,8 C 3,2 km/h (1 Bft) 97,92 %
22.09.2017 22:54 10,8 C 13,3 C 94 % 1021,7 hPa 0,0 l/m 0,9 km/h (0 Bft) S-SW 198 0 min 0,000 mm 0,0 UV-I 0 W/m 9,9 C 10,8 C 1,6 km/h (1 Bft) 95,74 %
22.09.2017 22:56 10,8 C 13,3 C 94 % 1021,7 hPa 0,0 l/m 0,6 km/h (0 Bft) S-SW 198 0 min 0,000 mm 0,0 UV-I 0 W/m 9,9 C 10,8 C 3,2 km/h (1 Bft) 100,00 %
22.09.2017 22:58 10,8 C 13,3 C 94 % 1021,8 hPa 0,0 l/m 1,3 km/h (1 Bft) S-SW 198 0 min 0,000 mm 0,0 UV-I 0 W/m 9,9 C 10,8 C 3,2 km/h (1 Bft) 100,00 %
22.09.2017 23:00 10,7 C 13,3 C 94 % 1021,8 hPa 0,0 l/m 0,2 km/h (0 Bft) S-SW 198 0 min 0,000 mm 0,0 UV-I 0 W/m 9,8 C 10,7 C 1,6 km/h (1 Bft) 100,00 %
22.09.2017 23:02 10,7 C 13,3 C 94 % 1021,8 hPa 0,0 l/m 0,9 km/h (0 Bft) S-SW 198 0 min 0,000 mm 0,0 UV-I 0 W/m 9,8 C 10,7 C 3,2 km/h (1 Bft) 100,00 %
22.09.2017 23:04 10,7 C 13,3 C 94 % 1021,8 hPa 0,0 l/m 0,7 km/h (0 Bft) S-SW 198 0 min 0,000 mm 0,0 UV-I 0 W/m 9,8 C 10,7 C 1,6 km/h (1 Bft) 100,00 %
22.09.2017 23:06 10,7 C 13,3 C 94 % 1021,8 hPa 0,0 l/m 1,2 km/h (1 Bft) S-SW 198 0 min 0,000 mm 0,0 UV-I 0 W/m 9,8 C 10,7 C 3,2 km/h (1 Bft) 100,00 %
22.09.2017 23:08 10,6 C 13,3 C 94 % 1021,8 hPa 0,0 l/m 1,3 km/h (1 Bft) S-SW 198 0 min 0,000 mm 0,0 UV-I 0 W/m 9,7 C 10,6 C 3,2 km/h (1 Bft) 100,00 %
22.09.2017 23:10 10,6 C 13,3 C 94 % 1021,8 hPa 0,0 l/m 2,3 km/h (1 Bft) S-SW 198 0 min 0,000 mm 0,0 UV-I 0 W/m 9,7 C 10,6 C 3,2 km/h (1 Bft) 100,00 %
22.09.2017 23:12 10,6 C 13,3 C 94 % 1021,8 hPa 0,0 l/m 2,2 km/h (1 Bft) S-SW 196 0 min 0,000 mm 0,0 UV-I 0 W/m 9,7 C 10,6 C 4,8 km/h (1 Bft) 100,00 %
22.09.2017 23:14 10,6 C 13,3 C 94 % 1021,8 hPa 0,0 l/m 3,2 km/h (1 Bft) S 178 0 min 0,000 mm 0,0 UV-I 0 W/m 9,7 C 10,6 C 6,4 km/h (2 Bft) 100,00 %
22.09.2017 23:16 10,5 C 13,3 C 94 % 1021,8 hPa 0,0 l/m 3,0 km/h (1 Bft) S 170 0 min 0,000 mm 0,0 UV-I 0 W/m 9,6 C 10,5 C 6,4 km/h (2 Bft) 100,00 %
22.09.2017 23:18 10,5 C 13,3 C 94 % 1021,8 hPa 0,0 l/m 2,8 km/h (1 Bft) S 173 0 min 0,000 mm 0,0 UV-I 0 W/m 9,6 C 10,5 C 4,8 km/h (1 Bft) 100,00 %
22.09.2017 23:20 10,4 C 13,3 C 94 % 1021,9 hPa 0,0 l/m 4,0 km/h (1 Bft) S 175 0 min 0,000 mm 0,0 UV-I 0 W/m 9,5 C 10,4 C 6,4 km/h (2 Bft) 100,00 %
22.09.2017 23:22 10,4 C 13,3 C 94 % 1021,9 hPa 0,0 l/m 3,4 km/h (1 Bft) S 176 0 min 0,000 mm 0,0 UV-I 0 W/m 9,5 C 10,4 C 6,4 km/h (2 Bft) 100,00 %
22.09.2017 23:24 10,4 C 13,3 C 94 % 1021,8 hPa 0,0 l/m 3,3 km/h (1 Bft) S 177 0 min 0,000 mm 0,0 UV-I 0 W/m 9,5 C 10,4 C 4,8 km/h (1 Bft) 100,00 %
22.09.2017 23:26 10,4 C 13,3 C 94 % 1021,9 hPa 0,0 l/m 4,5 km/h (1 Bft) S 186 0 min 0,000 mm 0,0 UV-I 0 W/m 9,5 C 10,4 C 6,4 km/h (2 Bft) 100,00 %
22.09.2017 23:28 10,4 C 13,3 C 94 % 1021,9 hPa 0,0 l/m 3,8 km/h (1 Bft) S 186 0 min 0,000 mm 0,0 UV-I 0 W/m 9,5 C 10,4 C 4,8 km/h (1 Bft) 100,00 %
22.09.2017 23:30 10,4 C 13,3 C 94 % 1021,9 hPa 0,0 l/m 3,4 km/h (1 Bft) S 186 0 min 0,000 mm 0,0 UV-I 0 W/m 9,5 C 10,4 C 4,8 km/h (1 Bft) 100,00 %
22.09.2017 23:32 10,3 C 13,3 C 94 % 1021,9 hPa 0,0 l/m 2,4 km/h (1 Bft) S 186 0 min 0,000 mm 0,0 UV-I 0 W/m 9,4 C 10,3 C 3,2 km/h (1 Bft) 97,92 %
22.09.2017 23:34 10,3 C 13,3 C 94 % 1021,9 hPa 0,0 l/m 2,2 km/h (1 Bft) S 186 0 min 0,000 mm 0,0 UV-I 0 W/m 9,4 C 10,3 C 3,2 km/h (1 Bft) 100,00 %
22.09.2017 23:36 10,3 C 13,3 C 94 % 1021,9 hPa 0,0 l/m 1,4 km/h (1 Bft) S 186 0 min 0,000 mm 0,0 UV-I 0 W/m 9,4 C 10,3 C 3,2 km/h (1 Bft) 100,00 %
22.09.2017 23:38 10,3 C 13,3 C 94 % 1021,9 hPa 0,0 l/m 1,5 km/h (1 Bft) S 186 0 min 0,000 mm 0,0 UV-I 0 W/m 9,4 C 10,3 C 3,2 km/h (1 Bft) 100,00 %
22.09.2017 23:40 10,3 C 13,3 C 94 % 1021,9 hPa 0,0 l/m 1,1 km/h (1 Bft) S 186 0 min 0,000 mm 0,0 UV-I 0 W/m 9,4 C 10,3 C 3,2 km/h (1 Bft) 97,56 %
22.09.2017 23:42 10,3 C 13,3 C 94 % 1022,0 hPa 0,0 l/m 2,2 km/h (1 Bft) S 186 0 min 0,000 mm 0,0 UV-I 0 W/m 9,4 C 10,3 C 4,8 km/h (1 Bft) 100,00 %
22.09.2017 23:44 10,2 C 13,3 C 94 % 1022,0 hPa 0,0 l/m 3,0 km/h (1 Bft) S 186 0 min 0,000 mm 0,0 UV-I 0 W/m 9,3 C 10,2 C 4,8 km/h (1 Bft) 100,00 %
22.09.2017 23:46 10,2 C 13,3 C 94 % 1022,0 hPa 0,0 l/m 3,3 km/h (1 Bft) S 186 0 min 0,000 mm 0,0 UV-I 0 W/m 9,3 C 10,2 C 4,8 km/h (1 Bft) 100,00 %
22.09.2017 23:48 10,2 C 13,3 C 94 % 1022,0 hPa 0,0 l/m 4,1 km/h (1 Bft) S 187 0 min 0,000 mm 0,0 UV-I 0 W/m 9,3 C 10,2 C 6,4 km/h (2 Bft) 96,23 %
22.09.2017 23:50 10,1 C 13,3 C 93 % 1022,0 hPa 0,0 l/m 3,1 km/h (1 Bft) S 184 0 min 0,000 mm 0,0 UV-I 0 W/m 9,0 C 10,1 C 4,8 km/h (1 Bft) 97,56 %
22.09.2017 23:52 10,1 C 13,3 C 94 % 1022,0 hPa 0,0 l/m 2,2 km/h (1 Bft) S 184 0 min 0,000 mm 0,0 UV-I 0 W/m 9,2 C 10,1 C 4,8 km/h (1 Bft) 96,23 %
22.09.2017 23:54 10,1 C 13,3 C 94 % 1022,0 hPa 0,0 l/m 2,6 km/h (1 Bft) S 184 0 min 0,000 mm 0,0 UV-I 0 W/m 9,2 C 10,1 C 4,8 km/h (1 Bft) 97,56 %
22.09.2017 23:56 10,1 C 13,3 C 93 % 1021,9 hPa 0,0 l/m 2,7 km/h (1 Bft) S 184 0 min 0,000 mm 0,0 UV-I 0 W/m 9,0 C 10,1 C 4,8 km/h (1 Bft) 96,00 %
22.09.2017 23:58 10,0 C 13,3 C 93 % 1021,9 hPa 0,0 l/m 2,7 km/h (1 Bft) S 184 0 min 0,000 mm 0,0 UV-I 0 W/m 8,9 C 10,0 C 4,8 km/h (1 Bft) 97,56 %
_ Min-Zeit 07:10 05:06 15:08 04:46 - 05:16 - - - - - - 06:02 03:24 05:16 11:00
Minimum _ 7,6 C 12,8 C 61 % 1019,4 hPa - 0,0 km/h (0 Bft) - - - - - - 6,4 C 7,1 C 0,0 km/h (0 Bft) 88,00 %
_ Max-Zeit 12:40 00:00 07:46 23:42 18:18 03:24 - - 07:02 13:02 12:22 12:12 18:26 12:40 03:24 00:52
Maximum _ 16,7 C 13,3 C 94 % 1022,0 hPa 0,2 l/m 10,5 km/h
W-SW (2 Bft)
- - 2 min 0,280 mm 3,5 UV-I 786 W/m 12,0 C 16,7 C 16,1 km/h
SW (3 Bft)
100,00 %
Durchschnitt _ 11,9 C 13,1 C 84 % 1020,4 hPa #0,2 l/m 3,0 km/h (1 Bft) SW - #1:58 h #1,118 mm 1,4 UV-I 167 W/m 9,2 C 11,8 C 5,0 km/h (1 Bft) 98,07 %